| time (UTC) | temp F | wind direction | speed knots | gust knots | rain 1hr in | rain 24hr in | rain mn in | humidity % | barometer mb |
| 20260906175110 | 99 | 68 | 0.0 | 3.5 | 0.00 | 0.08 | 0.00 | 44 | 1015.3 |
| 20260906175008 | 98 | 68 | 0.0 | 4.3 | 0.00 | 0.08 | 0.00 | 44 | 1015.2 |
| 20260906174903 | 98 | 69 | 1.7 | 4.3 | 0.00 | 0.08 | 0.00 | 44 | 1015.3 |
| 20260906174807 | 98 | 141 | 1.7 | 4.3 | 0.00 | 0.08 | 0.00 | 44 | 1015.4 |
| 20260906174702 | 98 | 120 | 1.7 | 4.3 | 0.00 | 0.08 | 0.00 | 44 | 1015.4 |
| 20260906174557 | 98 | 80 | 1.7 | 4.3 | 0.00 | 0.08 | 0.00 | 44 | 1015.3 |
| 20260906174503 | 98 | 126 | 1.7 | 4.3 | 0.00 | 0.08 | 0.00 | 45 | 1015.4 |
| 20260906174452 | 98 | 148 | 1.7 | 4.3 | 0.00 | 0.08 | 0.00 | 45 | 1015.4 |
| 20260906174356 | 98 | 142 | 0.9 | 4.3 | 0.00 | 0.08 | 0.00 | 44 | 1015.4 |
| 20260906174255 | 98 | 88 | 1.7 | 4.3 | 0.00 | 0.08 | 0.00 | 46 | 1015.4 |
| 20260906174200 | 98 | 113 | 2.6 | 4.3 | 0.00 | 0.08 | 0.00 | 45 | 1015.4 |
| 20260906174054 | 99 | 64 | 1.7 | 4.3 | 0.00 | 0.08 | 0.00 | 45 | 1015.4 |
| 20260906174008 | 98 | 82 | 0.9 | 3.5 | 0.00 | 0.08 | 0.00 | 45 | 1015.5 |
| 20260906173912 | 98 | 97 | 0.0 | 2.6 | 0.00 | 0.08 | 0.00 | 45 | 1015.5 |
| 20260906173806 | 98 | 110 | 0.9 | 2.6 | 0.00 | 0.08 | 0.00 | 46 | 1015.5 |
| 20260906173710 | 98 | 55 | 0.9 | 2.6 | 0.00 | 0.08 | 0.00 | 46 | 1015.5 |
| 20260906173608 | 98 | 46 | 0.0 | 2.6 | 0.00 | 0.08 | 0.00 | 46 | 1015.6 |
| 20260906173503 | 98 | 49 | 0.9 | 2.6 | 0.00 | 0.08 | 0.00 | 46 | 1015.5 |
| 20260906173407 | 98 | 58 | 1.7 | 2.6 | 0.00 | 0.08 | 0.00 | 46 | 1015.6 |
| 20260906173322 | 98 | 113 | 0.9 | 2.6 | 0.00 | 0.08 | 0.00 | 46 | 1015.6 |
| 20260906173225 | 98 | 94 | 0.9 | 3.5 | 0.00 | 0.08 | 0.00 | 47 | 1015.6 |
| 20260906173112 | 97 | 140 | 0.9 | 3.5 | 0.00 | 0.08 | 0.00 | 45 | 1015.6 |
| 20260906173059 | 98 | 128 | 0.9 | 3.5 | 0.00 | 0.08 | 0.00 | 45 | 1015.6 |
| 20260906173004 | 98 | 120 | 0.9 | 3.5 | 0.00 | 0.08 | 0.00 | 45 | 1015.6 |
| 20260906172918 | 98 | 67 | 0.9 | 5.2 | 0.00 | 0.08 | 0.00 | 46 | 1015.6 |
| 20260906172805 | 98 | 70 | 0.9 | 5.2 | 0.00 | 0.08 | 0.00 | 46 | 1015.6 |
| 20260906172700 | 98 | 94 | 0.0 | 5.2 | 0.00 | 0.08 | 0.00 | 46 | 1015.6 |
| 20260906172555 | 97 | 70 | 0.0 | 5.2 | 0.00 | 0.08 | 0.00 | 47 | 1015.6 |
| 20260906172458 | 97 | 70 | 0.9 | 5.2 | 0.00 | 0.08 | 0.00 | 46 | 1015.7 |
| 20260906172354 | 97 | 70 | 1.7 | 5.2 | 0.00 | 0.08 | 0.00 | 46 | 1015.6 |
| 20260906172249 | 97 | 98 | 1.7 | 5.2 | 0.00 | 0.08 | 0.00 | 47 | 1015.7 |
| 20260906172152 | 97 | 116 | 2.6 | 5.2 | 0.00 | 0.08 | 0.00 | 48 | 1015.8 |
| 20260906172051 | 97 | 67 | 1.7 | 5.2 | 0.00 | 0.08 | 0.00 | 48 | 1015.8 |
| 20260906172015 | 97 | 43 | 0.9 | 5.2 | 0.00 | 0.08 | 0.00 | 48 | 1015.8 |
| 20260906171908 | 97 | 30 | 0.9 | 5.2 | 0.00 | 0.08 | 0.00 | 47 | 1015.8 |
| 20260906171811 | 97 | 48 | 1.7 | 5.2 | 0.00 | 0.08 | 0.00 | 47 | 1015.8 |
| 20260906171707 | 97 | 24 | 2.6 | 5.2 | 0.00 | 0.08 | 0.00 | 47 | 1015.8 |
| 20260906171621 | 97 | 136 | 2.6 | 5.2 | 0.00 | 0.08 | 0.00 | 47 | 1015.8 |
| 20260906171600 | 97 | 70 | 3.5 | 5.2 | 0.00 | 0.08 | 0.00 | 47 | 1015.8 |
| 20260906171504 | 97 | 96 | 2.6 | 4.3 | 0.00 | 0.08 | 0.00 | 49 | 1015.9 |
| 20260906171404 | 97 | 70 | 0.9 | 4.3 | 0.00 | 0.08 | 0.00 | 49 | 1015.9 |
| 20260906171259 | 97 | 143 | 0.0 | 4.3 | 0.00 | 0.08 | 0.00 | 49 | 1015.9 |
| 20260906171202 | 97 | 113 | 0.0 | 4.3 | 0.00 | 0.08 | 0.00 | 48 | 1015.9 |
| 20260906171057 | 97 | 89 | 0.9 | 4.3 | 0.00 | 0.08 | 0.00 | 49 | 1016.0 |
| 20260906171022 | 97 | 86 | 1.7 | 4.3 | 0.00 | 0.08 | 0.00 | 48 | 1016.0 |
| 20260906170855 | 97 | 76 | 2.6 | 4.3 | 0.00 | 0.08 | 0.00 | 49 | 1016.0 |
| 20260906170819 | 97 | 83 | 2.6 | 4.3 | 0.00 | 0.08 | 0.00 | 49 | 1016.0 |
| 20260906170653 | 98 | 76 | 1.7 | 5.2 | 0.00 | 0.08 | 0.00 | 49 | 1016.0 |
| 20260906170552 | 98 | 67 | 1.7 | 5.2 | 0.00 | 0.08 | 0.00 | 49 | 1016.0 |
| 20260906170455 | 97 | 158 | 0.9 | 5.2 | 0.00 | 0.08 | 0.00 | 49 | 1016.0 |
| 20260906170350 | 97 | 124 | 0.0 | 5.2 | 0.00 | 0.08 | 0.00 | 49 | 1016.0 |
| 20260906170314 | 97 | 110 | 0.0 | 5.2 | 0.00 | 0.08 | 0.00 | 49 | 1016.0 |
| 20260906170149 | 97 | 72 | 1.7 | 5.2 | 0.00 | 0.08 | 0.00 | 50 | 1016.0 |
| 20260906170130 | 96 | 72 | 1.7 | 5.2 | 0.00 | 0.08 | 0.00 | 50 | 1016.0 |
| 20260906170117 | 97 | 100 | 2.6 | 5.2 | 0.00 | 0.08 | 0.00 | 50 | 1016.0 |
| 20260906170004 | 97 | 79 | 3.5 | 5.2 | 0.00 | 0.08 | 0.00 | 50 | 1016.0 |
| 20260906165910 | 97 | 93 | 3.5 | 5.2 | 0.00 | 0.08 | 0.00 | 49 | 1016.0 |
| 20260906165805 | 97 | 58 | 1.7 | 5.2 | 0.00 | 0.08 | 0.00 | 49 | 1016.0 |
| 20260906165700 | 97 | 69 | 0.9 | 3.5 | 0.00 | 0.08 | 0.00 | 49 | 1016.1 |
| 20260906165605 | 97 | 128 | 0.9 | 3.5 | 0.00 | 0.08 | 0.00 | 49 | 1016.1 |
| 20260906165519 | 97 | 57 | 0.0 | 3.5 | 0.00 | 0.08 | 0.00 | 49 | 1016.1 |
| 20260906165353 | 97 | 36 | 0.0 | 3.5 | 0.00 | 0.08 | 0.00 | 49 | 1016.1 |
| 20260906165257 | 97 | 35 | 0.0 | 3.5 | 0.00 | 0.08 | 0.00 | 50 | 1016.1 |
| 20260906165156 | 97 | 75 | 0.9 | 3.5 | 0.00 | 0.08 | 0.00 | 50 | 1016.2 |
| 20260906165051 | 97 | 98 | 1.7 | 3.5 | 0.00 | 0.08 | 0.00 | 49 | 1016.2 |
| 20260906164955 | 97 | 63 | 1.7 | 4.3 | 0.00 | 0.08 | 0.00 | 50 | 1016.2 |
| 20260906164921 | 97 | 126 | 1.7 | 4.3 | 0.00 | 0.08 | 0.00 | 49 | 1016.2 |
| 20260906164753 | 97 | 73 | 0.9 | 4.3 | 0.00 | 0.08 | 0.00 | 49 | 1016.3 |
| 20260906164648 | 97 | 55 | 0.9 | 4.3 | 0.00 | 0.08 | 0.00 | 50 | 1016.2 |
| 20260906164612 | 97 | 98 | 0.9 | 4.3 | 0.00 | 0.08 | 0.00 | 49 | 1016.3 |
| 20260906164539 | 96 | 86 | 0.0 | 4.3 | 0.00 | 0.08 | 0.00 | 49 | 1016.3 |
| 20260906164451 | 96 | 62 | 0.0 | 4.3 | 0.00 | 0.08 | 0.00 | 49 | 1016.3 |
| 20260906164405 | 96 | 95 | 0.9 | 4.3 | 0.00 | 0.08 | 0.00 | 50 | 1016.3 |
| 20260906164329 | 96 | 96 | 1.7 | 4.3 | 0.00 | 0.08 | 0.00 | 49 | 1016.3 |
| 20260906164231 | 97 | 94 | 2.6 | 4.3 | 0.00 | 0.08 | 0.00 | 49 | 1016.3 |
| 20260906164135 | 97 | 51 | 1.7 | 4.3 | 0.00 | 0.08 | 0.00 | 49 | 1016.3 |
| 20260906163950 | 97 | 98 | 0.9 | 4.3 | 0.00 | 0.08 | 0.00 | 49 | 1016.3 |
| 20260906163903 | 97 | 53 | 0.9 | 4.3 | 0.00 | 0.08 | 0.00 | 50 | 1016.3 |
| 20260906163808 | 96 | 98 | 0.9 | 4.3 | 0.00 | 0.08 | 0.00 | 50 | 1016.3 |
| 20260906163702 | 96 | 243 | 0.9 | 4.3 | 0.00 | 0.08 | 0.00 | 50 | 1016.3 |
| 20260906163601 | 96 | 101 | 1.7 | 4.3 | 0.00 | 0.08 | 0.00 | 50 | 1016.3 |
| 20260906163505 | 96 | 65 | 1.7 | 5.2 | 0.00 | 0.08 | 0.00 | 50 | 1016.3 |
| 20260906163400 | 96 | 112 | 1.7 | 5.2 | 0.00 | 0.08 | 0.00 | 50 | 1016.3 |
| 20260906163324 | 96 | 127 | 0.9 | 5.2 | 0.00 | 0.08 | 0.00 | 50 | 1016.3 |
| 20260906163158 | 96 | 152 | 0.9 | 5.2 | 0.00 | 0.08 | 0.00 | 50 | 1016.3 |
| 20260906163053 | 96 | 56 | 1.7 | 5.2 | 0.00 | 0.08 | 0.00 | 51 | 1016.3 |
| 20260906163001 | 95 | 110 | 1.7 | 5.2 | 0.00 | 0.08 | 0.00 | 50 | 1016.3 |
| 20260906162950 | 96 | 110 | 1.7 | 5.2 | 0.00 | 0.08 | 0.00 | 50 | 1016.3 |
| 20260906162856 | 96 | 107 | 2.6 | 5.2 | 0.00 | 0.08 | 0.00 | 50 | 1016.3 |
| 20260906162751 | 96 | 152 | 2.6 | 5.2 | 0.00 | 0.08 | 0.00 | 50 | 1016.3 |
| 20260906162715 | 96 | 201 | 2.6 | 5.2 | 0.00 | 0.08 | 0.00 | 50 | 1016.3 |
| 20260906162549 | 96 | 139 | 0.9 | 4.3 | 0.00 | 0.08 | 0.00 | 51 | 1016.3 |
| 20260906162513 | 96 | 99 | 0.9 | 4.3 | 0.00 | 0.08 | 0.00 | 51 | 1016.3 |
| 20260906162407 | 95 | 72 | 0.9 | 4.3 | 0.00 | 0.08 | 0.00 | 50 | 1016.3 |
| 20260906162305 | 95 | 135 | 0.9 | 4.3 | 0.00 | 0.08 | 0.00 | 51 | 1016.3 |
| 20260906162210 | 95 | 79 | 0.9 | 4.3 | 0.00 | 0.08 | 0.00 | 50 | 1016.3 |
| 20260906162105 | 95 | 113 | 0.9 | 4.3 | 0.00 | 0.08 | 0.00 | 52 | 1016.3 |
| 20260906162000 | 95 | 113 | 1.7 | 4.3 | 0.00 | 0.08 | 0.00 | 52 | 1016.3 |
| 20260906161904 | 95 | 68 | 1.7 | 4.3 | 0.00 | 0.08 | 0.00 | 51 | 1016.3 |
| 20260906161819 | 95 | 58 | 0.9 | 4.3 | 0.00 | 0.08 | 0.00 | 53 | 1016.3 |
| 20260906161722 | 95 | 104 | 1.7 | 4.3 | 0.00 | 0.08 | 0.00 | 53 | 1016.3 |
| 20260906161611 | 95 | 114 | 1.7 | 4.3 | 0.00 | 0.08 | 0.00 | 53 | 1016.3 |
| 20260906161556 | 95 | 66 | 1.7 | 4.3 | 0.00 | 0.08 | 0.00 | 53 | 1016.3 |
| 20260906161500 | 95 | 64 | 1.7 | 4.3 | 0.00 | 0.08 | 0.00 | 53 | 1016.3 |
| 20260906161359 | 95 | 77 | 2.6 | 4.3 | 0.00 | 0.08 | 0.00 | 53 | 1016.3 |
| 20260906161254 | 95 | 58 | 1.7 | 4.3 | 0.00 | 0.08 | 0.00 | 53 | 1016.3 |
| 20260906161158 | 95 | 80 | 0.9 | 3.5 | 0.00 | 0.08 | 0.00 | 53 | 1016.2 |
| 20260906161053 | 95 | 137 | 0.0 | 2.6 | 0.00 | 0.08 | 0.00 | 54 | 1016.2 |
| 20260906160956 | 95 | 162 | 0.0 | 3.5 | 0.00 | 0.08 | 0.00 | 53 | 1016.2 |
| 20260906160911 | 95 | 98 | 0.0 | 3.5 | 0.00 | 0.08 | 0.00 | 54 | 1016.2 |
| 20260906160814 | 95 | 284 | 0.0 | 3.5 | 0.00 | 0.08 | 0.00 | 54 | 1016.2 |
| 20260906160648 | 95 | 168 | 0.0 | 3.5 | 0.00 | 0.08 | 0.00 | 54 | 1016.3 |
| 20260906160556 | 94 | 203 | 0.0 | 3.5 | 0.00 | 0.08 | 0.00 | 55 | 1016.2 |
| 20260906160451 | 94 | 67 | 0.0 | 3.5 | 0.00 | 0.08 | 0.00 | 54 | 1016.2 |
| 20260906160415 | 94 | 72 | 0.9 | 3.5 | 0.00 | 0.08 | 0.00 | 55 | 1016.2 |
| 20260906160250 | 94 | 117 | 1.7 | 3.5 | 0.00 | 0.08 | 0.00 | 56 | 1016.2 |
| 20260906160205 | 94 | 64 | 0.9 | 3.5 | 0.00 | 0.08 | 0.00 | 56 | 1016.2 |
| 20260906160118 | 94 | 39 | 0.0 | 2.6 | 0.00 | 0.08 | 0.00 | 56 | 1016.2 |
| 20260906160026 | 94 | 62 | 0.9 | 2.6 | 0.00 | 0.08 | 0.00 | 56 | 1016.2 |
| 20260906155859 | 94 | 63 | 1.7 | 3.5 | 0.00 | 0.08 | 0.00 | 55 | 1016.1 |
| 20260906155807 | 94 | 58 | 0.9 | 3.5 | 0.00 | 0.08 | 0.00 | 56 | 1016.1 |
| 20260906155702 | 93 | 169 | 0.0 | 3.5 | 0.00 | 0.08 | 0.00 | 56 | 1016.1 |
| 20260906155557 | 93 | 169 | 0.9 | 4.3 | 0.00 | 0.08 | 0.00 | 56 | 1016.1 |
| 20260906155520 | 93 | 101 | 1.7 | 4.3 | 0.00 | 0.08 | 0.00 | 56 | 1016.1 |
| 20260906155354 | 93 | 141 | 0.9 | 4.3 | 0.00 | 0.08 | 0.00 | 57 | 1016.1 |
| 20260906155258 | 93 | 105 | 0.9 | 4.3 | 0.00 | 0.08 | 0.00 | 57 | 1016.1 |
| 20260906155213 | 93 | 124 | 1.7 | 4.3 | 0.00 | 0.08 | 0.00 | 57 | 1016.0 |
| 20260906155100 | 93 | 122 | 1.7 | 4.3 | 0.00 | 0.08 | 0.00 | 56 | 1016.1 |
| 20260906155015 | 93 | 131 | 1.7 | 4.3 | 0.00 | 0.08 | 0.00 | 57 | 1016.0 |
| 20260906154858 | 93 | 36 | 2.6 | 4.3 | 0.00 | 0.08 | 0.00 | 57 | 1016.1 |
| 20260906154753 | 93 | 75 | 2.6 | 4.3 | 0.00 | 0.08 | 0.00 | 56 | 1016.0 |
| 20260906154648 | 93 | 50 | 2.6 | 4.3 | 0.00 | 0.08 | 0.00 | 56 | 1016.0 |
| 20260906154612 | 93 | 146 | 1.7 | 4.3 | 0.00 | 0.08 | 0.00 | 55 | 1016.0 |
| 20260906154536 | 93 | 105 | 1.7 | 4.3 | 0.00 | 0.08 | 0.00 | 56 | 1016.0 |
| 20260906154507 | 93 | 117 | 0.9 | 3.5 | 0.00 | 0.08 | 0.00 | 56 | 1016.0 |
| 20260906154402 | 93 | 46 | 0.9 | 3.5 | 0.00 | 0.08 | 0.00 | 57 | 1016.0 |
| 20260906154310 | 93 | 102 | 0.9 | 3.5 | 0.00 | 0.08 | 0.00 | 56 | 1016.0 |
| 20260906154205 | 93 | 113 | 2.6 | 3.5 | 0.00 | 0.08 | 0.00 | 56 | 1016.1 |
| 20260906154129 | 93 | 65 | 1.7 | 3.5 | 0.00 | 0.08 | 0.00 | 56 | 1016.1 |
| 20260906154003 | 93 | 43 | 0.9 | 2.6 | 0.00 | 0.08 | 0.00 | 58 | 1016.0 |
| 20260906153858 | 93 | 134 | 0.9 | 2.6 | 0.00 | 0.08 | 0.00 | 58 | 1016.1 |
| 20260906153802 | 93 | 102 | 0.9 | 2.6 | 0.00 | 0.08 | 0.00 | 59 | 1016.0 |
| 20260906153657 | 92 | 347 | 0.0 | 2.6 | 0.00 | 0.08 | 0.00 | 58 | 1016.0 |
| 20260906153556 | 92 | 246 | 0.0 | 2.6 | 0.00 | 0.08 | 0.00 | 59 | 1016.0 |
| 20260906153500 | 92 | 79 | 0.0 | 2.6 | 0.00 | 0.08 | 0.00 | 60 | 1016.0 |
| 20260906153355 | 92 | 70 | 0.9 | 3.5 | 0.00 | 0.08 | 0.00 | 59 | 1016.0 |
| 20260906153250 | 92 | 82 | 1.7 | 3.5 | 0.00 | 0.08 | 0.00 | 59 | 1016.0 |
| 20260906153154 | 92 | 81 | 1.7 | 3.5 | 0.00 | 0.08 | 0.00 | 60 | 1016.1 |
| 20260906153049 | 92 | 68 | 0.9 | 3.5 | 0.00 | 0.08 | 0.00 | 60 | 1016.1 |
| 20260906153004 | 91 | 110 | 0.0 | 4.3 | 0.00 | 0.08 | 0.00 | 60 | 1016.1 |
| 20260906152949 | 91 | 69 | 0.9 | 4.3 | 0.00 | 0.08 | 0.00 | 60 | 1016.1 |
| 20260906152911 | 91 | 70 | 0.9 | 4.3 | 0.00 | 0.08 | 0.00 | 60 | 1016.1 |
| 20260906152836 | 91 | 64 | 1.7 | 4.3 | 0.00 | 0.08 | 0.00 | 59 | 1016.1 |
| 20260906152650 | 91 | 71 | 1.7 | 4.3 | 0.00 | 0.08 | 0.00 | 60 | 1016.0 |
| 20260906152605 | 91 | 115 | 1.7 | 4.3 | 0.00 | 0.08 | 0.00 | 59 | 1016.0 |
| 20260906152509 | 91 | 89 | 1.7 | 4.3 | 0.00 | 0.08 | 0.00 | 58 | 1016.1 |
| 20260906152404 | 91 | 100 | 1.7 | 4.3 | 0.00 | 0.08 | 0.00 | 59 | 1016.1 |
| 20260906152259 | 91 | 100 | 1.7 | 4.3 | 0.00 | 0.08 | 0.00 | 59 | 1016.1 |
| 20260906152207 | 91 | 128 | 1.7 | 4.3 | 0.00 | 0.08 | 0.00 | 59 | 1016.1 |
| 20260906152121 | 91 | 130 | 0.9 | 3.5 | 0.00 | 0.08 | 0.00 | 60 | 1016.1 |
| 20260906152025 | 91 | 112 | 1.7 | 3.5 | 0.00 | 0.08 | 0.00 | 59 | 1016.1 |
| 20260906151928 | 91 | 83 | 1.7 | 3.5 | 0.00 | 0.08 | 0.00 | 60 | 1016.1 |
| 20260906151802 | 91 | 129 | 1.7 | 3.5 | 0.00 | 0.08 | 0.00 | 60 | 1016.1 |
| 20260906151656 | 91 | 274 | 1.7 | 3.5 | 0.00 | 0.08 | 0.00 | 60 | 1016.1 |
| 20260906151601 | 91 | 126 | 1.7 | 3.5 | 0.00 | 0.08 | 0.00 | 60 | 1016.1 |
| 20260906151535 | 91 | 152 | 1.7 | 3.5 | 0.00 | 0.08 | 0.00 | 60 | 1016.1 |
| 20260906151516 | 91 | 134 | 1.7 | 3.5 | 0.00 | 0.08 | 0.00 | 62 | 1016.1 |
| 20260906151403 | 91 | 90 | 0.9 | 4.3 | 0.00 | 0.08 | 0.00 | 61 | 1016.1 |
| 20260906151257 | 91 | 124 | 0.0 | 4.3 | 0.00 | 0.08 | 0.00 | 62 | 1016.1 |
| 20260906151153 | 90 | 135 | 0.0 | 4.3 | 0.00 | 0.08 | 0.00 | 62 | 1016.1 |
| 20260906151056 | 90 | 103 | 0.9 | 4.3 | 0.00 | 0.08 | 0.00 | 62 | 1016.1 |
| 20260906150952 | 90 | 63 | 2.6 | 4.3 | 0.00 | 0.08 | 0.00 | 61 | 1016.1 |
| 20260906150915 | 90 | 96 | 0.9 | 4.3 | 0.00 | 0.08 | 0.00 | 61 | 1016.1 |
| 20260906150750 | 90 | 112 | 0.9 | 4.3 | 0.00 | 0.08 | 0.00 | 61 | 1016.1 |
| 20260906150648 | 90 | 130 | 2.6 | 4.3 | 0.00 | 0.08 | 0.00 | 61 | 1016.1 |
| 20260906150552 | 90 | 108 | 2.6 | 4.3 | 0.00 | 0.08 | 0.00 | 61 | 1016.1 |
| 20260906150507 | 90 | 72 | 2.6 | 4.3 | 0.00 | 0.08 | 0.00 | 61 | 1016.1 |
| 20260906150410 | 90 | 130 | 2.6 | 4.3 | 0.00 | 0.08 | 0.00 | 61 | 1016.1 |
| 20260906150305 | 90 | 100 | 1.7 | 4.3 | 0.00 | 0.08 | 0.00 | 61 | 1016.1 |
| 20260906150200 | 90 | 120 | 1.7 | 4.3 | 0.00 | 0.08 | 0.00 | 61 | 1016.1 |
| 20260906150137 | 90 | 103 | 0.9 | 4.3 | 0.00 | 0.08 | 0.00 | 63 | 1016.1 |
| 20260906150008 | 89 | 120 | 0.0 | 4.3 | 0.00 | 0.08 | 0.00 | 62 | 1016.1 |
| 20260906145955 | 90 | 121 | 0.9 | 4.3 | 0.00 | 0.08 | 0.00 | 62 | 1016.1 |
| 20260906145921 | 90 | 124 | 1.7 | 4.3 | 0.00 | 0.08 | 0.00 | 62 | 1016.1 |
| 20260906145824 | 90 | 91 | 1.7 | 4.3 | 0.00 | 0.08 | 0.00 | 62 | 1016.0 |
| 20260906145659 | 90 | 156 | 2.6 | 4.3 | 0.00 | 0.08 | 0.00 | 61 | 1016.0 |
| 20260906145603 | 90 | 108 | 2.6 | 4.3 | 0.00 | 0.08 | 0.00 | 61 | 1016.1 |
| 20260906145457 | 90 | 72 | 2.6 | 5.2 | 0.00 | 0.08 | 0.00 | 61 | 1016.1 |
| 20260906145352 | 90 | 65 | 0.9 | 5.2 | 0.00 | 0.08 | 0.00 | 62 | 1016.1 |
| 20260906145255 | 90 | 113 | 0.0 | 5.2 | 0.00 | 0.08 | 0.00 | 63 | 1016.1 |
| 20260906145150 | 89 | 127 | 0.9 | 5.2 | 0.00 | 0.08 | 0.00 | 63 | 1016.1 |
| 20260906145059 | 89 | 122 | 1.7 | 5.2 | 0.00 | 0.08 | 0.00 | 62 | 1016.1 |
| 20260906145013 | 89 | 130 | 1.7 | 5.2 | 0.00 | 0.08 | 0.00 | 62 | 1016.2 |
| 20260906144857 | 89 | 123 | 0.9 | 5.2 | 0.00 | 0.08 | 0.00 | 63 | 1016.2 |
| 20260906144751 | 89 | 131 | 1.7 | 5.2 | 0.00 | 0.08 | 0.00 | 63 | 1016.2 |
| 20260906144705 | 89 | 134 | 1.7 | 5.2 | 0.00 | 0.08 | 0.00 | 62 | 1016.2 |
| 20260906144609 | 89 | 63 | 0.0 | 3.5 | 0.00 | 0.08 | 0.00 | 64 | 1016.2 |
| 20260906144515 | 89 | 94 | 0.0 | 3.5 | 0.00 | 0.08 | 0.00 | 64 | 1016.2 |
| 20260906144503 | 89 | 94 | 0.0 | 3.5 | 0.00 | 0.08 | 0.00 | 64 | 1016.2 |
| 20260906144352 | 89 | 89 | 1.7 | 3.5 | 0.00 | 0.08 | 0.00 | 63 | 1016.2 |
| 20260906144306 | 89 | 96 | 0.9 | 3.5 | 0.00 | 0.08 | 0.00 | 64 | 1016.2 |
| 20260906144211 | 89 | 68 | 0.0 | 3.5 | 0.00 | 0.08 | 0.00 | 64 | 1016.2 |
| 20260906144104 | 89 | 122 | 0.9 | 3.5 | 0.00 | 0.08 | 0.00 | 65 | 1016.2 |
| 20260906144009 | 88 | 122 | 1.7 | 3.5 | 0.00 | 0.08 | 0.00 | 65 | 1016.2 |
| 20260906143903 | 88 | 136 | 1.7 | 3.5 | 0.00 | 0.08 | 0.00 | 63 | 1016.1 |
| 20260906143758 | 89 | 113 | 1.7 | 3.5 | 0.00 | 0.08 | 0.00 | 64 | 1016.1 |
| 20260906143653 | 89 | 100 | 0.9 | 3.5 | 0.00 | 0.08 | 0.00 | 64 | 1016.1 |
| 20260906143601 | 89 | 110 | 0.9 | 3.5 | 0.00 | 0.08 | 0.00 | 64 | 1016.1 |
| 20260906143456 | 89 | 64 | 1.7 | 3.5 | 0.00 | 0.08 | 0.00 | 64 | 1016.2 |
| 20260906143351 | 89 | 68 | 1.7 | 4.3 | 0.00 | 0.08 | 0.00 | 63 | 1016.2 |
| 20260906143255 | 89 | 127 | 1.7 | 4.3 | 0.00 | 0.08 | 0.00 | 63 | 1016.2 |
| 20260906143150 | 89 | 111 | 0.9 | 4.3 | 0.00 | 0.08 | 0.00 | 65 | 1016.2 |
| 20260906143114 | 88 | 86 | 0.9 | 4.3 | 0.00 | 0.08 | 0.00 | 64 | 1016.1 |
| 20260906143023 | 88 | 42 | 0.0 | 4.3 | 0.00 | 0.08 | 0.00 | 64 | 1016.1 |
| 20260906142950 | 88 | 42 | 0.0 | 4.3 | 0.00 | 0.08 | 0.00 | 64 | 1016.1 |
| 20260906142917 | 88 | 105 | 0.0 | 4.3 | 0.00 | 0.08 | 0.00 | 65 | 1016.1 |
| 20260906142751 | 88 | 108 | 0.9 | 4.3 | 0.00 | 0.08 | 0.00 | 65 | 1016.1 |
| 20260906142706 | 88 | 108 | 0.9 | 4.3 | 0.00 | 0.08 | 0.00 | 65 | 1016.1 |
| 20260906142610 | 88 | 108 | 0.9 | 4.3 | 0.00 | 0.08 | 0.00 | 65 | 1016.0 |
| 20260906142505 | 88 | 63 | 0.9 | 5.2 | 0.00 | 0.08 | 0.00 | 65 | 1016.0 |
| 20260906142400 | 87 | 112 | 0.9 | 5.2 | 0.00 | 0.08 | 0.00 | 66 | 1016.0 |
| 20260906142306 | 87 | 27 | 0.9 | 5.2 | 0.00 | 0.08 | 0.00 | 66 | 1016.0 |
| 20260906142203 | 87 | 57 | 0.9 | 5.2 | 0.00 | 0.08 | 0.00 | 66 | 1016.0 |
| 20260906142058 | 87 | 67 | 1.7 | 5.2 | 0.00 | 0.08 | 0.00 | 66 | 1016.0 |
| 20260906142022 | 87 | 107 | 1.7 | 5.2 | 0.00 | 0.08 | 0.00 | 66 | 1016.0 |
| 20260906141856 | 87 | 103 | 1.7 | 5.2 | 0.00 | 0.08 | 0.00 | 66 | 1016.0 |
| 20260906141800 | 87 | 98 | 1.7 | 5.2 | 0.00 | 0.08 | 0.00 | 66 | 1016.0 |
| 20260906141655 | 87 | 143 | 0.9 | 6.1 | 0.00 | 0.08 | 0.00 | 67 | 1016.0 |
| 20260906141612 | 86 | 105 | 0.0 | 7.0 | 0.00 | 0.08 | 0.00 | 67 | 1016.0 |
| 20260906141550 | 87 | 108 | 0.0 | 7.0 | 0.00 | 0.08 | 0.00 | 67 | 1016.0 |
| 20260906141458 | 87 | 113 | 0.0 | 7.0 | 0.00 | 0.08 | 0.00 | 68 | 1016.0 |
| 20260906141413 | 86 | 145 | 0.0 | 7.0 | 0.00 | 0.08 | 0.00 | 68 | 1016.0 |
| 20260906141256 | 86 | 114 | 0.0 | 7.0 | 0.00 | 0.08 | 0.00 | 68 | 1016.0 |
| 20260906141151 | 86 | 114 | 0.9 | 7.0 | 0.00 | 0.08 | 0.00 | 68 | 1016.0 |
| 20260906141115 | 86 | 114 | 0.9 | 7.0 | 0.00 | 0.08 | 0.00 | 68 | 1016.0 |
| 20260906140950 | 86 | 94 | 2.6 | 7.0 | 0.00 | 0.08 | 0.00 | 68 | 1016.0 |
| 20260906140905 | 86 | 108 | 2.6 | 7.0 | 0.00 | 0.08 | 0.00 | 67 | 1015.9 |
| 20260906140813 | 86 | 64 | 2.6 | 6.1 | 0.00 | 0.08 | 0.00 | 68 | 1016.0 |
| 20260906140648 | 86 | 108 | 2.6 | 6.1 | 0.00 | 0.08 | 0.00 | 67 | 1016.0 |
| 20260906140602 | 86 | 71 | 3.5 | 6.1 | 0.00 | 0.08 | 0.00 | 67 | 1016.0 |
| 20260906140506 | 86 | 91 | 3.5 | 6.1 | 0.00 | 0.08 | 0.00 | 67 | 1016.0 |
| 20260906140420 | 86 | 56 | 2.6 | 6.1 | 0.00 | 0.08 | 0.00 | 67 | 1016.0 |
| 20260906140303 | 86 | 73 | 3.5 | 6.1 | 0.00 | 0.08 | 0.00 | 67 | 1016.0 |
| 20260906140158 | 86 | 56 | 2.6 | 6.1 | 0.00 | 0.08 | 0.00 | 67 | 1016.0 |
| 20260906140122 | 85 | 115 | 1.7 | 6.1 | 0.00 | 0.08 | 0.00 | 68 | 1016.0 |
| 20260906140108 | 86 | 89 | 1.7 | 6.1 | 0.00 | 0.08 | 0.00 | 68 | 1016.0 |
| 20260906135956 | 86 | 100 | 1.7 | 4.3 | 0.00 | 0.08 | 0.00 | 68 | 1016.0 |
| 20260906135910 | 86 | 64 | 0.9 | 4.3 | 0.00 | 0.08 | 0.00 | 68 | 1016.0 |
| 20260906135813 | 85 | 96 | 0.0 | 4.3 | 0.00 | 0.08 | 0.00 | 68 | 1016.0 |
| 20260906135716 | 85 | 94 | 0.0 | 4.3 | 0.00 | 0.08 | 0.00 | 69 | 1016.0 |
| 20260906135551 | 85 | 143 | 1.7 | 4.3 | 0.00 | 0.08 | 0.00 | 68 | 1016.0 |
| 20260906135506 | 85 | 121 | 1.7 | 4.3 | 0.00 | 0.08 | 0.00 | 68 | 1016.0 |
| 20260906135410 | 85 | 61 | 2.6 | 4.3 | 0.00 | 0.08 | 0.00 | 68 | 1016.0 |
| 20260906135249 | 85 | 137 | 1.7 | 4.3 | 0.00 | 0.08 | 0.00 | 68 | 1016.0 |
| 20260906135204 | 85 | 62 | 1.7 | 4.3 | 0.00 | 0.08 | 0.00 | 68 | 1015.9 |
| 20260906135128 | 85 | 100 | 0.9 | 2.6 | 0.00 | 0.08 | 0.00 | 68 | 1016.0 |
| 20260906135002 | 85 | 107 | 0.9 | 2.6 | 0.00 | 0.08 | 0.00 | 68 | 1015.9 |
| 20260906134906 | 85 | 133 | 1.7 | 2.6 | 0.00 | 0.08 | 0.00 | 68 | 1016.0 |
| 20260906134821 | 85 | 116 | 0.9 | 2.6 | 0.00 | 0.08 | 0.00 | 68 | 1015.9 |
| 20260906134704 | 85 | 103 | 0.0 | 2.6 | 0.00 | 0.08 | 0.00 | 69 | 1015.9 |
| 20260906134559 | 85 | 68 | 0.0 | 2.6 | 0.00 | 0.08 | 0.00 | 69 | 1015.9 |
| 20260906134512 | 84 | 68 | 0.0 | 2.6 | 0.00 | 0.08 | 0.00 | 69 | 1015.9 |
| 20260906134458 | 85 | 68 | 0.9 | 2.6 | 0.00 | 0.08 | 0.00 | 69 | 1015.9 |
| 20260906134402 | 85 | 108 | 0.9 | 2.6 | 0.00 | 0.08 | 0.00 | 69 | 1015.9 |
| 20260906134257 | 84 | 130 | 0.9 | 2.6 | 0.00 | 0.08 | 0.00 | 69 | 1015.9 |
| 20260906134152 | 84 | 96 | 0.9 | 2.6 | 0.00 | 0.08 | 0.00 | 69 | 1015.9 |
| 20260906134056 | 84 | 97 | 0.9 | 2.6 | 0.00 | 0.08 | 0.00 | 70 | 1015.9 |
| 20260906133951 | 84 | 99 | 0.9 | 2.6 | 0.00 | 0.08 | 0.00 | 70 | 1015.9 |
| 20260906133850 | 84 | 99 | 0.9 | 2.6 | 0.00 | 0.08 | 0.00 | 70 | 1015.9 |
| 20260906133754 | 84 | 120 | 0.0 | 2.6 | 0.00 | 0.08 | 0.00 | 70 | 1015.9 |
| 20260906133709 | 84 | 99 | 0.9 | 2.6 | 0.00 | 0.08 | 0.00 | 70 | 1015.8 |
| 20260906133551 | 84 | 90 | 0.9 | 2.6 | 0.00 | 0.08 | 0.00 | 70 | 1015.8 |
| 20260906133506 | 84 | 88 | 0.9 | 2.6 | 0.00 | 0.08 | 0.00 | 70 | 1015.8 |
| 20260906133411 | 84 | 101 | 0.9 | 2.6 | 0.00 | 0.08 | 0.00 | 70 | 1015.8 |
| 20260906133305 | 83 | 98 | 0.9 | 2.6 | 0.00 | 0.08 | 0.00 | 70 | 1015.8 |
| 20260906133200 | 83 | 119 | 0.9 | 2.6 | 0.00 | 0.08 | 0.00 | 70 | 1015.8 |
| 20260906133109 | 83 | 106 | 0.9 | 2.6 | 0.00 | 0.08 | 0.00 | 70 | 1015.8 |
| 20260906133027 | 83 | 106 | 0.9 | 2.6 | 0.00 | 0.08 | 0.00 | 70 | 1015.8 |
| 20260906133004 | 83 | 106 | 0.9 | 2.6 | 0.00 | 0.08 | 0.00 | 70 | 1015.8 |
| 20260906132907 | 83 | 69 | 0.9 | 2.6 | 0.00 | 0.08 | 0.00 | 70 | 1015.8 |
| 20260906132802 | 83 | 119 | 1.7 | 3.5 | 0.00 | 0.08 | 0.00 | 70 | 1015.8 |
| 20260906132726 | 83 | 108 | 1.7 | 4.3 | 0.00 | 0.08 | 0.00 | 70 | 1015.8 |
| 20260906132619 | 83 | 108 | 1.7 | 4.3 | 0.00 | 0.08 | 0.00 | 70 | 1015.8 |
| 20260906132503 | 83 | 65 | 0.9 | 4.3 | 0.00 | 0.08 | 0.00 | 71 | 1015.8 |
| 20260906132417 | 83 | 113 | 0.9 | 4.3 | 0.00 | 0.08 | 0.00 | 71 | 1015.8 |
| 20260906132306 | 83 | 82 | 0.9 | 4.3 | 0.00 | 0.08 | 0.00 | 71 | 1015.8 |
| 20260906132159 | 82 | 86 | 0.9 | 4.3 | 0.00 | 0.08 | 0.00 | 71 | 1015.8 |
| 20260906132054 | 82 | 145 | 0.9 | 4.3 | 0.00 | 0.08 | 0.00 | 71 | 1015.7 |
| 20260906131958 | 82 | 79 | 1.7 | 4.3 | 0.00 | 0.08 | 0.00 | 71 | 1015.8 |
| 20260906131853 | 82 | 116 | 1.7 | 5.2 | 0.00 | 0.08 | 0.00 | 71 | 1015.7 |
| 20260906131817 | 82 | 112 | 1.7 | 5.2 | 0.00 | 0.08 | 0.00 | 71 | 1015.7 |
| 20260906131712 | 82 | 77 | 1.7 | 5.2 | 0.00 | 0.08 | 0.00 | 71 | 1015.7 |
| 20260906131615 | 82 | 127 | 1.7 | 5.2 | 0.00 | 0.08 | 0.00 | 71 | 1015.6 |
| 20260906131513 | 82 | 112 | 0.9 | 5.2 | 0.00 | 0.08 | 0.00 | 71 | 1015.6 |
| 20260906131453 | 82 | 98 | 0.9 | 5.2 | 0.00 | 0.08 | 0.00 | 71 | 1015.6 |
| 20260906131356 | 82 | 64 | 1.7 | 5.2 | 0.00 | 0.08 | 0.00 | 71 | 1015.7 |
| 20260906131251 | 82 | 106 | 2.6 | 5.2 | 0.00 | 0.08 | 0.00 | 71 | 1015.6 |
| 20260906131155 | 82 | 120 | 2.6 | 5.2 | 0.00 | 0.08 | 0.00 | 71 | 1015.6 |
| 20260906131049 | 82 | 72 | 1.7 | 4.3 | 0.00 | 0.08 | 0.00 | 71 | 1015.6 |
| 20260906131014 | 82 | 78 | 0.9 | 3.5 | 0.00 | 0.08 | 0.00 | 71 | 1015.6 |
| 20260906130907 | 82 | 111 | 0.9 | 3.5 | 0.00 | 0.08 | 0.00 | 71 | 1015.6 |
| 20260906130810 | 82 | 110 | 1.7 | 3.5 | 0.00 | 0.08 | 0.00 | 71 | 1015.6 |
| 20260906130648 | 82 | 68 | 0.9 | 3.5 | 0.00 | 0.08 | 0.00 | 72 | 1015.6 |
| 20260906130612 | 82 | 68 | 0.0 | 3.5 | 0.00 | 0.08 | 0.00 | 72 | 1015.6 |
| 20260906130506 | 82 | 68 | 0.0 | 3.5 | 0.00 | 0.08 | 0.00 | 72 | 1015.6 |
| 20260906130410 | 82 | 68 | 0.9 | 3.5 | 0.00 | 0.08 | 0.00 | 72 | 1015.5 |
| 20260906130305 | 82 | 67 | 1.7 | 3.5 | 0.00 | 0.08 | 0.00 | 72 | 1015.5 |
| 20260906130201 | 82 | 72 | 1.7 | 3.5 | 0.00 | 0.08 | 0.00 | 72 | 1015.5 |
| 20260906130115 | 82 | 98 | 1.7 | 3.5 | 0.00 | 0.08 | 0.00 | 72 | 1015.5 |
| 20260906130027 | 81 | 69 | 0.9 | 3.5 | 0.00 | 0.08 | 0.00 | 72 | 1015.5 |
| 20260906125955 | 81 | 60 | 0.9 | 3.5 | 0.00 | 0.08 | 0.00 | 72 | 1015.5 |
| 20260906125852 | 81 | 139 | 0.9 | 5.2 | 0.00 | 0.08 | 0.00 | 72 | 1015.5 |
| 20260906125816 | 81 | 69 | 0.0 | 7.0 | 0.00 | 0.08 | 0.00 | 73 | 1015.5 |
| 20260906125650 | 81 | 69 | 0.0 | 7.0 | 0.00 | 0.08 | 0.00 | 73 | 1015.5 |
| 20260906125554 | 81 | 69 | 0.9 | 7.0 | 0.00 | 0.08 | 0.00 | 73 | 1015.4 |
| 20260906125449 | 81 | 69 | 0.9 | 7.0 | 0.00 | 0.08 | 0.00 | 73 | 1015.4 |
| 20260906125413 | 81 | 68 | 0.9 | 7.0 | 0.00 | 0.08 | 0.00 | 73 | 1015.4 |
| 20260906125248 | 81 | 93 | 1.7 | 7.0 | 0.00 | 0.08 | 0.00 | 73 | 1015.4 |
| 20260906125147 | 81 | 98 | 2.6 | 7.0 | 0.00 | 0.08 | 0.00 | 73 | 1015.4 |
| 20260906125111 | 81 | 49 | 3.5 | 7.0 | 0.00 | 0.08 | 0.00 | 73 | 1015.4 |
| 20260906125006 | 81 | 65 | 2.6 | 7.0 | 0.00 | 0.08 | 0.00 | 73 | 1015.4 |
| 20260906124930 | 81 | 79 | 1.7 | 4.3 | 0.00 | 0.08 | 0.00 | 73 | 1015.3 |
| 20260906124804 | 80 | 117 | 1.7 | 3.5 | 0.00 | 0.08 | 0.00 | 73 | 1015.4 |
| 20260906124659 | 80 | 98 | 1.7 | 5.2 | 0.00 | 0.08 | 0.00 | 73 | 1015.4 |
| 20260906124603 | 80 | 102 | 0.9 | 5.2 | 0.00 | 0.08 | 0.00 | 73 | 1015.4 |
| 20260906124539 | 80 | 58 | 0.9 | 5.2 | 0.00 | 0.08 | 0.00 | 73 | 1015.4 |
| 20260906124502 | 80 | 125 | 0.9 | 5.2 | 0.00 | 0.08 | 0.00 | 73 | 1015.3 |
| 20260906124357 | 80 | 141 | 1.7 | 5.2 | 0.00 | 0.08 | 0.00 | 73 | 1015.3 |
| 20260906124301 | 80 | 70 | 1.7 | 5.2 | 0.00 | 0.08 | 0.00 | 73 | 1015.2 |
| 20260906124156 | 80 | 74 | 1.7 | 5.2 | 0.00 | 0.08 | 0.00 | 73 | 1015.2 |
| 20260906124051 | 80 | 89 | 2.6 | 5.2 | 0.00 | 0.08 | 0.00 | 73 | 1015.2 |
| 20260906123955 | 80 | 80 | 1.7 | 5.2 | 0.00 | 0.08 | 0.00 | 73 | 1015.1 |
| 20260906123850 | 80 | 63 | 0.9 | 2.6 | 0.00 | 0.08 | 0.00 | 74 | 1015.2 |
| 20260906123749 | 80 | 98 | 0.9 | 2.6 | 0.00 | 0.08 | 0.00 | 74 | 1015.1 |
| 20260906123653 | 80 | 101 | 0.9 | 3.5 | 0.00 | 0.08 | 0.00 | 74 | 1015.2 |
| 20260906123548 | 80 | 111 | 0.9 | 3.5 | 0.00 | 0.08 | 0.00 | 74 | 1015.1 |
| 20260906123512 | 80 | 111 | 0.0 | 3.5 | 0.00 | 0.08 | 0.00 | 74 | 1015.1 |
| 20260906123427 | 80 | 80 | 0.9 | 3.5 | 0.00 | 0.08 | 0.00 | 74 | 1015.1 |
| 20260906123310 | 80 | 80 | 1.7 | 3.5 | 0.00 | 0.08 | 0.00 | 74 | 1015.1 |
| 20260906123205 | 79 | 72 | 1.7 | 3.5 | 0.00 | 0.08 | 0.00 | 74 | 1015.1 |
| 20260906123129 | 79 | 91 | 1.7 | 3.5 | 0.00 | 0.08 | 0.00 | 74 | 1015.1 |
| 20260906123049 | 79 | 58 | 0.9 | 3.5 | 0.00 | 0.08 | 0.00 | 74 | 1015.1 |
| 20260906123029 | 79 | 105 | 1.7 | 3.5 | 0.00 | 0.08 | 0.00 | 74 | 1015.1 |
| 20260906122911 | 79 | 106 | 0.9 | 3.5 | 0.00 | 0.08 | 0.00 | 74 | 1015.1 |
| 20260906122806 | 79 | 113 | 0.9 | 3.5 | 0.00 | 0.08 | 0.00 | 75 | 1015.0 |
| 20260906122701 | 79 | 113 | 0.9 | 3.5 | 0.00 | 0.08 | 0.00 | 75 | 1015.1 |
| 20260906122605 | 79 | 102 | 0.9 | 3.5 | 0.00 | 0.08 | 0.00 | 75 | 1015.0 |
| 20260906122500 | 79 | 134 | 0.9 | 3.5 | 0.00 | 0.08 | 0.00 | 75 | 1015.0 |
| 20260906122356 | 79 | 114 | 0.9 | 3.5 | 0.00 | 0.08 | 0.00 | 75 | 1015.0 |
| 20260906122306 | 79 | 115 | 0.9 | 3.5 | 0.00 | 0.08 | 0.00 | 75 | 1015.0 |
| 20260906122159 | 79 | 118 | 1.7 | 3.5 | 0.00 | 0.08 | 0.00 | 75 | 1015.0 |
| 20260906122054 | 79 | 125 | 1.7 | 3.5 | 0.00 | 0.08 | 0.00 | 75 | 1015.0 |
| 20260906121949 | 79 | 91 | 1.7 | 3.5 | 0.00 | 0.08 | 0.00 | 75 | 1015.0 |
| 20260906121853 | 79 | 95 | 0.9 | 3.5 | 0.00 | 0.08 | 0.00 | 75 | 1015.0 |
| 20260906121748 | 79 | 107 | 0.9 | 3.5 | 0.00 | 0.08 | 0.00 | 75 | 1015.0 |
| 20260906121712 | 79 | 135 | 0.9 | 3.5 | 0.00 | 0.08 | 0.00 | 75 | 1015.0 |
| 20260906121639 | 78 | 110 | 0.0 | 3.5 | 0.00 | 0.08 | 0.00 | 75 | 1015.0 |
| 20260906121551 | 79 | 110 | 0.9 | 3.5 | 0.00 | 0.08 | 0.00 | 75 | 1015.0 |
| 20260906121516 | 79 | 94 | 0.9 | 3.5 | 0.00 | 0.08 | 0.00 | 75 | 1015.0 |
| 20260906121410 | 79 | 123 | 0.9 | 3.5 | 0.00 | 0.08 | 0.00 | 75 | 1015.0 |
| 20260906121335 | 79 | 125 | 0.9 | 3.5 | 0.00 | 0.08 | 0.00 | 75 | 1014.9 |
| 20260906121207 | 79 | 74 | 0.9 | 3.5 | 0.00 | 0.08 | 0.00 | 75 | 1014.9 |
| 20260906121102 | 79 | 110 | 1.7 | 3.5 | 0.00 | 0.08 | 0.00 | 75 | 1015.0 |
| 20260906120957 | 79 | 117 | 0.9 | 3.5 | 0.00 | 0.08 | 0.00 | 75 | 1015.0 |
| 20260906120905 | 79 | 93 | 1.7 | 3.5 | 0.00 | 0.08 | 0.00 | 75 | 1014.9 |
| 20260906120800 | 79 | 68 | 1.7 | 3.5 | 0.00 | 0.08 | 0.00 | 75 | 1014.9 |
| 20260906120655 | 79 | 86 | 1.7 | 3.5 | 0.00 | 0.08 | 0.00 | 75 | 1014.9 |
| 20260906120619 | 79 | 103 | 0.9 | 3.5 | 0.00 | 0.08 | 0.00 | 75 | 1014.9 |
| 20260906120453 | 79 | 122 | 0.9 | 3.5 | 0.00 | 0.08 | 0.00 | 75 | 1014.9 |
| 20260906120356 | 78 | 96 | 0.9 | 3.5 | 0.00 | 0.08 | 0.00 | 75 | 1014.8 |
| 20260906120251 | 78 | 102 | 0.9 | 2.6 | 0.00 | 0.08 | 0.00 | 75 | 1014.9 |
| 20260906120215 | 78 | 109 | 0.9 | 2.6 | 0.00 | 0.08 | 0.00 | 75 | 1014.9 |
| 20260906120113 | 78 | 119 | 0.9 | 2.6 | 0.00 | 0.08 | 0.00 | 75 | 1014.9 |
| 20260906120030 | 78 | 115 | 0.0 | 2.6 | 0.00 | 0.08 | 0.00 | 76 | 1014.9 |
| 20260906120012 | 78 | 115 | 0.9 | 2.6 | 0.00 | 0.08 | 0.00 | 76 | 1014.8 |
| 20260906115854 | 78 | 111 | 0.9 | 2.6 | 0.00 | 0.08 | 0.00 | 76 | 1014.8 |
| 20260906115749 | 78 | 60 | 0.9 | 2.6 | 0.00 | 0.08 | 0.00 | 76 | 1014.8 |
| 20260906115712 | 78 | 99 | 0.9 | 2.6 | 0.00 | 0.08 | 0.00 | 76 | 1014.8 |
| 20260906115606 | 78 | 76 | 0.9 | 2.6 | 0.00 | 0.08 | 0.00 | 76 | 1014.8 |
| 20260906115510 | 78 | 126 | 0.0 | 3.5 | 0.00 | 0.08 | 0.00 | 76 | 1014.8 |
| 20260906115404 | 78 | 101 | 0.0 | 3.5 | 0.00 | 0.08 | 0.00 | 76 | 1014.8 |
| 20260906115312 | 78 | 101 | 0.9 | 3.5 | 0.00 | 0.08 | 0.00 | 76 | 1014.8 |
| 20260906115207 | 78 | 101 | 0.9 | 3.5 | 0.00 | 0.08 | 0.00 | 76 | 1014.8 |
| 20260906115102 | 78 | 117 | 0.9 | 3.5 | 0.00 | 0.08 | 0.00 | 76 | 1014.9 |
| 20260906115006 | 78 | 154 | 0.9 | 4.3 | 0.00 | 0.08 | 0.00 | 76 | 1014.9 |
| 20260906114901 | 78 | 98 | 1.7 | 4.3 | 0.00 | 0.08 | 0.00 | 77 | 1014.8 |
| 20260906114756 | 78 | 81 | 1.7 | 4.3 | 0.00 | 0.08 | 0.00 | 77 | 1014.8 |
| 20260906114720 | 78 | 131 | 1.7 | 4.3 | 0.00 | 0.08 | 0.00 | 77 | 1014.8 |
| 20260906114623 | 78 | 96 | 1.7 | 4.3 | 0.00 | 0.08 | 0.00 | 77 | 1014.8 |
| 20260906114545 | 78 | 138 | 0.9 | 4.3 | 0.00 | 0.08 | 0.00 | 77 | 1014.8 |
| 20260906114521 | 78 | 134 | 1.7 | 4.3 | 0.00 | 0.08 | 0.00 | 77 | 1014.8 |
| 20260906114404 | 78 | 131 | 1.7 | 4.3 | 0.00 | 0.08 | 0.00 | 77 | 1014.8 |
| 20260906114259 | 78 | 115 | 1.7 | 4.3 | 0.00 | 0.08 | 0.00 | 77 | 1014.8 |
| 20260906114154 | 78 | 96 | 0.9 | 4.3 | 0.00 | 0.08 | 0.00 | 77 | 1014.8 |
| 20260906114058 | 78 | 113 | 0.9 | 3.5 | 0.00 | 0.08 | 0.00 | 77 | 1014.8 |
| 20260906113953 | 78 | 113 | 1.7 | 3.5 | 0.00 | 0.08 | 0.00 | 77 | 1014.8 |
| 20260906113848 | 78 | 131 | 0.9 | 3.5 | 0.00 | 0.08 | 0.00 | 77 | 1014.8 |
| 20260906113755 | 78 | 131 | 1.7 | 3.5 | 0.00 | 0.08 | 0.00 | 77 | 1014.9 |
| 20260906113651 | 78 | 111 | 1.7 | 3.5 | 0.00 | 0.08 | 0.00 | 77 | 1014.8 |
| 20260906113614 | 78 | 101 | 1.7 | 3.5 | 0.00 | 0.08 | 0.00 | 77 | 1014.8 |
| 20260906113510 | 78 | 136 | 1.7 | 3.5 | 0.00 | 0.08 | 0.00 | 77 | 1014.8 |
| 20260906113404 | 78 | 90 | 0.9 | 2.6 | 0.00 | 0.08 | 0.00 | 77 | 1014.8 |
| 20260906113329 | 78 | 125 | 0.0 | 2.6 | 0.00 | 0.08 | 0.00 | 77 | 1014.8 |
| 20260906113203 | 78 | 105 | 0.9 | 2.6 | 0.00 | 0.08 | 0.00 | 76 | 1014.8 |
| 20260906113110 | 78 | 112 | 0.9 | 2.6 | 0.00 | 0.08 | 0.00 | 76 | 1014.8 |
| 20260906113103 | 78 | 112 | 0.9 | 2.6 | 0.00 | 0.08 | 0.00 | 76 | 1014.8 |
| 20260906113007 | 78 | 83 | 0.9 | 2.6 | 0.00 | 0.08 | 0.00 | 76 | 1014.8 |
| 20260906112930 | 78 | 131 | 0.9 | 2.6 | 0.00 | 0.08 | 0.00 | 76 | 1014.8 |
| 20260906112804 | 78 | 113 | 0.9 | 2.6 | 0.00 | 0.08 | 0.00 | 76 | 1014.8 |
| 20260906112658 | 78 | 124 | 0.0 | 1.7 | 0.00 | 0.08 | 0.00 | 76 | 1014.8 |
| 20260906112604 | 78 | 124 | 0.0 | 1.7 | 0.00 | 0.08 | 0.00 | 76 | 1014.7 |
| 20260906112458 | 78 | 107 | 0.0 | 2.6 | 0.00 | 0.08 | 0.00 | 76 | 1014.8 |
| 20260906112412 | 79 | 117 | 0.9 | 2.6 | 0.00 | 0.08 | 0.00 | 76 | 1014.7 |
| 20260906112259 | 79 | 107 | 0.9 | 2.6 | 0.00 | 0.08 | 0.00 | 75 | 1014.7 |
| 20260906112155 | 79 | 110 | 0.9 | 2.6 | 0.00 | 0.08 | 0.00 | 76 | 1014.7 |
| 20260906112100 | 79 | 110 | 0.0 | 2.6 | 0.00 | 0.08 | 0.00 | 75 | 1014.7 |
| 20260906112013 | 79 | 89 | 0.0 | 2.6 | 0.00 | 0.08 | 0.00 | 75 | 1014.7 |
| 20260906111857 | 79 | 89 | 0.0 | 2.6 | 0.00 | 0.08 | 0.00 | 75 | 1014.7 |
| 20260906111812 | 79 | 108 | 0.9 | 2.6 | 0.00 | 0.08 | 0.00 | 75 | 1014.7 |
| 20260906111735 | 79 | 123 | 0.9 | 2.6 | 0.00 | 0.08 | 0.00 | 75 | 1014.7 |
| 20260906111552 | 79 | 97 | 0.9 | 2.6 | 0.00 | 0.08 | 0.00 | 75 | 1014.7 |
| 20260906111523 | 78 | 105 | 0.9 | 2.6 | 0.00 | 0.08 | 0.00 | 75 | 1014.7 |
| 20260906111448 | 79 | 105 | 0.9 | 2.6 | 0.00 | 0.08 | 0.00 | 75 | 1014.7 |
| 20260906111411 | 79 | 104 | 0.9 | 1.7 | 0.00 | 0.08 | 0.00 | 75 | 1014.7 |
| 20260906111306 | 79 | 117 | 0.9 | 1.7 | 0.00 | 0.08 | 0.00 | 75 | 1014.7 |
| 20260906111202 | 79 | 100 | 0.9 | 1.7 | 0.00 | 0.08 | 0.00 | 76 | 1014.7 |
| 20260906111106 | 79 | 122 | 0.9 | 1.7 | 0.00 | 0.08 | 0.00 | 75 | 1014.7 |
| 20260906111001 | 79 | 107 | 0.9 | 1.7 | 0.00 | 0.08 | 0.00 | 75 | 1014.7 |
| 20260906110859 | 79 | 101 | 0.0 | 0.9 | 0.00 | 0.08 | 0.00 | 75 | 1014.7 |
| 20260906110803 | 79 | 101 | 0.0 | 0.9 | 0.00 | 0.08 | 0.00 | 75 | 1014.7 |
| 20260906110658 | 79 | 105 | 0.0 | 0.9 | 0.00 | 0.08 | 0.00 | 75 | 1014.7 |
| 20260906110554 | 79 | 105 | 0.0 | 0.9 | 0.00 | 0.08 | 0.00 | 75 | 1014.7 |
| 20260906110457 | 79 | 115 | 0.0 | 0.9 | 0.00 | 0.08 | 0.00 | 75 | 1014.7 |
| 20260906110353 | 79 | 115 | 0.0 | 0.9 | 0.00 | 0.08 | 0.00 | 75 | 1014.7 |
| 20260906110247 | 79 | 100 | 0.0 | 0.9 | 0.00 | 0.08 | 0.00 | 75 | 1014.7 |
| 20260906110131 | 79 | 100 | 0.9 | 0.9 | 0.00 | 0.08 | 0.00 | 75 | 1014.7 |
| 20260906110051 | 78 | 100 | 0.0 | 0.9 | 0.00 | 0.08 | 0.00 | 75 | 1014.6 |
| 20260906105950 | 79 | 133 | 0.0 | 0.9 | 0.00 | 0.08 | 0.00 | 75 | 1014.7 |
| 20260906105903 | 79 | 107 | 0.0 | 0.9 | 0.00 | 0.08 | 0.00 | 75 | 1014.7 |
| 20260906105807 | 79 | 114 | 0.0 | 0.9 | 0.00 | 0.08 | 0.00 | 75 | 1014.6 |
| 20260906105702 | 79 | 114 | 0.0 | 0.9 | 0.00 | 0.08 | 0.00 | 75 | 1014.7 |
| 20260906105557 | 79 | 115 | 0.0 | 2.6 | 0.00 | 0.08 | 0.00 | 75 | 1014.7 |
| 20260906105505 | 79 | 117 | 0.0 | 2.6 | 0.00 | 0.08 | 0.00 | 75 | 1014.7 |
| 20260906105400 | 79 | 89 | 0.0 | 2.6 | 0.00 | 0.08 | 0.00 | 75 | 1014.7 |
| 20260906105255 | 79 | 103 | 0.0 | 2.6 | 0.00 | 0.08 | 0.00 | 75 | 1014.7 |
| 20260906105201 | 79 | 103 | 0.0 | 2.6 | 0.00 | 0.08 | 0.00 | 75 | 1014.7 |
| 20260906105114 | 79 | 103 | 0.0 | 2.6 | 0.00 | 0.08 | 0.00 | 75 | 1014.7 |
| 20260906104948 | 79 | 103 | 0.9 | 2.6 | 0.00 | 0.08 | 0.00 | 75 | 1014.7 |
| 20260906104852 | 79 | 103 | 0.9 | 2.6 | 0.00 | 0.08 | 0.00 | 75 | 1014.7 |
| 20260906104820 | 79 | 105 | 0.9 | 2.6 | 0.00 | 0.08 | 0.00 | 75 | 1014.7 |
| 20260906104654 | 79 | 68 | 0.0 | 2.6 | 0.00 | 0.08 | 0.00 | 76 | 1014.7 |
| 20260906104617 | 78 | 103 | 0.0 | 1.7 | 0.00 | 0.08 | 0.00 | 76 | 1014.8 |
| 20260906104550 | 78 | 103 | 0.0 | 1.7 | 0.00 | 0.08 | 0.00 | 76 | 1014.8 |
| 20260906104454 | 78 | 103 | 0.0 | 1.7 | 0.00 | 0.08 | 0.00 | 76 | 1014.8 |
| 20260906104348 | 78 | 103 | 0.0 | 1.7 | 0.00 | 0.08 | 0.00 | 76 | 1014.8 |
| 20260906104303 | 78 | 118 | 0.9 | 1.7 | 0.00 | 0.08 | 0.00 | 76 | 1014.8 |
| 20260906104208 | 78 | 96 | 0.9 | 1.7 | 0.00 | 0.08 | 0.00 | 76 | 1014.8 |
| 20260906104106 | 78 | 63 | 0.0 | 1.7 | 0.00 | 0.08 | 0.00 | 76 | 1014.8 |
| 20260906104001 | 78 | 65 | 0.0 | 1.7 | 0.00 | 0.08 | 0.00 | 77 | 1014.8 |
| 20260906103905 | 78 | 65 | 0.0 | 1.7 | 0.00 | 0.08 | 0.00 | 77 | 1014.8 |
| 20260906103820 | 78 | 65 | 0.0 | 1.7 | 0.00 | 0.08 | 0.00 | 77 | 1014.8 |
| 20260906103703 | 78 | 129 | 0.0 | 0.0 | 0.00 | 0.08 | 0.00 | 77 | 1014.7 |
| 20260906103558 | 78 | 129 | 0.0 | 0.0 | 0.00 | 0.08 | 0.00 | 77 | 1014.8 |
| 20260906103453 | 78 | 129 | 0.0 | 0.0 | 0.00 | 0.08 | 0.00 | 77 | 1014.7 |
| 20260906103401 | 78 | 129 | 0.0 | 0.0 | 0.00 | 0.08 | 0.00 | 77 | 1014.7 |
| 20260906103256 | 78 | 129 | 0.0 | 0.9 | 0.00 | 0.08 | 0.00 | 77 | 1014.7 |
| 20260906103220 | 78 | 129 | 0.0 | 0.9 | 0.00 | 0.08 | 0.00 | 77 | 1014.7 |
| 20260906103128 | 78 | 129 | 0.0 | 0.9 | 0.00 | 0.08 | 0.00 | 77 | 1014.7 |
| 20260906103054 | 78 | 129 | 0.0 | 0.9 | 0.00 | 0.08 | 0.00 | 77 | 1014.7 |
| 20260906103020 | 78 | 129 | 0.0 | 0.9 | 0.00 | 0.08 | 0.00 | 77 | 1014.7 |
| 20260906102852 | 78 | 129 | 0.0 | 0.9 | 0.00 | 0.08 | 0.00 | 76 | 1014.7 |
| 20260906102747 | 78 | 129 | 0.0 | 0.9 | 0.00 | 0.08 | 0.00 | 76 | 1014.7 |
| 20260906102651 | 79 | 129 | 0.0 | 0.9 | 0.00 | 0.08 | 0.00 | 76 | 1014.7 |
| 20260906102550 | 79 | 129 | 0.0 | 0.9 | 0.00 | 0.08 | 0.00 | 77 | 1014.6 |
| 20260906102514 | 79 | 129 | 0.0 | 0.9 | 0.00 | 0.08 | 0.00 | 77 | 1014.6 |
| 20260906102349 | 79 | 129 | 0.0 | 0.0 | 0.00 | 0.08 | 0.00 | 76 | 1014.7 |
| 20260906102306 | 79 | 129 | 0.0 | 0.0 | 0.00 | 0.08 | 0.00 | 76 | 1014.6 |
| 20260906102208 | 79 | 129 | 0.0 | 0.0 | 0.00 | 0.08 | 0.00 | 76 | 1014.6 |
| 20260906102123 | 79 | 129 | 0.0 | 0.0 | 0.00 | 0.08 | 0.00 | 76 | 1014.5 |
| 20260906102006 | 79 | 129 | 0.0 | 0.0 | 0.00 | 0.08 | 0.00 | 76 | 1014.5 |
| 20260906101905 | 79 | 129 | 0.0 | 0.0 | 0.00 | 0.08 | 0.00 | 76 | 1014.5 |
| 20260906101800 | 79 | 129 | 0.0 | 0.0 | 0.00 | 0.08 | 0.00 | 76 | 1014.5 |
| 20260906101704 | 79 | 129 | 0.0 | 0.0 | 0.00 | 0.08 | 0.00 | 75 | 1014.5 |
| 20260906101639 | 79 | 129 | 0.0 | 0.0 | 0.00 | 0.08 | 0.00 | 75 | 1014.5 |
| 20260906101619 | 79 | 129 | 0.0 | 0.0 | 0.00 | 0.08 | 0.00 | 75 | 1014.5 |
| 20260906101502 | 79 | 129 | 0.0 | 0.0 | 0.00 | 0.08 | 0.00 | 75 | 1014.5 |
| 20260906101357 | 79 | 129 | 0.0 | 0.0 | 0.00 | 0.08 | 0.00 | 75 | 1014.5 |
| 20260906101252 | 79 | 129 | 0.0 | 0.0 | 0.00 | 0.08 | 0.00 | 74 | 1014.5 |
| 20260906101216 | 79 | 129 | 0.0 | 0.0 | 0.00 | 0.08 | 0.00 | 74 | 1014.5 |
| 20260906101123 | 80 | 129 | 0.0 | 0.0 | 0.00 | 0.08 | 0.00 | 74 | 1014.5 |
| 20260906100957 | 80 | 129 | 0.0 | 0.0 | 0.00 | 0.08 | 0.00 | 74 | 1014.5 |
| 20260906100852 | 80 | 129 | 0.0 | 0.0 | 0.00 | 0.08 | 0.00 | 73 | 1014.4 |
| 20260906100756 | 80 | 129 | 0.0 | 0.9 | 0.00 | 0.08 | 0.00 | 73 | 1014.5 |
| 20260906100651 | 80 | 129 | 0.0 | 0.9 | 0.00 | 0.08 | 0.00 | 72 | 1014.5 |
| 20260906100615 | 80 | 129 | 0.0 | 0.9 | 0.00 | 0.08 | 0.00 | 72 | 1014.4 |
| 20260906100509 | 80 | 129 | 0.0 | 0.9 | 0.00 | 0.08 | 0.00 | 72 | 1014.4 |
| 20260906100352 | 80 | 129 | 0.0 | 0.9 | 0.00 | 0.08 | 0.00 | 71 | 1014.4 |
| 20260906100251 | 80 | 129 | 0.0 | 0.9 | 0.00 | 0.08 | 0.00 | 71 | 1014.4 |
| 20260906100215 | 80 | 129 | 0.0 | 0.9 | 0.00 | 0.08 | 0.00 | 71 | 1014.4 |
| 20260906100150 | 80 | 129 | 0.0 | 0.9 | 0.00 | 0.08 | 0.00 | 71 | 1014.4 |
| 20260906100120 | 80 | 129 | 0.0 | 0.9 | 0.00 | 0.08 | 0.00 | 71 | 1014.4 |
| 20260906100010 | 80 | 129 | 0.0 | 0.9 | 0.00 | 0.08 | 0.00 | 71 | 1014.4 |
| 20260906095903 | 80 | 129 | 0.0 | 0.9 | 0.00 | 0.08 | 0.00 | 71 | 1014.4 |
| 20260906095758 | 80 | 129 | 0.0 | 0.9 | 0.00 | 0.08 | 0.00 | 71 | 1014.4 |
| 20260906095653 | 80 | 129 | 0.0 | 0.9 | 0.00 | 0.08 | 0.00 | 71 | 1014.3 |
| 20260906095621 | 80 | 129 | 0.0 | 0.9 | 0.00 | 0.08 | 0.00 | 71 | 1014.3 |
| 20260906095524 | 80 | 129 | 0.0 | 0.9 | 0.00 | 0.08 | 0.00 | 71 | 1014.3 |
| 20260906095358 | 80 | 129 | 0.0 | 0.9 | 0.00 | 0.08 | 0.00 | 71 | 1014.3 |
| 20260906095253 | 80 | 129 | 0.0 | 0.9 | 0.00 | 0.08 | 0.00 | 71 | 1014.3 |
| 20260906095157 | 80 | 129 | 0.0 | 0.9 | 0.00 | 0.08 | 0.00 | 71 | 1014.4 |
| 20260906095051 | 80 | 129 | 0.0 | 0.9 | 0.00 | 0.08 | 0.00 | 71 | 1014.4 |
| 20260906095015 | 80 | 129 | 0.0 | 0.9 | 0.00 | 0.08 | 0.00 | 71 | 1014.4 |
| 20260906094854 | 80 | 129 | 0.0 | 0.9 | 0.00 | 0.08 | 0.00 | 71 | 1014.4 |
| 20260906094809 | 80 | 129 | 0.0 | 0.9 | 0.00 | 0.08 | 0.00 | 71 | 1014.3 |
| 20260906094652 | 80 | 129 | 0.0 | 0.9 | 0.00 | 0.08 | 0.00 | 71 | 1014.4 |
| 20260906094620 | 80 | 129 | 0.0 | 0.9 | 0.00 | 0.08 | 0.00 | 71 | 1014.4 |
| 20260906094547 | 80 | 129 | 0.0 | 0.9 | 0.00 | 0.08 | 0.00 | 71 | 1014.4 |
| 20260906094511 | 80 | 129 | 0.0 | 0.9 | 0.00 | 0.08 | 0.00 | 71 | 1014.4 |
| 20260906094406 | 80 | 133 | 0.0 | 0.0 | 0.00 | 0.08 | 0.00 | 71 | 1014.4 |
| 20260906094301 | 80 | 133 | 0.0 | 0.0 | 0.00 | 0.08 | 0.00 | 71 | 1014.4 |
| 20260906094205 | 80 | 133 | 0.0 | 0.0 | 0.00 | 0.08 | 0.00 | 71 | 1014.3 |
| 20260906094104 | 80 | 133 | 0.0 | 0.9 | 0.00 | 0.08 | 0.00 | 70 | 1014.4 |
| 20260906093959 | 80 | 133 | 0.0 | 1.7 | 0.00 | 0.08 | 0.00 | 71 | 1014.3 |
| 20260906093923 | 80 | 133 | 0.0 | 1.7 | 0.00 | 0.08 | 0.00 | 71 | 1014.3 |
| 20260906093757 | 80 | 133 | 0.0 | 1.7 | 0.00 | 0.08 | 0.00 | 71 | 1014.3 |
| 20260906093701 | 80 | 133 | 0.0 | 1.7 | 0.00 | 0.08 | 0.00 | 70 | 1014.3 |
| 20260906093556 | 80 | 133 | 0.0 | 1.7 | 0.00 | 0.08 | 0.00 | 70 | 1014.3 |
| 20260906093451 | 80 | 133 | 0.0 | 1.7 | 0.00 | 0.08 | 0.00 | 70 | 1014.3 |
| 20260906093359 | 80 | 133 | 0.0 | 1.7 | 0.00 | 0.08 | 0.00 | 71 | 1014.3 |
| 20260906093254 | 80 | 83 | 0.0 | 1.7 | 0.00 | 0.08 | 0.00 | 71 | 1014.3 |
| 20260906093157 | 80 | 92 | 0.0 | 1.7 | 0.00 | 0.08 | 0.00 | 71 | 1014.3 |
| 20260906093052 | 80 | 98 | 0.0 | 0.9 | 0.00 | 0.08 | 0.00 | 71 | 1014.3 |
| 20260906093011 | 80 | 115 | 0.0 | 0.9 | 0.00 | 0.08 | 0.00 | 71 | 1014.3 |
| 20260906092948 | 80 | 115 | 0.0 | 1.7 | 0.00 | 0.08 | 0.00 | 71 | 1014.3 |
| 20260906092851 | 80 | 97 | 0.0 | 1.7 | 0.00 | 0.08 | 0.00 | 71 | 1014.3 |
| 20260906092806 | 80 | 96 | 0.0 | 1.7 | 0.00 | 0.08 | 0.00 | 71 | 1014.3 |
| 20260906092714 | 80 | 96 | 0.0 | 1.7 | 0.00 | 0.08 | 0.00 | 72 | 1014.3 |
| 20260906092549 | 80 | 96 | 0.0 | 1.7 | 0.00 | 0.08 | 0.00 | 72 | 1014.3 |
| 20260906092504 | 80 | 96 | 0.0 | 1.7 | 0.00 | 0.08 | 0.00 | 72 | 1014.2 |
| 20260906092408 | 80 | 96 | 0.0 | 1.7 | 0.00 | 0.08 | 0.00 | 72 | 1014.2 |
| 20260906092300 | 80 | 96 | 0.0 | 1.7 | 0.00 | 0.08 | 0.00 | 72 | 1014.2 |
| 20260906092155 | 80 | 105 | 0.0 | 1.7 | 0.00 | 0.08 | 0.00 | 72 | 1014.2 |
| 20260906092119 | 80 | 105 | 0.0 | 1.7 | 0.00 | 0.08 | 0.00 | 72 | 1014.3 |
| 20260906091957 | 80 | 105 | 0.0 | 1.7 | 0.00 | 0.08 | 0.00 | 72 | 1014.3 |
| 20260906091901 | 80 | 105 | 0.0 | 1.7 | 0.00 | 0.08 | 0.00 | 72 | 1014.2 |
| 20260906091756 | 80 | 105 | 0.0 | 1.7 | 0.00 | 0.08 | 0.00 | 72 | 1014.2 |
| 20260906091651 | 80 | 105 | 0.0 | 1.7 | 0.00 | 0.08 | 0.00 | 72 | 1014.3 |
| 20260906091615 | 80 | 117 | 0.0 | 1.7 | 0.00 | 0.08 | 0.00 | 72 | 1014.2 |
| 20260906091543 | 79 | 117 | 0.0 | 1.7 | 0.00 | 0.08 | 0.00 | 72 | 1014.2 |
| 20260906091510 | 80 | 117 | 0.0 | 1.7 | 0.00 | 0.08 | 0.00 | 72 | 1014.3 |
| 20260906091413 | 80 | 118 | 0.0 | 1.7 | 0.00 | 0.08 | 0.00 | 72 | 1014.2 |
| 20260906091252 | 80 | 118 | 0.0 | 1.7 | 0.00 | 0.08 | 0.00 | 72 | 1014.3 |
| 20260906091216 | 80 | 118 | 0.0 | 1.7 | 0.00 | 0.08 | 0.00 | 72 | 1014.2 |
| 20260906091052 | 80 | 118 | 0.0 | 1.7 | 0.00 | 0.08 | 0.00 | 72 | 1014.2 |
| 20260906091006 | 80 | 118 | 0.0 | 1.7 | 0.00 | 0.08 | 0.00 | 72 | 1014.2 |
| 20260906090911 | 80 | 118 | 0.0 | 0.9 | 0.00 | 0.08 | 0.00 | 72 | 1014.1 |
| 20260906090803 | 80 | 153 | 0.0 | 0.9 | 0.00 | 0.08 | 0.00 | 72 | 1014.1 |
| 20260906090709 | 80 | 157 | 0.0 | 0.9 | 0.00 | 0.08 | 0.00 | 72 | 1014.1 |
| 20260906090623 | 80 | 157 | 0.0 | 0.9 | 0.00 | 0.08 | 0.00 | 72 | 1014.1 |
| 20260906090510 | 80 | 103 | 0.0 | 0.9 | 0.00 | 0.08 | 0.00 | 72 | 1014.1 |
| 20260906090404 | 80 | 134 | 0.0 | 0.9 | 0.00 | 0.08 | 0.00 | 72 | 1014.1 |
| 20260906090300 | 80 | 134 | 0.0 | 0.9 | 0.00 | 0.08 | 0.00 | 72 | 1014.1 |
| 20260906090151 | 80 | 134 | 0.0 | 0.9 | 0.00 | 0.08 | 0.00 | 72 | 1014.1 |
| 20260906090105 | 80 | 94 | 0.0 | 0.9 | 0.00 | 0.08 | 0.00 | 72 | 1014.0 |
| 20260906090014 | 80 | 94 | 0.0 | 0.9 | 0.00 | 0.08 | 0.00 | 73 | 1014.1 |
| 20260906085847 | 80 | 94 | 0.0 | 0.9 | 0.00 | 0.08 | 0.00 | 72 | 1014.1 |
| 20260906085806 | 80 | 94 | 0.0 | 1.7 | 0.00 | 0.08 | 0.00 | 73 | 1014.1 |
| 20260906085711 | 80 | 128 | 0.0 | 1.7 | 0.00 | 0.08 | 0.00 | 72 | 1014.1 |
| 20260906085605 | 80 | 129 | 0.0 | 1.7 | 0.00 | 0.08 | 0.00 | 73 | 1014.1 |
| 20260906085501 | 80 | 131 | 0.0 | 1.7 | 0.00 | 0.08 | 0.00 | 73 | 1014.1 |
| 20260906085404 | 80 | 66 | 0.0 | 1.7 | 0.00 | 0.08 | 0.00 | 73 | 1014.1 |
| 20260906085300 | 80 | 63 | 0.0 | 1.7 | 0.00 | 0.08 | 0.00 | 73 | 1014.1 |
| 20260906085155 | 80 | 63 | 0.0 | 1.7 | 0.00 | 0.08 | 0.00 | 73 | 1014.0 |
| 20260906085102 | 79 | 63 | 0.9 | 1.7 | 0.00 | 0.08 | 0.00 | 73 | 1014.0 |
| 20260906084957 | 79 | 63 | 0.9 | 1.7 | 0.00 | 0.08 | 0.00 | 73 | 1014.0 |
| 20260906084852 | 79 | 94 | 0.0 | 0.9 | 0.00 | 0.08 | 0.00 | 73 | 1014.0 |
| 20260906084756 | 80 | 86 | 0.0 | 0.9 | 0.00 | 0.08 | 0.00 | 73 | 1014.0 |
| 20260906084652 | 80 | 86 | 0.0 | 0.9 | 0.00 | 0.08 | 0.00 | 73 | 1014.0 |
| 20260906084616 | 80 | 86 | 0.0 | 0.9 | 0.00 | 0.08 | 0.00 | 73 | 1014.0 |
| 20260906084556 | 79 | 86 | 0.0 | 0.9 | 0.00 | 0.08 | 0.00 | 73 | 1014.0 |
| 20260906084455 | 80 | 86 | 0.0 | 0.9 | 0.00 | 0.08 | 0.00 | 73 | 1014.0 |
| 20260906084349 | 80 | 86 | 0.0 | 0.9 | 0.00 | 0.08 | 0.00 | 73 | 1014.0 |
| 20260906084314 | 80 | 86 | 0.0 | 0.9 | 0.00 | 0.08 | 0.00 | 72 | 1014.0 |
| 20260906084147 | 80 | 84 | 0.0 | 0.9 | 0.00 | 0.08 | 0.00 | 72 | 1014.0 |
| 20260906084112 | 80 | 84 | 0.0 | 0.9 | 0.00 | 0.08 | 0.00 | 72 | 1014.0 |
| 20260906084007 | 80 | 84 | 0.0 | 0.9 | 0.00 | 0.08 | 0.00 | 72 | 1014.0 |
| 20260906083901 | 80 | 84 | 0.0 | 1.7 | 0.00 | 0.08 | 0.00 | 72 | 1013.9 |
| 20260906083756 | 80 | 84 | 0.0 | 1.7 | 0.00 | 0.08 | 0.00 | 72 | 1014.0 |
| 20260906083704 | 80 | 84 | 0.0 | 1.7 | 0.00 | 0.08 | 0.00 | 72 | 1014.0 |
| 20260906083559 | 80 | 84 | 0.0 | 1.7 | 0.00 | 0.08 | 0.00 | 72 | 1014.0 |
| 20260906083454 | 80 | 84 | 0.0 | 1.7 | 0.00 | 0.08 | 0.00 | 72 | 1014.0 |
| 20260906083359 | 80 | 84 | 0.0 | 1.7 | 0.00 | 0.08 | 0.00 | 72 | 1014.0 |
| 20260906083253 | 80 | 84 | 0.0 | 1.7 | 0.00 | 0.08 | 0.00 | 72 | 1014.0 |
| 20260906083148 | 80 | 84 | 0.9 | 1.7 | 0.00 | 0.08 | 0.00 | 72 | 1014.1 |
| 20260906083056 | 80 | 84 | 0.0 | 1.7 | 0.00 | 0.08 | 0.00 | 72 | 1014.0 |
| 20260906083025 | 79 | 84 | 0.0 | 1.7 | 0.00 | 0.08 | 0.00 | 72 | 1014.0 |
| 20260906082953 | 80 | 51 | 0.0 | 0.9 | 0.00 | 0.08 | 0.00 | 72 | 1014.0 |
| 20260906082916 | 80 | 51 | 0.0 | 0.9 | 0.00 | 0.08 | 0.00 | 72 | 1014.0 |
| 20260906082810 | 80 | 51 | 0.0 | 0.9 | 0.00 | 0.08 | 0.00 | 72 | 1014.0 |
| 20260906082714 | 80 | 51 | 0.0 | 0.9 | 0.00 | 0.08 | 0.00 | 72 | 1014.1 |
| 20260906082548 | 80 | 51 | 0.0 | 0.9 | 0.00 | 0.08 | 0.00 | 72 | 1014.0 |
| 20260906082503 | 80 | 51 | 0.0 | 0.9 | 0.00 | 0.08 | 0.00 | 72 | 1014.0 |
| 20260906082408 | 80 | 50 | 0.0 | 1.7 | 0.00 | 0.08 | 0.00 | 72 | 1014.1 |
| 20260906082306 | 80 | 50 | 0.0 | 1.7 | 0.00 | 0.08 | 0.00 | 72 | 1014.0 |
| 20260906082201 | 80 | 49 | 0.0 | 1.7 | 0.00 | 0.08 | 0.00 | 72 | 1014.0 |
| 20260906082105 | 80 | 50 | 0.0 | 1.7 | 0.00 | 0.08 | 0.00 | 72 | 1014.0 |
| 20260906081959 | 80 | 66 | 0.0 | 1.7 | 0.00 | 0.08 | 0.00 | 72 | 1014.0 |
| 20260906081923 | 80 | 66 | 0.0 | 1.7 | 0.00 | 0.08 | 0.00 | 72 | 1014.0 |
| 20260906081757 | 80 | 66 | 0.9 | 1.7 | 0.00 | 0.08 | 0.00 | 72 | 1014.0 |
| 20260906081701 | 80 | 66 | 0.9 | 1.7 | 0.00 | 0.08 | 0.00 | 72 | 1014.1 |
| 20260906081600 | 80 | 66 | 0.9 | 1.7 | 0.00 | 0.08 | 0.00 | 72 | 1014.1 |
| 20260906081510 | 80 | 66 | 0.0 | 1.7 | 0.00 | 0.08 | 0.00 | 72 | 1014.0 |
| 20260906081455 | 80 | 66 | 0.0 | 1.7 | 0.00 | 0.08 | 0.00 | 72 | 1014.0 |
| 20260906081359 | 80 | 88 | 0.0 | 0.9 | 0.00 | 0.08 | 0.00 | 72 | 1014.0 |
| 20260906081254 | 80 | 88 | 0.0 | 0.9 | 0.00 | 0.08 | 0.00 | 71 | 1014.0 |
| 20260906081149 | 80 | 88 | 0.0 | 0.9 | 0.00 | 0.08 | 0.00 | 71 | 1014.0 |
| 20260906081112 | 80 | 88 | 0.0 | 0.9 | 0.00 | 0.08 | 0.00 | 71 | 1014.0 |
| 20260906081015 | 80 | 88 | 0.0 | 0.9 | 0.00 | 0.08 | 0.00 | 71 | 1014.0 |
| 20260906080849 | 80 | 88 | 0.0 | 0.9 | 0.00 | 0.08 | 0.00 | 71 | 1014.0 |
| 20260906080817 | 80 | 88 | 0.0 | 0.9 | 0.00 | 0.08 | 0.00 | 71 | 1014.0 |
| 20260906080651 | 81 | 88 | 0.0 | 0.9 | 0.00 | 0.08 | 0.00 | 71 | 1014.0 |
| 20260906080616 | 81 | 88 | 0.0 | 0.9 | 0.00 | 0.08 | 0.00 | 71 | 1014.0 |
| 20260906080450 | 81 | 88 | 0.0 | 0.9 | 0.00 | 0.08 | 0.00 | 71 | 1013.9 |
| 20260906080249 | 81 | 88 | 0.0 | 0.9 | 0.00 | 0.08 | 0.00 | 70 | 1013.9 |
| 20260906080153 | 81 | 88 | 0.0 | 0.9 | 0.00 | 0.08 | 0.00 | 70 | 1013.9 |
| 20260906080132 | 81 | 88 | 0.0 | 0.9 | 0.00 | 0.08 | 0.00 | 70 | 1013.9 |
| 20260906080036 | 80 | 88 | 0.0 | 0.9 | 0.00 | 0.08 | 0.00 | 70 | 1013.9 |
| 20260906075951 | 81 | 88 | 0.0 | 0.9 | 0.00 | 0.08 | 0.00 | 70 | 1014.0 |
| 20260906075913 | 81 | 88 | 0.0 | 0.9 | 0.00 | 0.08 | 0.00 | 70 | 1013.9 |
| 20260906075749 | 81 | 88 | 0.0 | 0.9 | 0.00 | 0.08 | 0.00 | 70 | 1013.9 |
| 20260906075703 | 81 | 88 | 0.0 | 0.9 | 0.00 | 0.08 | 0.00 | 70 | 1013.9 |
| 20260906075558 | 81 | 96 | 0.0 | 0.9 | 0.00 | 0.08 | 0.00 | 70 | 1013.9 |
| 20260906075502 | 81 | 96 | 0.0 | 0.9 | 0.00 | 0.08 | 0.00 | 70 | 1014.0 |
| 20260906075401 | 81 | 100 | 0.0 | 0.9 | 0.00 | 0.08 | 0.00 | 70 | 1013.9 |
| 20260906075256 | 81 | 75 | 0.0 | 0.9 | 0.00 | 0.08 | 0.00 | 70 | 1013.9 |
| 20260906075200 | 81 | 75 | 0.0 | 0.9 | 0.00 | 0.08 | 0.00 | 70 | 1013.9 |
| 20260906075055 | 81 | 75 | 0.0 | 0.9 | 0.00 | 0.08 | 0.00 | 70 | 1013.9 |
| 20260906074950 | 81 | 75 | 0.0 | 0.9 | 0.00 | 0.08 | 0.00 | 70 | 1013.9 |
| 20260906074914 | 81 | 75 | 0.0 | 0.9 | 0.00 | 0.08 | 0.00 | 70 | 1013.9 |
| 20260906074748 | 81 | 75 | 0.0 | 0.9 | 0.00 | 0.08 | 0.00 | 70 | 1013.9 |
| 20260906074656 | 81 | 75 | 0.0 | 0.9 | 0.00 | 0.08 | 0.00 | 70 | 1013.9 |
| 20260906074624 | 80 | 75 | 0.0 | 0.9 | 0.00 | 0.08 | 0.00 | 70 | 1013.9 |
| 20260906074551 | 81 | 83 | 0.0 | 0.9 | 0.00 | 0.08 | 0.00 | 70 | 1013.9 |
| 20260906074455 | 81 | 84 | 0.0 | 0.9 | 0.00 | 0.08 | 0.00 | 71 | 1013.9 |
| 20260906074359 | 81 | 84 | 0.0 | 0.9 | 0.00 | 0.08 | 0.00 | 70 | 1013.9 |
| 20260906074314 | 81 | 84 | 0.0 | 0.9 | 0.00 | 0.08 | 0.00 | 70 | 1013.9 |
| 20260906074157 | 81 | 84 | 0.0 | 0.9 | 0.00 | 0.08 | 0.00 | 70 | 1013.9 |
| 20260906074052 | 81 | 72 | 0.0 | 0.9 | 0.00 | 0.08 | 0.00 | 70 | 1013.9 |
| 20260906073951 | 81 | 72 | 0.0 | 0.9 | 0.00 | 0.08 | 0.00 | 70 | 1013.9 |
| 20260906073855 | 81 | 72 | 0.0 | 0.9 | 0.00 | 0.08 | 0.00 | 70 | 1014.0 |
| 20260906073750 | 81 | 72 | 0.0 | 0.9 | 0.00 | 0.08 | 0.00 | 70 | 1014.0 |
| 20260906073714 | 81 | 72 | 0.0 | 0.9 | 0.00 | 0.08 | 0.00 | 70 | 1014.0 |
| 20260906073549 | 81 | 72 | 0.0 | 0.9 | 0.00 | 0.08 | 0.00 | 70 | 1014.0 |
| 20260906073504 | 81 | 72 | 0.0 | 0.9 | 0.00 | 0.08 | 0.00 | 70 | 1014.0 |
| 20260906073407 | 81 | 72 | 0.0 | 0.9 | 0.00 | 0.08 | 0.00 | 70 | 1014.0 |
| 20260906073306 | 81 | 72 | 0.0 | 0.9 | 0.00 | 0.08 | 0.00 | 70 | 1014.0 |
| 20260906073201 | 81 | 72 | 0.0 | 0.9 | 0.00 | 0.08 | 0.00 | 70 | 1014.0 |
| 20260906073105 | 81 | 72 | 0.0 | 0.9 | 0.00 | 0.08 | 0.00 | 70 | 1014.0 |
| 20260906073045 | 80 | 72 | 0.0 | 0.9 | 0.00 | 0.08 | 0.00 | 70 | 1014.0 |
| 20260906073001 | 81 | 72 | 0.0 | 0.0 | 0.00 | 0.08 | 0.00 | 70 | 1014.0 |
| 20260906072855 | 81 | 110 | 0.0 | 0.0 | 0.00 | 0.08 | 0.00 | 70 | 1013.9 |
| 20260906072759 | 81 | 110 | 0.0 | 0.0 | 0.00 | 0.08 | 0.00 | 70 | 1014.0 |
| 20260906072654 | 81 | 110 | 0.0 | 0.0 | 0.00 | 0.08 | 0.00 | 70 | 1013.9 |
| 20260906072553 | 81 | 110 | 0.0 | 0.0 | 0.00 | 0.08 | 0.00 | 70 | 1013.9 |
| 20260906072457 | 81 | 110 | 0.0 | 0.0 | 0.00 | 0.08 | 0.00 | 70 | 1013.9 |
| 20260906072352 | 81 | 110 | 0.0 | 0.0 | 0.00 | 0.08 | 0.00 | 70 | 1013.9 |
| 20260906072247 | 81 | 110 | 0.0 | 0.0 | 0.00 | 0.08 | 0.00 | 69 | 1013.9 |
| 20260906072151 | 81 | 110 | 0.0 | 0.0 | 0.00 | 0.08 | 0.00 | 69 | 1013.9 |
| 20260906072105 | 81 | 110 | 0.0 | 0.0 | 0.00 | 0.08 | 0.00 | 69 | 1013.9 |
| 20260906072009 | 81 | 110 | 0.0 | 0.0 | 0.00 | 0.08 | 0.00 | 69 | 1013.9 |
| 20260906071927 | 81 | 110 | 0.0 | 0.0 | 0.00 | 0.08 | 0.00 | 69 | 1013.9 |
| 20260906071810 | 81 | 110 | 0.0 | 0.0 | 0.00 | 0.08 | 0.00 | 69 | 1013.9 |
| 20260906071705 | 82 | 110 | 0.0 | 0.0 | 0.00 | 0.08 | 0.00 | 69 | 1013.9 |
| 20260906071600 | 82 | 111 | 0.0 | 0.0 | 0.00 | 0.08 | 0.00 | 68 | 1013.9 |
| 20260906071505 | 81 | 110 | 0.0 | 0.0 | 0.00 | 0.08 | 0.00 | 68 | 1013.9 |
| 20260906071454 | 82 | 110 | 0.0 | 0.0 | 0.00 | 0.08 | 0.00 | 68 | 1013.9 |
| 20260906071358 | 82 | 110 | 0.0 | 0.0 | 0.00 | 0.08 | 0.00 | 68 | 1013.9 |
| 20260906071253 | 82 | 110 | 0.0 | 0.0 | 0.00 | 0.08 | 0.00 | 68 | 1013.8 |
| 20260906071152 | 82 | 110 | 0.0 | 0.0 | 0.00 | 0.08 | 0.00 | 68 | 1013.9 |
| 20260906071056 | 82 | 111 | 0.0 | 0.0 | 0.00 | 0.08 | 0.00 | 68 | 1013.9 |
| 20260906070951 | 82 | 110 | 0.0 | 0.0 | 0.00 | 0.08 | 0.00 | 68 | 1013.8 |
| 20260906070915 | 82 | 110 | 0.0 | 0.0 | 0.00 | 0.08 | 0.00 | 68 | 1013.9 |
| 20260906070750 | 82 | 110 | 0.0 | 0.0 | 0.00 | 0.08 | 0.00 | 68 | 1013.9 |
| 20260906070705 | 82 | 110 | 0.0 | 0.0 | 0.00 | 0.08 | 0.00 | 68 | 1013.9 |
| 20260906070609 | 82 | 111 | 0.0 | 0.0 | 0.00 | 0.08 | 0.00 | 67 | 1013.9 |
| 20260906070447 | 82 | 110 | 0.0 | 0.0 | 0.00 | 0.08 | 0.00 | 67 | 1013.9 |
| 20260906070411 | 82 | 110 | 0.0 | 0.0 | 0.00 | 0.08 | 0.00 | 67 | 1013.9 |
| 20260906070306 | 82 | 111 | 0.0 | 0.0 | 0.00 | 0.08 | 0.00 | 67 | 1014.0 |
| 20260906070230 | 82 | 111 | 0.0 | 0.0 | 0.00 | 0.08 | 0.00 | 67 | 1013.9 |
| 20260906070139 | 82 | 111 | 0.0 | 0.9 | 0.00 | 0.08 | 0.00 | 67 | 1013.9 |
| 20260906070115 | 82 | 111 | 0.0 | 0.9 | 0.00 | 0.08 | 0.00 | 68 | 1014.0 |
| 20260906070023 | 82 | 110 | 0.0 | 0.9 | 0.00 | 0.08 | 0.00 | 68 | 1014.0 |
| 20260906065925 | 82 | 110 | 0.0 | 0.9 | 0.00 | 0.08 | 0.00 | 68 | 1014.0 |
| 20260906065759 | 82 | 110 | 0.0 | 0.9 | 0.00 | 0.08 | 0.00 | 68 | 1014.0 |
| 20260906065657 | 82 | 111 | 0.0 | 0.9 | 0.00 | 0.08 | 0.00 | 68 | 1013.9 |
| 20260906065602 | 82 | 111 | 0.0 | 0.9 | 0.00 | 0.08 | 0.00 | 68 | 1014.0 |
| 20260906065456 | 82 | 114 | 0.0 | 0.9 | 0.00 | 0.08 | 0.00 | 68 | 1014.0 |
| 20260906065351 | 82 | 114 | 0.0 | 0.9 | 0.00 | 0.08 | 0.00 | 68 | 1013.9 |
| 20260906065255 | 82 | 114 | 0.0 | 0.9 | 0.00 | 0.08 | 0.00 | 68 | 1014.0 |
| 20260906065150 | 82 | 114 | 0.0 | 0.9 | 0.00 | 0.08 | 0.00 | 68 | 1014.0 |
| 20260906065114 | 82 | 114 | 0.0 | 0.9 | 0.00 | 0.08 | 0.00 | 68 | 1014.0 |
| 20260906064953 | 82 | 114 | 0.0 | 0.9 | 0.00 | 0.08 | 0.00 | 68 | 1014.0 |
| 20260906064849 | 82 | 114 | 0.0 | 0.9 | 0.00 | 0.08 | 0.00 | 68 | 1014.0 |
| 20260906064813 | 82 | 114 | 0.0 | 0.9 | 0.00 | 0.08 | 0.00 | 68 | 1014.1 |
| 20260906064708 | 82 | 114 | 0.0 | 0.9 | 0.00 | 0.08 | 0.00 | 68 | 1014.1 |
| 20260906064611 | 82 | 114 | 0.0 | 0.9 | 0.00 | 0.08 | 0.00 | 68 | 1014.1 |
| 20260906064552 | 82 | 114 | 0.0 | 0.9 | 0.00 | 0.08 | 0.00 | 68 | 1014.1 |
| 20260906064505 | 82 | 114 | 0.0 | 0.9 | 0.00 | 0.08 | 0.00 | 68 | 1014.1 |
| 20260906064400 | 82 | 114 | 0.0 | 0.9 | 0.00 | 0.08 | 0.00 | 68 | 1014.1 |
| 20260906064309 | 82 | 114 | 0.0 | 0.9 | 0.00 | 0.08 | 0.00 | 67 | 1014.1 |
| 20260906064203 | 82 | 114 | 0.0 | 0.9 | 0.00 | 0.08 | 0.00 | 67 | 1014.1 |
| 20260906064058 | 82 | 114 | 0.0 | 0.9 | 0.00 | 0.08 | 0.00 | 68 | 1014.1 |
| 20260906063954 | 82 | 114 | 0.0 | 0.9 | 0.00 | 0.08 | 0.00 | 67 | 1014.1 |
| 20260906063858 | 82 | 114 | 0.0 | 0.9 | 0.00 | 0.08 | 0.00 | 67 | 1014.1 |
| 20260906063813 | 82 | 114 | 0.0 | 0.9 | 0.00 | 0.08 | 0.00 | 67 | 1014.1 |
| 20260906063655 | 82 | 114 | 0.0 | 0.9 | 0.00 | 0.08 | 0.00 | 67 | 1014.2 |
| 20260906063554 | 82 | 114 | 0.0 | 0.9 | 0.00 | 0.08 | 0.00 | 67 | 1014.1 |
| 20260906063449 | 82 | 115 | 0.0 | 0.9 | 0.00 | 0.08 | 0.00 | 67 | 1014.2 |
| 20260906063354 | 82 | 115 | 0.0 | 0.9 | 0.00 | 0.08 | 0.00 | 67 | 1014.2 |
| 20260906063248 | 82 | 115 | 0.0 | 0.9 | 0.00 | 0.08 | 0.00 | 67 | 1014.2 |
| 20260906063213 | 82 | 115 | 0.0 | 0.9 | 0.00 | 0.08 | 0.00 | 67 | 1014.2 |
| 20260906063047 | 82 | 117 | 0.0 | 0.9 | 0.00 | 0.08 | 0.00 | 67 | 1014.2 |
| 20260906063021 | 82 | 117 | 0.0 | 0.9 | 0.00 | 0.08 | 0.00 | 67 | 1014.2 |
| 20260906063004 | 82 | 117 | 0.0 | 0.9 | 0.00 | 0.08 | 0.00 | 67 | 1014.2 |
| 20260906062910 | 82 | 117 | 0.0 | 0.9 | 0.00 | 0.08 | 0.00 | 67 | 1014.2 |
| 20260906062825 | 82 | 117 | 0.0 | 0.9 | 0.00 | 0.08 | 0.00 | 67 | 1014.2 |
| 20260906062708 | 82 | 117 | 0.0 | 0.9 | 0.00 | 0.08 | 0.00 | 67 | 1014.2 |
| 20260906062603 | 82 | 117 | 0.0 | 0.9 | 0.00 | 0.08 | 0.00 | 67 | 1014.2 |
| 20260906062527 | 82 | 117 | 0.0 | 0.9 | 0.00 | 0.08 | 0.00 | 67 | 1014.2 |
| 20260906062401 | 82 | 117 | 0.0 | 0.9 | 0.00 | 0.08 | 0.00 | 67 | 1014.2 |
| 20260906062256 | 82 | 117 | 0.0 | 0.9 | 0.00 | 0.08 | 0.00 | 67 | 1014.2 |
| 20260906062201 | 82 | 118 | 0.0 | 1.7 | 0.00 | 0.08 | 0.00 | 67 | 1014.1 |
| 20260906062059 | 83 | 117 | 0.0 | 1.7 | 0.00 | 0.08 | 0.00 | 67 | 1014.2 |
| 20260906061954 | 82 | 117 | 0.0 | 1.7 | 0.00 | 0.08 | 0.00 | 67 | 1014.2 |
| 20260906061919 | 82 | 117 | 0.0 | 1.7 | 0.00 | 0.08 | 0.00 | 67 | 1014.2 |
| 20260906061752 | 82 | 117 | 0.0 | 1.7 | 0.00 | 0.08 | 0.00 | 67 | 1014.2 |
| 20260906061656 | 82 | 117 | 0.0 | 1.7 | 0.00 | 0.08 | 0.00 | 67 | 1014.2 |
| 20260906061551 | 82 | 117 | 0.0 | 1.7 | 0.00 | 0.08 | 0.00 | 67 | 1014.2 |
| 20260906061510 | 82 | 103 | 0.0 | 1.7 | 0.00 | 0.08 | 0.00 | 67 | 1014.2 |
| 20260906061446 | 82 | 103 | 0.9 | 1.7 | 0.00 | 0.08 | 0.00 | 67 | 1014.2 |
| 20260906061414 | 82 | 96 | 0.0 | 1.7 | 0.00 | 0.08 | 0.00 | 68 | 1014.2 |
| 20260906061248 | 82 | 101 | 0.0 | 1.7 | 0.00 | 0.08 | 0.00 | 67 | 1014.2 |
| 20260906061152 | 82 | 101 | 0.0 | 1.7 | 0.00 | 0.08 | 0.00 | 68 | 1014.2 |
| 20260906061047 | 82 | 108 | 0.0 | 0.9 | 0.00 | 0.08 | 0.00 | 67 | 1014.2 |
| 20260906061011 | 82 | 108 | 0.0 | 0.9 | 0.00 | 0.08 | 0.00 | 67 | 1014.3 |
| 20260906060906 | 82 | 108 | 0.0 | 0.9 | 0.00 | 0.08 | 0.00 | 67 | 1014.3 |
| 20260906060801 | 82 | 108 | 0.0 | 0.9 | 0.00 | 0.08 | 0.00 | 67 | 1014.3 |
| 20260906060709 | 82 | 108 | 0.0 | 0.9 | 0.00 | 0.08 | 0.00 | 67 | 1014.3 |
| 20260906060603 | 82 | 108 | 0.0 | 0.9 | 0.00 | 0.08 | 0.00 | 67 | 1014.3 |
| 20260906060508 | 82 | 108 | 0.0 | 0.9 | 0.00 | 0.08 | 0.00 | 67 | 1014.3 |
| 20260906060402 | 82 | 108 | 0.0 | 0.9 | 0.00 | 0.08 | 0.00 | 67 | 1014.3 |
| 20260906060326 | 83 | 108 | 0.0 | 0.9 | 0.00 | 0.08 | 0.00 | 67 | 1014.3 |
| 20260906060200 | 83 | 108 | 0.0 | 0.9 | 0.00 | 0.08 | 0.00 | 67 | 1014.4 |
| 20260906060156 | 82 | 108 | 0.0 | 0.9 | 0.00 | 0.08 | 0.00 | 67 | 1014.4 |
| 20260906060106 | 83 | 108 | 0.0 | 0.9 | 0.00 | 0.08 | 0.00 | 67 | 1014.4 |
| 20260906055954 | 83 | 108 | 0.0 | 0.9 | 0.00 | 0.08 | 0.00 | 67 | 1014.4 |
| 20260906055852 | 83 | 108 | 0.0 | 0.9 | 0.00 | 0.08 | 0.00 | 67 | 1014.3 |
| 20260906055747 | 83 | 108 | 0.0 | 0.9 | 0.00 | 0.08 | 0.00 | 66 | 1014.4 |
| 20260906055651 | 83 | 108 | 0.0 | 0.9 | 0.00 | 0.08 | 0.00 | 66 | 1014.3 |
| 20260906055606 | 83 | 108 | 0.0 | 0.9 | 0.00 | 0.08 | 0.00 | 66 | 1014.3 |
| 20260906055510 | 83 | 108 | 0.0 | 0.9 | 0.00 | 0.08 | 0.00 | 66 | 1014.3 |
| 20260906055405 | 83 | 108 | 0.0 | 0.9 | 0.00 | 0.08 | 0.00 | 66 | 1014.3 |
| 20260906055329 | 83 | 108 | 0.0 | 0.9 | 0.00 | 0.08 | 0.00 | 66 | 1014.3 |
| 20260906055147 | 83 | 108 | 0.0 | 0.9 | 0.00 | 0.08 | 0.00 | 66 | 1014.3 |
| 20260906055101 | 83 | 108 | 0.0 | 0.9 | 0.00 | 0.08 | 0.00 | 66 | 1014.3 |
| 20260906055005 | 83 | 108 | 0.0 | 0.9 | 0.00 | 0.08 | 0.00 | 66 | 1014.4 |
| 20260906054900 | 83 | 108 | 0.0 | 0.9 | 0.00 | 0.08 | 0.00 | 66 | 1014.4 |
| 20260906054755 | 83 | 108 | 0.0 | 0.9 | 0.00 | 0.08 | 0.00 | 65 | 1014.4 |
| 20260906054659 | 83 | 108 | 0.0 | 0.9 | 0.00 | 0.08 | 0.00 | 65 | 1014.4 |
| 20260906054554 | 83 | 108 | 0.0 | 0.9 | 0.00 | 0.08 | 0.00 | 65 | 1014.4 |
| 20260906054513 | 83 | 108 | 0.0 | 0.9 | 0.00 | 0.08 | 0.00 | 65 | 1014.4 |
| 20260906054453 | 83 | 108 | 0.0 | 0.9 | 0.00 | 0.08 | 0.00 | 65 | 1014.4 |
| 20260906054357 | 83 | 108 | 0.0 | 0.9 | 0.00 | 0.08 | 0.00 | 65 | 1014.4 |
| 20260906054252 | 83 | 108 | 0.0 | 0.9 | 0.00 | 0.08 | 0.00 | 65 | 1014.4 |
| 20260906054147 | 83 | 108 | 0.0 | 0.9 | 0.00 | 0.08 | 0.00 | 65 | 1014.5 |
| 20260906054051 | 83 | 108 | 0.0 | 0.9 | 0.00 | 0.08 | 0.00 | 65 | 1014.5 |
| 20260906054006 | 83 | 108 | 0.0 | 0.9 | 0.00 | 0.08 | 0.00 | 65 | 1014.5 |
| 20260906053910 | 84 | 108 | 0.0 | 0.9 | 0.00 | 0.08 | 0.00 | 65 | 1014.4 |
| 20260906053809 | 84 | 108 | 0.0 | 0.9 | 0.00 | 0.08 | 0.00 | 65 | 1014.5 |
| 20260906053733 | 84 | 113 | 0.0 | 0.9 | 0.00 | 0.08 | 0.00 | 65 | 1014.5 |
| 20260906053547 | 84 | 113 | 0.0 | 0.9 | 0.00 | 0.08 | 0.00 | 65 | 1014.5 |
| 20260906053502 | 84 | 118 | 0.0 | 0.9 | 0.00 | 0.08 | 0.00 | 65 | 1014.5 |
| 20260906053406 | 84 | 117 | 0.0 | 0.9 | 0.00 | 0.08 | 0.00 | 65 | 1014.5 |
| 20260906053301 | 84 | 118 | 0.0 | 0.9 | 0.00 | 0.08 | 0.00 | 65 | 1014.5 |
| 20260906053156 | 84 | 119 | 0.0 | 0.9 | 0.00 | 0.08 | 0.00 | 64 | 1014.5 |
| 20260906053103 | 84 | 119 | 0.0 | 0.9 | 0.00 | 0.08 | 0.00 | 64 | 1014.5 |
| 20260906053029 | 84 | 119 | 0.0 | 0.9 | 0.00 | 0.08 | 0.00 | 64 | 1014.5 |
| 20260906052921 | 84 | 119 | 0.0 | 0.9 | 0.00 | 0.08 | 0.00 | 64 | 1014.5 |
| 20260906052804 | 84 | 119 | 0.0 | 1.7 | 0.00 | 0.08 | 0.00 | 64 | 1014.5 |
| 20260906052659 | 84 | 119 | 0.0 | 1.7 | 0.00 | 0.08 | 0.00 | 64 | 1014.5 |
| 20260906052554 | 84 | 119 | 0.0 | 1.7 | 0.00 | 0.08 | 0.00 | 64 | 1014.5 |
| 20260906052518 | 84 | 119 | 0.0 | 1.7 | 0.00 | 0.08 | 0.00 | 64 | 1014.5 |
| 20260906052352 | 84 | 119 | 0.0 | 1.7 | 0.00 | 0.08 | 0.00 | 64 | 1014.5 |
| 20260906052300 | 84 | 119 | 0.0 | 1.7 | 0.00 | 0.08 | 0.00 | 64 | 1014.4 |
| 20260906052155 | 84 | 122 | 0.0 | 1.7 | 0.00 | 0.08 | 0.00 | 64 | 1014.5 |
| 20260906052050 | 84 | 122 | 0.0 | 1.7 | 0.00 | 0.08 | 0.00 | 64 | 1014.5 |
| 20260906051955 | 84 | 122 | 0.9 | 1.7 | 0.00 | 0.08 | 0.00 | 64 | 1014.4 |
| 20260906051849 | 84 | 98 | 0.9 | 1.7 | 0.00 | 0.08 | 0.00 | 64 | 1014.4 |
| 20260906051804 | 84 | 103 | 0.9 | 0.9 | 0.00 | 0.08 | 0.00 | 64 | 1014.4 |
| 20260906051707 | 84 | 104 | 0.0 | 0.9 | 0.00 | 0.08 | 0.00 | 65 | 1014.4 |
| 20260906051606 | 84 | 127 | 0.0 | 0.9 | 0.00 | 0.08 | 0.00 | 64 | 1014.4 |
| 20260906051516 | 83 | 127 | 0.0 | 0.0 | 0.00 | 0.08 | 0.00 | 64 | 1014.4 |
| 20260906051501 | 84 | 127 | 0.0 | 0.0 | 0.00 | 0.08 | 0.00 | 64 | 1014.4 |
| 20260906051405 | 84 | 127 | 0.0 | 0.0 | 0.00 | 0.08 | 0.00 | 65 | 1014.5 |
| 20260906051300 | 84 | 127 | 0.0 | 0.0 | 0.00 | 0.08 | 0.00 | 65 | 1014.4 |
| 20260906051155 | 84 | 127 | 0.0 | 0.0 | 0.00 | 0.08 | 0.00 | 65 | 1014.4 |
| 20260906051059 | 84 | 127 | 0.0 | 0.0 | 0.00 | 0.08 | 0.00 | 65 | 1014.5 |
| 20260906051014 | 84 | 127 | 0.0 | 0.9 | 0.00 | 0.08 | 0.00 | 65 | 1014.5 |
| 20260906050901 | 84 | 140 | 0.0 | 0.9 | 0.00 | 0.08 | 0.00 | 65 | 1014.5 |
| 20260906050756 | 84 | 140 | 0.0 | 0.9 | 0.00 | 0.08 | 0.00 | 65 | 1014.5 |
| 20260906050603 | 84 | 140 | 0.0 | 0.9 | 0.00 | 0.08 | 0.00 | 65 | 1014.4 |
| 20260906050458 | 84 | 140 | 0.0 | 0.9 | 0.00 | 0.08 | 0.00 | 64 | 1014.4 |
| 20260906050422 | 84 | 140 | 0.0 | 0.9 | 0.00 | 0.08 | 0.00 | 64 | 1014.4 |
| 20260906050256 | 84 | 140 | 0.0 | 0.9 | 0.00 | 0.08 | 0.00 | 64 | 1014.4 |
| 20260906050220 | 84 | 140 | 0.0 | 0.9 | 0.00 | 0.08 | 0.00 | 64 | 1014.4 |
| 20260906050134 | 83 | 140 | 0.0 | 0.9 | 0.00 | 0.08 | 0.00 | 64 | 1014.4 |
| 20260906050109 | 84 | 140 | 0.0 | 0.9 | 0.00 | 0.08 | 0.00 | 64 | 1014.4 |
| 20260906045957 | 84 | 141 | 0.0 | 0.9 | 0.00 | 0.08 | 0.00 | 64 | 1014.3 |
| 20260906045851 | 84 | 141 | 0.0 | 1.7 | 0.00 | 0.08 | 0.08 | 64 | 1014.4 |
| 20260906045815 | 84 | 141 | 0.0 | 1.7 | 0.00 | 0.08 | 0.08 | 64 | 1014.4 |
| 20260906045651 | 84 | 110 | 0.0 | 2.6 | 0.00 | 0.08 | 0.08 | 64 | 1014.3 |
| 20260906045605 | 84 | 120 | 0.0 | 2.6 | 0.00 | 0.08 | 0.08 | 64 | 1014.4 |
| 20260906045500 | 84 | 120 | 0.0 | 2.6 | 0.00 | 0.08 | 0.08 | 64 | 1014.4 |
| 20260906045408 | 84 | 109 | 0.0 | 2.6 | 0.00 | 0.08 | 0.08 | 64 | 1014.4 |
| 20260906045311 | 84 | 110 | 0.0 | 2.6 | 0.00 | 0.08 | 0.08 | 64 | 1014.3 |
| 20260906045206 | 84 | 109 | 0.0 | 2.6 | 0.00 | 0.08 | 0.08 | 64 | 1014.4 |
| 20260906045130 | 84 | 110 | 0.9 | 2.6 | 0.00 | 0.08 | 0.08 | 64 | 1014.4 |
| 20260906045004 | 84 | 110 | 0.9 | 2.6 | 0.00 | 0.08 | 0.08 | 64 | 1014.4 |
| 20260906044859 | 84 | 127 | 0.0 | 1.7 | 0.00 | 0.08 | 0.08 | 64 | 1014.4 |
| 20260906044754 | 84 | 127 | 0.0 | 1.7 | 0.00 | 0.08 | 0.08 | 64 | 1014.4 |
| 20260906044702 | 84 | 108 | 0.0 | 0.9 | 0.00 | 0.08 | 0.08 | 64 | 1014.4 |
| 20260906044626 | 84 | 108 | 0.0 | 0.9 | 0.00 | 0.08 | 0.08 | 64 | 1014.4 |
| 20260906044546 | 84 | 108 | 0.0 | 0.9 | 0.00 | 0.08 | 0.08 | 64 | 1014.4 |
| 20260906044500 | 84 | 108 | 0.0 | 0.9 | 0.00 | 0.08 | 0.08 | 64 | 1014.4 |
| 20260906044355 | 84 | 108 | 0.0 | 0.9 | 0.00 | 0.08 | 0.08 | 64 | 1014.5 |
| 20260906044319 | 84 | 108 | 0.0 | 0.9 | 0.00 | 0.08 | 0.08 | 65 | 1014.5 |
| 20260906044152 | 84 | 108 | 0.0 | 0.9 | 0.00 | 0.08 | 0.08 | 64 | 1014.4 |
| 20260906044048 | 84 | 108 | 0.0 | 0.9 | 0.00 | 0.08 | 0.08 | 65 | 1014.5 |
| 20260906044012 | 84 | 92 | 0.0 | 1.7 | 0.00 | 0.08 | 0.08 | 64 | 1014.5 |
| 20260906043850 | 84 | 95 | 0.0 | 1.7 | 0.00 | 0.08 | 0.08 | 65 | 1014.5 |
| 20260906043813 | 84 | 95 | 0.0 | 1.7 | 0.00 | 0.08 | 0.08 | 65 | 1014.5 |
| 20260906043647 | 84 | 95 | 0.0 | 1.7 | 0.00 | 0.08 | 0.08 | 65 | 1014.5 |
| 20260906043551 | 84 | 95 | 0.0 | 1.7 | 0.00 | 0.08 | 0.08 | 65 | 1014.5 |
| 20260906043505 | 84 | 95 | 0.0 | 1.7 | 0.00 | 0.08 | 0.08 | 65 | 1014.5 |
| 20260906043410 | 84 | 95 | 0.0 | 1.7 | 0.00 | 0.08 | 0.08 | 65 | 1014.4 |
| 20260906043305 | 84 | 95 | 0.0 | 1.7 | 0.00 | 0.08 | 0.08 | 65 | 1014.4 |
| 20260906043159 | 85 | 95 | 0.0 | 1.7 | 0.00 | 0.08 | 0.08 | 65 | 1014.4 |
| 20260906043106 | 85 | 86 | 0.0 | 0.9 | 0.00 | 0.08 | 0.08 | 65 | 1014.4 |
| 20260906043013 | 85 | 91 | 0.0 | 0.9 | 0.00 | 0.08 | 0.08 | 65 | 1014.4 |
| 20260906042905 | 85 | 90 | 0.0 | 0.9 | 0.00 | 0.08 | 0.08 | 65 | 1014.4 |
| 20260906042831 | 85 | 86 | 0.0 | 0.9 | 0.00 | 0.08 | 0.08 | 65 | 1014.4 |
| 20260906042723 | 85 | 110 | 0.0 | 0.9 | 0.00 | 0.08 | 0.08 | 65 | 1014.4 |
| 20260906042608 | 85 | 125 | 0.0 | 0.9 | 0.00 | 0.08 | 0.08 | 65 | 1014.4 |
| 20260906042522 | 85 | 125 | 0.0 | 0.9 | 0.00 | 0.08 | 0.08 | 65 | 1014.4 |
| 20260906042355 | 85 | 127 | 0.0 | 1.7 | 0.00 | 0.08 | 0.08 | 65 | 1014.4 |
| 20260906042306 | 85 | 118 | 0.0 | 1.7 | 0.00 | 0.08 | 0.08 | 65 | 1014.4 |
| 20260906042158 | 85 | 129 | 0.0 | 1.7 | 0.00 | 0.08 | 0.08 | 65 | 1014.3 |
| 20260906042102 | 85 | 129 | 0.0 | 1.7 | 0.00 | 0.08 | 0.08 | 65 | 1014.3 |
| 20260906041956 | 85 | 118 | 0.0 | 1.7 | 0.00 | 0.08 | 0.08 | 65 | 1014.3 |
| 20260906041851 | 85 | 121 | 0.0 | 1.7 | 0.00 | 0.08 | 0.08 | 65 | 1014.3 |
| 20260906041755 | 85 | 121 | 0.0 | 1.7 | 0.00 | 0.08 | 0.08 | 65 | 1014.3 |
| 20260906041710 | 85 | 121 | 0.0 | 1.7 | 0.00 | 0.08 | 0.08 | 64 | 1014.3 |
| 20260906041552 | 85 | 115 | 0.9 | 1.7 | 0.00 | 0.08 | 0.08 | 65 | 1014.3 |
| 20260906041527 | 84 | 115 | 0.0 | 1.7 | 0.00 | 0.08 | 0.08 | 64 | 1014.3 |
| 20260906041451 | 85 | 115 | 0.0 | 1.7 | 0.00 | 0.08 | 0.08 | 64 | 1014.3 |
| 20260906041346 | 85 | 109 | 0.0 | 1.7 | 0.00 | 0.08 | 0.08 | 64 | 1014.3 |
| 20260906041310 | 85 | 109 | 0.0 | 1.7 | 0.00 | 0.08 | 0.08 | 64 | 1014.3 |
| 20260906041213 | 85 | 139 | 0.9 | 1.7 | 0.00 | 0.08 | 0.08 | 64 | 1014.3 |
| 20260906041048 | 85 | 130 | 0.0 | 1.7 | 0.00 | 0.08 | 0.08 | 64 | 1014.3 |
| 20260906041011 | 85 | 134 | 0.0 | 1.7 | 0.00 | 0.08 | 0.08 | 64 | 1014.3 |
| 20260906040906 | 85 | 113 | 0.0 | 1.7 | 0.00 | 0.08 | 0.08 | 64 | 1014.3 |
| 20260906040830 | 85 | 112 | 0.0 | 1.7 | 0.00 | 0.08 | 0.08 | 64 | 1014.3 |
| 20260906040707 | 85 | 112 | 0.0 | 1.7 | 0.00 | 0.08 | 0.08 | 64 | 1014.3 |
| 20260906040631 | 85 | 115 | 0.0 | 1.7 | 0.00 | 0.08 | 0.08 | 64 | 1014.3 |
| 20260906040505 | 85 | 100 | 0.0 | 1.7 | 0.00 | 0.08 | 0.08 | 64 | 1014.3 |
| 20260906040400 | 85 | 100 | 0.9 | 1.7 | 0.00 | 0.08 | 0.08 | 64 | 1014.3 |
| 20260906040304 | 85 | 88 | 0.9 | 1.7 | 0.00 | 0.08 | 0.08 | 64 | 1014.2 |
| 20260906040159 | 85 | 105 | 0.0 | 1.7 | 0.00 | 0.08 | 0.08 | 64 | 1014.3 |
| 20260906040116 | 85 | 105 | 0.0 | 1.7 | 0.00 | 0.08 | 0.08 | 64 | 1014.2 |
| 20260906040039 | 85 | 119 | 0.0 | 1.7 | 0.00 | 0.08 | 0.08 | 64 | 1014.2 |
| 20260906040000 | 85 | 146 | 0.0 | 1.7 | 0.00 | 0.08 | 0.08 | 64 | 1014.2 |
| 20260906035922 | 85 | 115 | 0.0 | 1.7 | 0.00 | 0.08 | 0.08 | 64 | 1014.2 |
| 20260906035756 | 85 | 130 | 0.0 | 1.7 | 0.00 | 0.08 | 0.08 | 64 | 1014.2 |
| 20260906035720 | 85 | 145 | 0.9 | 1.7 | 0.00 | 0.08 | 0.08 | 64 | 1014.2 |
| 20260906035614 | 85 | 113 | 0.0 | 1.7 | 0.00 | 0.08 | 0.08 | 64 | 1014.2 |
| 20260906035457 | 85 | 113 | 0.0 | 1.7 | 0.00 | 0.08 | 0.08 | 64 | 1014.2 |
| 20260906035352 | 85 | 124 | 0.0 | 1.7 | 0.00 | 0.08 | 0.08 | 63 | 1014.2 |
| 20260906035247 | 85 | 124 | 0.9 | 1.7 | 0.00 | 0.08 | 0.08 | 63 | 1014.2 |
| 20260906035155 | 85 | 78 | 0.9 | 1.7 | 0.00 | 0.08 | 0.08 | 63 | 1014.2 |
| 20260906035050 | 85 | 115 | 0.0 | 0.9 | 0.00 | 0.08 | 0.08 | 63 | 1014.1 |
| 20260906035014 | 85 | 122 | 0.0 | 0.9 | 0.00 | 0.08 | 0.08 | 63 | 1014.1 |
| 20260906034909 | 85 | 94 | 0.0 | 1.7 | 0.00 | 0.08 | 0.08 | 63 | 1014.1 |
| 20260906034832 | 86 | 108 | 0.0 | 1.7 | 0.00 | 0.08 | 0.08 | 63 | 1014.1 |
| 20260906034646 | 86 | 112 | 0.0 | 1.7 | 0.00 | 0.08 | 0.08 | 63 | 1014.1 |
| 20260906034626 | 85 | 112 | 0.0 | 1.7 | 0.00 | 0.08 | 0.08 | 63 | 1014.1 |
| 20260906034601 | 86 | 112 | 0.0 | 1.7 | 0.00 | 0.08 | 0.08 | 63 | 1014.1 |
| 20260906034505 | 86 | 112 | 0.0 | 1.7 | 0.00 | 0.08 | 0.08 | 63 | 1014.0 |
| 20260906034404 | 86 | 112 | 0.0 | 1.7 | 0.00 | 0.08 | 0.08 | 63 | 1014.0 |
| 20260906034328 | 86 | 112 | 0.0 | 3.5 | 0.00 | 0.08 | 0.08 | 63 | 1014.0 |
| 20260906034201 | 86 | 94 | 0.9 | 3.5 | 0.00 | 0.08 | 0.08 | 63 | 1014.0 |
| 20260906034057 | 86 | 94 | 0.9 | 3.5 | 0.00 | 0.08 | 0.08 | 63 | 1014.0 |
| 20260906033957 | 86 | 143 | 0.0 | 3.5 | 0.00 | 0.08 | 0.08 | 63 | 1014.0 |
| 20260906033912 | 86 | 129 | 0.9 | 3.5 | 0.00 | 0.08 | 0.08 | 63 | 1014.0 |
| 20260906033755 | 86 | 133 | 0.9 | 3.5 | 0.00 | 0.08 | 0.08 | 63 | 1014.0 |
| 20260906033710 | 86 | 134 | 0.9 | 3.5 | 0.00 | 0.08 | 0.08 | 63 | 1014.0 |
| 20260906033617 | 86 | 134 | 0.9 | 3.5 | 0.00 | 0.08 | 0.08 | 63 | 1014.0 |
| 20260906033520 | 86 | 105 | 0.9 | 2.6 | 0.00 | 0.08 | 0.08 | 63 | 1013.9 |
| 20260906033354 | 86 | 125 | 0.9 | 2.6 | 0.00 | 0.08 | 0.08 | 63 | 1014.0 |
| 20260906033249 | 86 | 116 | 0.9 | 2.6 | 0.00 | 0.08 | 0.08 | 63 | 1013.9 |
| 20260906033213 | 86 | 119 | 0.9 | 2.6 | 0.00 | 0.08 | 0.08 | 63 | 1013.9 |
| 20260906033116 | 85 | 122 | 0.9 | 2.6 | 0.00 | 0.08 | 0.08 | 63 | 1013.9 |
| 20260906033047 | 86 | 98 | 0.9 | 2.6 | 0.00 | 0.08 | 0.08 | 63 | 1013.9 |
| 20260906033012 | 86 | 108 | 0.9 | 2.6 | 0.00 | 0.08 | 0.08 | 63 | 1013.9 |
| 20260906032914 | 86 | 114 | 0.9 | 1.7 | 0.00 | 0.08 | 0.08 | 63 | 1013.9 |
| 20260906032748 | 86 | 110 | 0.9 | 1.7 | 0.00 | 0.08 | 0.08 | 63 | 1013.9 |
| 20260906032647 | 86 | 110 | 0.9 | 1.7 | 0.00 | 0.08 | 0.08 | 63 | 1013.9 |
| 20260906032610 | 86 | 123 | 0.9 | 1.7 | 0.00 | 0.08 | 0.08 | 63 | 1013.9 |
| 20260906032513 | 86 | 113 | 0.9 | 1.7 | 0.00 | 0.08 | 0.08 | 64 | 1013.9 |
| 20260906032348 | 86 | 101 | 0.9 | 1.7 | 0.00 | 0.08 | 0.08 | 63 | 1013.9 |
| 20260906032306 | 86 | 98 | 0.0 | 1.7 | 0.00 | 0.08 | 0.08 | 63 | 1014.0 |
| 20260906032207 | 86 | 105 | 0.0 | 1.7 | 0.00 | 0.08 | 0.08 | 64 | 1013.9 |
| 20260906032102 | 86 | 105 | 0.0 | 1.7 | 0.00 | 0.08 | 0.08 | 64 | 1013.9 |
| 20260906032001 | 86 | 110 | 0.0 | 1.7 | 0.00 | 0.08 | 0.08 | 64 | 1013.9 |
| 20260906031905 | 86 | 110 | 0.0 | 2.6 | 0.00 | 0.08 | 0.08 | 64 | 1013.9 |
| 20260906031800 | 86 | 110 | 0.0 | 2.6 | 0.00 | 0.08 | 0.08 | 64 | 1013.9 |
| 20260906031655 | 86 | 110 | 0.0 | 2.6 | 0.00 | 0.08 | 0.08 | 63 | 1013.9 |
| 20260906031625 | 86 | 110 | 0.0 | 2.6 | 0.00 | 0.08 | 0.08 | 64 | 1013.9 |
| 20260906031549 | 86 | 110 | 0.9 | 2.6 | 0.00 | 0.08 | 0.08 | 64 | 1013.9 |
| 20260906031453 | 86 | 110 | 0.9 | 2.6 | 0.00 | 0.08 | 0.08 | 63 | 1013.9 |
| 20260906031408 | 86 | 118 | 0.0 | 2.6 | 0.00 | 0.08 | 0.08 | 64 | 1013.9 |
| 20260906031250 | 86 | 101 | 0.0 | 2.6 | 0.00 | 0.08 | 0.08 | 63 | 1013.9 |
| 20260906031158 | 86 | 91 | 0.0 | 2.6 | 0.00 | 0.08 | 0.08 | 64 | 1013.9 |
| 20260906031053 | 86 | 91 | 0.9 | 2.6 | 0.00 | 0.08 | 0.08 | 63 | 1013.9 |
| 20260906030948 | 86 | 98 | 0.0 | 0.9 | 0.00 | 0.08 | 0.08 | 63 | 1013.8 |
| 20260906030912 | 86 | 101 | 0.0 | 0.9 | 0.00 | 0.08 | 0.08 | 63 | 1013.8 |
| 20260906030805 | 86 | 101 | 0.0 | 0.9 | 0.00 | 0.08 | 0.08 | 63 | 1013.8 |
| 20260906030709 | 87 | 108 | 0.0 | 0.9 | 0.00 | 0.08 | 0.08 | 63 | 1013.8 |
| 20260906030624 | 87 | 108 | 0.0 | 0.9 | 0.00 | 0.08 | 0.08 | 63 | 1013.8 |
| 20260906030507 | 87 | 108 | 0.0 | 0.9 | 0.00 | 0.08 | 0.08 | 63 | 1013.8 |
| 20260906030435 | 87 | 108 | 0.0 | 0.9 | 0.00 | 0.08 | 0.08 | 63 | 1013.8 |
| 20260906030250 | 87 | 96 | 0.0 | 0.9 | 0.00 | 0.08 | 0.08 | 63 | 1013.8 |
| 20260906030204 | 87 | 96 | 0.0 | 0.9 | 0.00 | 0.08 | 0.08 | 63 | 1013.8 |
| 20260906030119 | 87 | 91 | 0.0 | 0.9 | 0.00 | 0.08 | 0.08 | 63 | 1013.7 |
| 20260906030037 | 86 | 89 | 0.0 | 0.9 | 0.00 | 0.08 | 0.08 | 63 | 1013.7 |
| 20260906025958 | 87 | 89 | 0.0 | 0.9 | 0.00 | 0.08 | 0.08 | 63 | 1013.7 |
| 20260906025852 | 87 | 92 | 0.0 | 0.9 | 0.00 | 0.08 | 0.08 | 63 | 1013.7 |
| 20260906025756 | 87 | 81 | 0.0 | 0.9 | 0.00 | 0.08 | 0.08 | 62 | 1013.7 |
| 20260906025655 | 87 | 79 | 0.0 | 0.9 | 0.00 | 0.08 | 0.08 | 62 | 1013.6 |
| 20260906025550 | 87 | 79 | 0.9 | 0.9 | 0.00 | 0.08 | 0.08 | 62 | 1013.6 |
| 20260906025454 | 87 | 115 | 0.0 | 0.9 | 0.00 | 0.08 | 0.08 | 62 | 1013.6 |
| 20260906025349 | 87 | 117 | 0.0 | 0.9 | 0.00 | 0.08 | 0.08 | 62 | 1013.6 |
| 20260906025313 | 87 | 117 | 0.0 | 0.9 | 0.00 | 0.08 | 0.08 | 62 | 1013.5 |
| 20260906025148 | 87 | 120 | 0.0 | 0.9 | 0.00 | 0.08 | 0.08 | 62 | 1013.5 |
| 20260906025047 | 87 | 120 | 0.0 | 0.9 | 0.00 | 0.08 | 0.08 | 61 | 1013.5 |
| 20260906025011 | 87 | 120 | 0.0 | 0.9 | 0.00 | 0.08 | 0.08 | 61 | 1013.6 |
| 20260906024846 | 87 | 118 | 0.0 | 0.9 | 0.00 | 0.08 | 0.08 | 61 | 1013.5 |
| 20260906024801 | 87 | 118 | 0.0 | 0.9 | 0.00 | 0.08 | 0.08 | 61 | 1013.5 |
| 20260906024705 | 87 | 118 | 0.0 | 0.9 | 0.00 | 0.08 | 0.08 | 61 | 1013.5 |
| 20260906024600 | 87 | 108 | 0.0 | 1.7 | 0.00 | 0.08 | 0.08 | 61 | 1013.5 |
| 20260906024523 | 87 | 97 | 0.0 | 1.7 | 0.00 | 0.08 | 0.08 | 61 | 1013.5 |
| 20260906024455 | 87 | 96 | 0.0 | 1.7 | 0.00 | 0.08 | 0.08 | 61 | 1013.5 |
| 20260906024403 | 87 | 107 | 0.0 | 1.7 | 0.00 | 0.08 | 0.08 | 61 | 1013.5 |
| 20260906024258 | 87 | 107 | 0.0 | 1.7 | 0.00 | 0.08 | 0.08 | 61 | 1013.4 |
| 20260906024222 | 88 | 107 | 0.0 | 1.7 | 0.00 | 0.08 | 0.08 | 61 | 1013.5 |
| 20260906024056 | 88 | 107 | 0.0 | 1.7 | 0.00 | 0.08 | 0.08 | 61 | 1013.4 |
| 20260906023951 | 88 | 110 | 0.0 | 1.7 | 0.00 | 0.08 | 0.08 | 61 | 1013.4 |
| 20260906023915 | 88 | 110 | 0.9 | 2.6 | 0.00 | 0.08 | 0.08 | 61 | 1013.4 |
| 20260906023750 | 88 | 109 | 0.9 | 2.6 | 0.00 | 0.08 | 0.08 | 61 | 1013.3 |
| 20260906023648 | 88 | 122 | 0.0 | 2.6 | 0.00 | 0.08 | 0.08 | 61 | 1013.4 |
| 20260906023613 | 88 | 122 | 0.0 | 2.6 | 0.00 | 0.08 | 0.08 | 60 | 1013.3 |
| 20260906023448 | 88 | 106 | 0.0 | 2.6 | 0.00 | 0.08 | 0.08 | 60 | 1013.3 |
| 20260906023402 | 88 | 106 | 0.0 | 2.6 | 0.00 | 0.08 | 0.08 | 60 | 1013.3 |
| 20260906023307 | 88 | 101 | 0.9 | 2.6 | 0.00 | 0.08 | 0.08 | 60 | 1013.3 |
| 20260906023222 | 88 | 101 | 0.9 | 2.6 | 0.00 | 0.08 | 0.08 | 60 | 1013.3 |
| 20260906023104 | 88 | 89 | 0.9 | 2.6 | 0.00 | 0.08 | 0.08 | 60 | 1013.3 |
| 20260906023043 | 87 | 89 | 0.0 | 1.7 | 0.00 | 0.08 | 0.08 | 60 | 1013.3 |
| 20260906023001 | 88 | 88 | 0.0 | 1.7 | 0.00 | 0.08 | 0.08 | 60 | 1013.3 |
| 20260906022909 | 88 | 89 | 0.9 | 1.7 | 0.00 | 0.08 | 0.08 | 60 | 1013.2 |
| 20260906022823 | 88 | 89 | 0.9 | 1.7 | 0.00 | 0.08 | 0.08 | 60 | 1013.3 |
| 20260906022726 | 88 | 89 | 0.9 | 1.7 | 0.00 | 0.08 | 0.08 | 60 | 1013.2 |
| 20260906022600 | 88 | 146 | 0.9 | 1.7 | 0.00 | 0.08 | 0.08 | 60 | 1013.3 |
| 20260906022455 | 88 | 146 | 0.9 | 1.7 | 0.00 | 0.08 | 0.08 | 59 | 1013.2 |
| 20260906022359 | 88 | 116 | 0.0 | 0.9 | 0.00 | 0.08 | 0.08 | 59 | 1013.2 |
| 20260906022254 | 88 | 117 | 0.0 | 0.9 | 0.00 | 0.08 | 0.08 | 59 | 1013.2 |
| 20260906022152 | 88 | 103 | 0.0 | 0.9 | 0.00 | 0.08 | 0.08 | 59 | 1013.2 |
| 20260906022056 | 88 | 84 | 0.0 | 0.9 | 0.00 | 0.08 | 0.08 | 59 | 1013.2 |
| 20260906022012 | 88 | 84 | 0.0 | 0.9 | 0.00 | 0.08 | 0.08 | 59 | 1013.2 |
| 20260906021854 | 88 | 91 | 0.0 | 0.9 | 0.00 | 0.08 | 0.08 | 59 | 1013.2 |
| 20260906021749 | 88 | 97 | 0.0 | 0.9 | 0.00 | 0.08 | 0.08 | 59 | 1013.2 |
| 20260906021713 | 89 | 97 | 0.0 | 0.9 | 0.00 | 0.08 | 0.08 | 59 | 1013.2 |
| 20260906021549 | 89 | 97 | 0.0 | 0.9 | 0.00 | 0.08 | 0.08 | 58 | 1013.1 |
| 20260906021523 | 88 | 97 | 0.0 | 0.9 | 0.00 | 0.08 | 0.08 | 58 | 1013.1 |
| 20260906021504 | 89 | 97 | 0.0 | 0.9 | 0.00 | 0.08 | 0.08 | 58 | 1013.1 |
| 20260906021411 | 89 | 97 | 0.0 | 0.9 | 0.00 | 0.08 | 0.08 | 58 | 1013.2 |
| 20260906021334 | 89 | 97 | 0.0 | 0.9 | 0.00 | 0.08 | 0.08 | 58 | 1013.1 |
| 20260906021209 | 89 | 97 | 0.0 | 0.9 | 0.00 | 0.08 | 0.08 | 58 | 1013.2 |
| 20260906021112 | 89 | 97 | 0.0 | 0.9 | 0.00 | 0.08 | 0.08 | 58 | 1013.2 |
| 20260906020946 | 89 | 89 | 0.0 | 1.7 | 0.00 | 0.08 | 0.08 | 58 | 1013.1 |
| 20260906020901 | 89 | 90 | 0.0 | 1.7 | 0.00 | 0.08 | 0.08 | 58 | 1013.1 |
| 20260906020806 | 89 | 90 | 0.0 | 1.7 | 0.00 | 0.08 | 0.08 | 58 | 1013.1 |
| 20260906020701 | 89 | 90 | 0.0 | 1.7 | 0.00 | 0.08 | 0.08 | 57 | 1013.1 |
| 20260906020559 | 89 | 90 | 0.0 | 1.7 | 0.00 | 0.08 | 0.08 | 57 | 1013.0 |
| 20260906020503 | 89 | 90 | 0.0 | 1.7 | 0.00 | 0.08 | 0.08 | 57 | 1013.0 |
| 20260906020358 | 89 | 90 | 0.0 | 1.7 | 0.00 | 0.08 | 0.08 | 57 | 1013.0 |
| 20260906020253 | 89 | 99 | 0.9 | 2.6 | 0.00 | 0.08 | 0.08 | 57 | 1013.0 |
| 20260906020133 | 89 | 99 | 0.9 | 2.6 | 0.00 | 0.08 | 0.08 | 57 | 1013.1 |
| 20260906020100 | 89 | 93 | 0.0 | 2.6 | 0.00 | 0.08 | 0.08 | 57 | 1013.0 |
| 20260906015955 | 89 | 96 | 0.9 | 2.6 | 0.00 | 0.08 | 0.08 | 57 | 1013.0 |
| 20260906015848 | 89 | 79 | 0.9 | 2.6 | 0.00 | 0.08 | 0.08 | 57 | 1012.9 |
| 20260906015812 | 89 | 79 | 0.9 | 2.6 | 0.00 | 0.08 | 0.08 | 57 | 1012.9 |
| 20260906015707 | 89 | 75 | 0.9 | 2.6 | 0.00 | 0.08 | 0.08 | 57 | 1012.9 |
| 20260906015632 | 89 | 96 | 0.9 | 2.6 | 0.00 | 0.08 | 0.08 | 57 | 1012.9 |
| 20260906015506 | 89 | 79 | 0.9 | 2.6 | 0.00 | 0.08 | 0.08 | 57 | 1012.9 |
| 20260906015400 | 89 | 58 | 0.0 | 2.6 | 0.00 | 0.08 | 0.08 | 57 | 1012.8 |
| 20260906015255 | 89 | 104 | 0.0 | 2.6 | 0.02 | 0.08 | 0.08 | 57 | 1012.8 |
| 20260906015203 | 89 | 104 | 0.9 | 2.6 | 0.04 | 0.08 | 0.08 | 57 | 1012.9 |
| 20260906015058 | 89 | 104 | 0.9 | 2.6 | 0.04 | 0.08 | 0.08 | 57 | 1012.8 |
| 20260906014953 | 90 | 110 | 0.0 | 2.6 | 0.04 | 0.08 | 0.08 | 57 | 1012.8 |
| 20260906014857 | 90 | 71 | 0.0 | 2.6 | 0.04 | 0.08 | 0.08 | 57 | 1012.8 |
| 20260906014752 | 90 | 71 | 0.9 | 2.6 | 0.04 | 0.08 | 0.08 | 57 | 1012.8 |
| 20260906014647 | 90 | 94 | 0.0 | 1.7 | 0.04 | 0.08 | 0.08 | 57 | 1012.8 |
| 20260906014555 | 89 | 91 | 0.0 | 2.6 | 0.04 | 0.08 | 0.08 | 57 | 1012.8 |
| 20260906014526 | 89 | 95 | 0.0 | 2.6 | 0.04 | 0.08 | 0.08 | 57 | 1012.8 |
| 20260906014450 | 90 | 88 | 0.0 | 3.5 | 0.04 | 0.08 | 0.08 | 57 | 1012.8 |
| 20260906014415 | 90 | 101 | 0.9 | 3.5 | 0.04 | 0.08 | 0.08 | 57 | 1012.8 |
| 20260906014309 | 90 | 99 | 0.9 | 3.5 | 0.04 | 0.08 | 0.08 | 57 | 1012.8 |
| 20260906014232 | 90 | 98 | 0.9 | 3.5 | 0.04 | 0.08 | 0.08 | 57 | 1012.7 |
| 20260906014046 | 90 | 82 | 0.9 | 3.5 | 0.04 | 0.08 | 0.08 | 57 | 1012.7 |
| 20260906014001 | 90 | 71 | 0.0 | 3.5 | 0.04 | 0.08 | 0.08 | 57 | 1012.7 |
| 20260906013905 | 90 | 120 | 0.0 | 3.5 | 0.04 | 0.08 | 0.08 | 57 | 1012.8 |
| 20260906013802 | 90 | 102 | 0.9 | 3.5 | 0.05 | 0.08 | 0.08 | 57 | 1012.7 |
| 20260906013706 | 90 | 60 | 1.7 | 3.5 | 0.05 | 0.08 | 0.08 | 57 | 1012.7 |
| 20260906013601 | 90 | 118 | 0.9 | 3.5 | 0.06 | 0.08 | 0.08 | 57 | 1012.7 |
| 20260906013456 | 90 | 103 | 0.0 | 0.9 | 0.08 | 0.08 | 0.08 | 57 | 1012.7 |
| 20260906013419 | 90 | 56 | 0.0 | 0.9 | 0.08 | 0.08 | 0.08 | 57 | 1012.7 |
| 20260906013322 | 90 | 92 | 0.0 | 3.5 | 0.08 | 0.08 | 0.08 | 57 | 1012.7 |
| 20260906013216 | 90 | 92 | 0.0 | 3.5 | 0.08 | 0.08 | 0.08 | 57 | 1012.6 |
| 20260906013059 | 90 | 92 | 0.0 | 3.5 | 0.08 | 0.08 | 0.08 | 57 | 1012.7 |
| 20260906013034 | 89 | 92 | 0.0 | 3.5 | 0.08 | 0.08 | 0.08 | 57 | 1012.7 |
| 20260906012959 | 90 | 110 | 0.0 | 3.5 | 0.08 | 0.08 | 0.08 | 57 | 1012.7 |
| 20260906012853 | 90 | 110 | 0.0 | 3.5 | 0.08 | 0.08 | 0.08 | 57 | 1012.7 |
| 20260906012757 | 90 | 110 | 0.0 | 3.5 | 0.08 | 0.08 | 0.08 | 57 | 1012.6 |
| 20260906012652 | 90 | 94 | 0.0 | 3.5 | 0.08 | 0.08 | 0.08 | 57 | 1012.5 |
| 20260906012547 | 90 | 94 | 0.9 | 3.5 | 0.08 | 0.08 | 0.08 | 57 | 1012.6 |
| 20260906012451 | 90 | 120 | 1.7 | 3.5 | 0.08 | 0.08 | 0.08 | 57 | 1012.6 |
| 20260906012346 | 90 | 92 | 1.7 | 3.5 | 0.08 | 0.08 | 0.08 | 56 | 1012.6 |
| 20260906012314 | 90 | 80 | 0.9 | 3.5 | 0.08 | 0.08 | 0.08 | 56 | 1012.6 |
| 20260906012149 | 90 | 103 | 0.0 | 1.7 | 0.08 | 0.08 | 0.08 | 57 | 1012.6 |
| 20260906012104 | 90 | 103 | 0.9 | 1.7 | 0.08 | 0.08 | 0.08 | 56 | 1012.6 |
| 20260906012008 | 90 | 105 | 0.9 | 1.7 | 0.08 | 0.08 | 0.08 | 56 | 1012.6 |
| 20260906011902 | 90 | 75 | 0.9 | 1.7 | 0.08 | 0.08 | 0.08 | 56 | 1012.6 |
| 20260906011806 | 90 | 108 | 0.9 | 1.7 | 0.08 | 0.08 | 0.08 | 56 | 1012.6 |
| 20260906011701 | 90 | 98 | 0.9 | 1.7 | 0.08 | 0.08 | 0.08 | 56 | 1012.6 |
| 20260906011623 | 90 | 49 | 0.9 | 1.7 | 0.08 | 0.08 | 0.08 | 56 | 1012.6 |
| 20260906011600 | 90 | 48 | 0.9 | 1.7 | 0.08 | 0.08 | 0.08 | 56 | 1012.6 |
| 20260906011504 | 90 | 84 | 0.9 | 1.7 | 0.08 | 0.08 | 0.08 | 56 | 1012.6 |
| 20260906011359 | 90 | 84 | 0.9 | 1.7 | 0.08 | 0.08 | 0.08 | 56 | 1012.6 |
| 20260906011254 | 90 | 119 | 0.9 | 1.7 | 0.08 | 0.08 | 0.08 | 56 | 1012.6 |
| 20260906011218 | 90 | 102 | 0.9 | 1.7 | 0.08 | 0.08 | 0.08 | 57 | 1012.6 |
| 20260906011052 | 90 | 94 | 1.7 | 1.7 | 0.08 | 0.08 | 0.08 | 56 | 1012.6 |
| 20260906010946 | 90 | 80 | 1.7 | 1.7 | 0.08 | 0.08 | 0.08 | 56 | 1012.6 |
| 20260906010854 | 90 | 103 | 0.9 | 1.7 | 0.08 | 0.08 | 0.08 | 56 | 1012.6 |
| 20260906010749 | 90 | 111 | 0.0 | 1.7 | 0.08 | 0.08 | 0.08 | 56 | 1012.6 |
| 20260906010654 | 90 | 85 | 0.0 | 1.7 | 0.08 | 0.08 | 0.08 | 56 | 1012.6 |
| 20260906010548 | 90 | 95 | 0.0 | 1.7 | 0.08 | 0.08 | 0.08 | 56 | 1012.6 |
| 20260906010503 | 90 | 95 | 0.0 | 1.7 | 0.08 | 0.08 | 0.08 | 56 | 1012.6 |
| 20260906010346 | 91 | 95 | 0.0 | 1.7 | 0.08 | 0.08 | 0.08 | 56 | 1012.6 |
| 20260906010301 | 91 | 95 | 0.0 | 1.7 | 0.08 | 0.08 | 0.08 | 55 | 1012.6 |
| 20260906010205 | 91 | 95 | 0.0 | 1.7 | 0.08 | 0.08 | 0.08 | 56 | 1012.5 |
| 20260906010135 | 90 | 98 | 0.0 | 1.7 | 0.08 | 0.08 | 0.08 | 55 | 1012.5 |
| 20260906010115 | 91 | 98 | 0.0 | 1.7 | 0.08 | 0.08 | 0.08 | 55 | 1012.5 |
| 20260906010025 | 91 | 86 | 0.0 | 1.7 | 0.08 | 0.08 | 0.08 | 55 | 1012.5 |
| 20260906005927 | 91 | 86 | 0.0 | 1.7 | 0.08 | 0.08 | 0.08 | 55 | 1012.5 |
| 20260906005801 | 91 | 86 | 0.0 | 1.7 | 0.08 | 0.08 | 0.08 | 55 | 1012.5 |
| 20260906005656 | 91 | 86 | 0.0 | 3.5 | 0.08 | 0.08 | 0.08 | 55 | 1012.4 |
| 20260906005600 | 91 | 56 | 0.0 | 3.5 | 0.08 | 0.08 | 0.08 | 55 | 1012.5 |
| 20260906005455 | 91 | 56 | 0.0 | 3.5 | 0.08 | 0.08 | 0.08 | 55 | 1012.5 |
| 20260906005354 | 91 | 56 | 0.0 | 3.5 | 0.07 | 0.07 | 0.07 | 55 | 1012.5 |
| 20260906005258 | 91 | 56 | 0.0 | 3.5 | 0.05 | 0.05 | 0.05 | 55 | 1012.5 |
| 20260906005152 | 91 | 62 | 0.0 | 3.5 | 0.04 | 0.04 | 0.04 | 55 | 1012.5 |
| 20260906005056 | 91 | 90 | 0.0 | 3.5 | 0.04 | 0.04 | 0.04 | 55 | 1012.5 |
| 20260906004951 | 91 | 65 | 0.9 | 3.5 | 0.04 | 0.04 | 0.04 | 54 | 1012.5 |
| 20260906004846 | 91 | 60 | 0.9 | 3.5 | 0.04 | 0.04 | 0.04 | 54 | 1012.5 |
| 20260906004810 | 91 | 63 | 0.9 | 2.6 | 0.04 | 0.04 | 0.04 | 54 | 1012.4 |
| 20260906004713 | 91 | 63 | 0.9 | 2.6 | 0.04 | 0.04 | 0.04 | 54 | 1012.5 |
| 20260906004552 | 91 | 50 | 0.9 | 2.6 | 0.04 | 0.04 | 0.04 | 54 | 1012.5 |
| 20260906004527 | 91 | 30 | 0.0 | 2.6 | 0.04 | 0.04 | 0.04 | 54 | 1012.5 |
| 20260906004447 | 92 | 96 | 0.9 | 2.6 | 0.04 | 0.04 | 0.04 | 54 | 1012.5 |
| 20260906004411 | 92 | 96 | 0.0 | 2.6 | 0.04 | 0.04 | 0.04 | 54 | 1012.4 |
| 20260906004246 | 92 | 73 | 0.0 | 2.6 | 0.04 | 0.04 | 0.04 | 54 | 1012.4 |
| 20260906004201 | 92 | 79 | 0.0 | 2.6 | 0.04 | 0.04 | 0.04 | 54 | 1012.4 |
| 20260906004105 | 92 | 79 | 0.0 | 3.5 | 0.04 | 0.04 | 0.04 | 54 | 1012.4 |
| 20260906004000 | 92 | 92 | 0.9 | 3.5 | 0.04 | 0.04 | 0.04 | 54 | 1012.4 |
| 20260906003859 | 92 | 92 | 1.7 | 3.5 | 0.04 | 0.04 | 0.04 | 54 | 1012.4 |
| 20260906003803 | 92 | 76 | 0.9 | 3.5 | 0.03 | 0.03 | 0.03 | 54 | 1012.4 |
| 20260906003658 | 92 | 76 | 0.0 | 3.5 | 0.02 | 0.02 | 0.02 | 54 | 1012.4 |
| 20260906003553 | 92 | 65 | 0.0 | 3.5 | 0.02 | 0.02 | 0.02 | 54 | 1012.4 |
| 20260906003448 | 92 | 51 | 0.9 | 3.5 | 0.00 | 0.00 | 0.00 | 54 | 1012.4 |
| 20260906003352 | 92 | 94 | 1.7 | 3.5 | 0.00 | 0.00 | 0.00 | 53 | 1012.4 |
| 20260906003251 | 92 | 96 | 0.9 | 3.5 | 0.00 | 0.00 | 0.00 | 53 | 1012.4 |
| 20260906003156 | 92 | 72 | 0.0 | 3.5 | 0.00 | 0.00 | 0.00 | 53 | 1012.4 |
| 20260906003140 | 92 | 83 | 0.0 | 3.5 | 0.00 | 0.00 | 0.00 | 54 | 1012.4 |
| 20260906003050 | 92 | 83 | 0.9 | 3.5 | 0.00 | 0.00 | 0.00 | 53 | 1012.4 |
| 20260906003015 | 92 | 83 | 1.7 | 3.5 | 0.00 | 0.00 | 0.00 | 53 | 1012.5 |
| 20260906002909 | 93 | 79 | 1.7 | 3.5 | 0.00 | 0.00 | 0.00 | 53 | 1012.5 |
| 20260906002804 | 93 | 98 | 0.9 | 3.5 | 0.00 | 0.00 | 0.00 | 53 | 1012.5 |
| 20260906002659 | 93 | 80 | 0.9 | 3.5 | 0.00 | 0.00 | 0.00 | 53 | 1012.5 |
| 20260906002548 | 93 | 58 | 0.9 | 2.6 | 0.00 | 0.00 | 0.00 | 52 | 1012.5 |
| 20260906002501 | 93 | 58 | 0.9 | 2.6 | 0.00 | 0.00 | 0.00 | 52 | 1012.5 |
| 20260906002357 | 93 | 97 | 0.9 | 2.6 | 0.00 | 0.00 | 0.00 | 52 | 1012.5 |
| 20260906002301 | 93 | 98 | 0.0 | 1.7 | 0.00 | 0.00 | 0.00 | 52 | 1012.5 |
| 20260906002156 | 93 | 79 | 0.0 | 0.9 | 0.00 | 0.00 | 0.00 | 52 | 1012.5 |
| 20260906002051 | 93 | 79 | 0.0 | 0.9 | 0.00 | 0.00 | 0.00 | 51 | 1012.5 |
| 20260906001955 | 93 | 79 | 0.0 | 1.7 | 0.00 | 0.00 | 0.00 | 52 | 1012.5 |
| 20260906001854 | 93 | 55 | 0.0 | 1.7 | 0.00 | 0.00 | 0.00 | 51 | 1012.5 |
| 20260906001748 | 94 | 55 | 0.0 | 1.7 | 0.00 | 0.00 | 0.00 | 51 | 1012.4 |
| 20260906001652 | 94 | 55 | 0.0 | 1.7 | 0.00 | 0.00 | 0.00 | 51 | 1012.5 |
| 20260906001625 | 93 | 55 | 0.0 | 1.7 | 0.00 | 0.00 | 0.00 | 51 | 1012.5 |
| 20260906001548 | 94 | 55 | 0.0 | 1.7 | 0.00 | 0.00 | 0.00 | 51 | 1012.5 |
| 20260906001512 | 94 | 55 | 0.0 | 1.7 | 0.00 | 0.00 | 0.00 | 51 | 1012.5 |
| 20260906001345 | 94 | 55 | 0.0 | 1.7 | 0.00 | 0.00 | 0.00 | 50 | 1012.5 |
| 20260906001310 | 94 | 55 | 0.0 | 1.7 | 0.00 | 0.00 | 0.00 | 50 | 1012.4 |
| 20260906001149 | 94 | 55 | 0.9 | 1.7 | 0.00 | 0.00 | 0.00 | 50 | 1012.5 |
| 20260906001103 | 94 | 56 | 0.9 | 1.7 | 0.00 | 0.00 | 0.00 | 50 | 1012.5 |
| 20260906001007 | 94 | 79 | 0.0 | 1.7 | 0.00 | 0.00 | 0.00 | 50 | 1012.5 |
| 20260906000902 | 94 | 75 | 0.9 | 1.7 | 0.00 | 0.00 | 0.00 | 50 | 1012.5 |
| 20260906000826 | 94 | 75 | 0.9 | 1.7 | 0.00 | 0.00 | 0.00 | 49 | 1012.5 |
| 20260906000701 | 94 | 94 | 0.0 | 2.6 | 0.00 | 0.00 | 0.00 | 50 | 1012.5 |
| 20260906000555 | 94 | 94 | 0.0 | 2.6 | 0.00 | 0.00 | 0.00 | 50 | 1012.5 |
| 20260906000504 | 95 | 94 | 0.0 | 3.5 | 0.00 | 0.00 | 0.00 | 49 | 1012.5 |
| 20260906000359 | 95 | 68 | 0.0 | 3.5 | 0.00 | 0.00 | 0.00 | 49 | 1012.4 |
| 20260906000256 | 95 | 101 | 0.0 | 3.5 | 0.00 | 0.00 | 0.00 | 49 | 1012.4 |
| 20260906000158 | 95 | 109 | 0.0 | 3.5 | 0.00 | 0.00 | 0.00 | 49 | 1012.4 |
| 20260906000134 | 95 | 108 | 0.0 | 3.5 | 0.00 | 0.00 | 0.00 | 49 | 1012.4 |
| 20260906000037 | 94 | 108 | 0.0 | 3.5 | 0.00 | 0.00 | 0.00 | 49 | 1012.4 |
| 20260905235951 | 95 | 108 | 0.9 | 3.5 | 0.00 | 0.00 | 0.00 | 48 | 1012.5 |
| 20260905235913 | 95 | 104 | 0.9 | 3.5 | 0.00 | 0.00 | 0.00 | 48 | 1012.5 |
| 20260905235808 | 95 | 97 | 1.7 | 3.5 | 0.00 | 0.00 | 0.00 | 48 | 1012.5 |
| 20260905235654 | 95 | 50 | 1.7 | 3.5 | 0.00 | 0.00 | 0.00 | 48 | 1012.5 |
| 20260905235609 | 96 | 102 | 0.0 | 4.3 | 0.00 | 0.00 | 0.00 | 48 | 1012.5 |
| 20260905235452 | 96 | 120 | 0.9 | 4.3 | 0.00 | 0.00 | 0.00 | 48 | 1012.4 |
| 20260905235347 | 96 | 135 | 1.7 | 4.3 | 0.00 | 0.00 | 0.00 | 47 | 1012.4 |
| 20260905235311 | 96 | 89 | 1.7 | 4.3 | 0.00 | 0.00 | 0.00 | 47 | 1012.4 |
| 20260905235147 | 96 | 155 | 1.7 | 4.3 | 0.00 | 0.00 | 0.00 | 47 | 1012.4 |
| 20260905235100 | 96 | 97 | 1.7 | 4.3 | 0.00 | 0.00 | 0.00 | 47 | 1012.4 |
| 20260905235005 | 96 | 70 | 2.6 | 4.3 | 0.00 | 0.00 | 0.00 | 47 | 1012.4 |
| 20260905234903 | 96 | 62 | 1.7 | 4.3 | 0.00 | 0.00 | 0.00 | 46 | 1012.4 |
| 20260905234827 | 97 | 69 | 0.9 | 4.3 | 0.00 | 0.00 | 0.00 | 47 | 1012.4 |
| 20260905234701 | 97 | 59 | 0.9 | 3.5 | 0.00 | 0.00 | 0.00 | 47 | 1012.4 |
| 20260905234624 | 96 | 101 | 0.0 | 3.5 | 0.00 | 0.00 | 0.00 | 46 | 1012.4 |
| 20260905234556 | 97 | 110 | 0.9 | 3.5 | 0.00 | 0.00 | 0.00 | 46 | 1012.4 |
| 20260905234501 | 97 | 163 | 0.0 | 3.5 | 0.00 | 0.00 | 0.00 | 46 | 1012.4 |
| 20260905234355 | 97 | 120 | 0.9 | 3.5 | 0.00 | 0.00 | 0.00 | 46 | 1012.4 |
| 20260905234250 | 97 | 138 | 0.9 | 3.5 | 0.00 | 0.00 | 0.00 | 45 | 1012.4 |
| 20260905234218 | 97 | 64 | 0.9 | 3.5 | 0.00 | 0.00 | 0.00 | 46 | 1012.4 |
| 20260905234052 | 97 | 94 | 0.9 | 3.5 | 0.00 | 0.00 | 0.00 | 46 | 1012.3 |
| 20260905233957 | 97 | 70 | 0.9 | 3.5 | 0.00 | 0.00 | 0.00 | 45 | 1012.3 |
| 20260905233851 | 98 | 127 | 0.0 | 3.5 | 0.00 | 0.00 | 0.00 | 46 | 1012.3 |
| 20260905233805 | 98 | 91 | 0.0 | 3.5 | 0.00 | 0.00 | 0.00 | 46 | 1012.3 |
| 20260905233709 | 98 | 91 | 0.0 | 3.5 | 0.00 | 0.00 | 0.00 | 45 | 1012.3 |
| 20260905233604 | 98 | 100 | 0.9 | 3.5 | 0.00 | 0.00 | 0.00 | 45 | 1012.3 |
| 20260905233513 | 98 | 99 | 0.9 | 3.5 | 0.00 | 0.00 | 0.00 | 45 | 1012.3 |
| 20260905233407 | 98 | 115 | 0.0 | 1.7 | 0.00 | 0.00 | 0.00 | 45 | 1012.3 |
| 20260905233302 | 98 | 101 | 0.0 | 1.7 | 0.00 | 0.00 | 0.00 | 45 | 1012.3 |
| 20260905233226 | 98 | 91 | 0.0 | 2.6 | 0.00 | 0.00 | 0.00 | 45 | 1012.3 |
| 20260905233132 | 97 | 100 | 0.0 | 2.6 | 0.00 | 0.00 | 0.00 | 45 | 1012.3 |
| 20260905233120 | 98 | 100 | 0.0 | 2.6 | 0.00 | 0.00 | 0.00 | 45 | 1012.3 |
| 20260905233004 | 98 | 100 | 0.9 | 2.6 | 0.00 | 0.00 | 0.00 | 45 | 1012.3 |
| 20260905232858 | 98 | 121 | 0.9 | 2.6 | 0.00 | 0.00 | 0.00 | 45 | 1012.3 |
| 20260905232822 | 98 | 146 | 0.9 | 2.6 | 0.00 | 0.00 | 0.00 | 44 | 1012.3 |
| 20260905232700 | 98 | 117 | 0.9 | 2.6 | 0.00 | 0.00 | 0.00 | 44 | 1012.3 |
| 20260905232554 | 98 | 128 | 0.9 | 2.6 | 0.00 | 0.00 | 0.00 | 45 | 1012.3 |
| 20260905232518 | 98 | 131 | 0.9 | 2.6 | 0.00 | 0.00 | 0.00 | 45 | 1012.3 |
| 20260905232403 | 98 | 93 | 0.0 | 2.6 | 0.00 | 0.00 | 0.00 | 45 | 1012.3 |
| 20260905232256 | 98 | 100 | 0.0 | 2.6 | 0.00 | 0.00 | 0.00 | 45 | 1012.3 |
| 20260905232151 | 98 | 100 | 0.0 | 2.6 | 0.00 | 0.00 | 0.00 | 45 | 1012.3 |
| 20260905232115 | 98 | 100 | 0.9 | 2.6 | 0.00 | 0.00 | 0.00 | 45 | 1012.2 |
| 20260905231949 | 98 | 99 | 0.9 | 3.5 | 0.00 | 0.00 | 0.00 | 45 | 1012.2 |
| 20260905231847 | 98 | 135 | 0.0 | 4.3 | 0.00 | 0.00 | 0.00 | 45 | 1012.2 |
| 20260905231811 | 98 | 135 | 0.9 | 4.3 | 0.00 | 0.00 | 0.00 | 45 | 1012.2 |
| 20260905231714 | 98 | 136 | 1.7 | 4.3 | 0.00 | 0.00 | 0.00 | 45 | 1012.2 |
| 20260905231639 | 97 | 49 | 0.9 | 4.3 | 0.00 | 0.00 | 0.00 | 45 | 1012.2 |
| 20260905231548 | 98 | 58 | 0.9 | 4.3 | 0.00 | 0.00 | 0.00 | 45 | 1012.2 |
| 20260905231512 | 98 | 120 | 0.0 | 4.3 | 0.00 | 0.00 | 0.00 | 45 | 1012.3 |
| 20260905231405 | 98 | 139 | 0.9 | 4.3 | 0.00 | 0.00 | 0.00 | 44 | 1012.2 |
| 20260905231308 | 98 | 68 | 0.9 | 4.3 | 0.00 | 0.00 | 0.00 | 44 | 1012.2 |
| 20260905231203 | 98 | 99 | 1.7 | 4.3 | 0.00 | 0.00 | 0.00 | 44 | 1012.2 |
| 20260905231103 | 98 | 65 | 2.6 | 4.3 | 0.00 | 0.00 | 0.00 | 44 | 1012.3 |
| 20260905231007 | 99 | 117 | 0.9 | 4.3 | 0.00 | 0.00 | 0.00 | 44 | 1012.3 |
| 20260905230922 | 99 | 49 | 0.0 | 2.6 | 0.00 | 0.00 | 0.00 | 45 | 1012.3 |
| 20260905230805 | 99 | 49 | 0.0 | 4.3 | 0.00 | 0.00 | 0.00 | 44 | 1012.3 |
| 20260905230700 | 99 | 84 | 0.0 | 4.3 | 0.00 | 0.00 | 0.00 | 44 | 1012.3 |
| 20260905230624 | 99 | 116 | 0.0 | 4.3 | 0.00 | 0.00 | 0.00 | 44 | 1012.3 |
| 20260905230458 | 99 | 125 | 0.9 | 4.3 | 0.00 | 0.00 | 0.00 | 44 | 1012.3 |
| 20260905230353 | 98 | 127 | 0.9 | 4.3 | 0.00 | 0.00 | 0.00 | 44 | 1012.3 |
| 20260905230301 | 98 | 136 | 0.0 | 4.3 | 0.00 | 0.00 | 0.00 | 44 | 1012.2 |
| 20260905230156 | 98 | 121 | 0.9 | 6.1 | 0.00 | 0.00 | 0.00 | 44 | 1012.2 |
| 20260905230111 | 98 | 63 | 1.7 | 6.1 | 0.00 | 0.00 | 0.00 | 44 | 1012.2 |
| 20260905230032 | 98 | 91 | 1.7 | 6.1 | 0.00 | 0.00 | 0.00 | 44 | 1012.2 |
| 20260905225950 | 99 | 75 | 1.7 | 6.1 | 0.00 | 0.00 | 0.00 | 44 | 1012.2 |
| 20260905225913 | 99 | 49 | 1.7 | 6.1 | 0.00 | 0.00 | 0.00 | 44 | 1012.2 |
| 20260905225747 | 98 | 73 | 0.9 | 6.1 | 0.00 | 0.00 | 0.00 | 44 | 1012.2 |
| 20260905225710 | 98 | 96 | 0.9 | 7.0 | 0.00 | 0.00 | 0.00 | 44 | 1012.2 |
| 20260905225548 | 98 | 96 | 1.7 | 7.0 | 0.00 | 0.00 | 0.00 | 44 | 1012.2 |
| 20260905225512 | 98 | 155 | 2.6 | 7.0 | 0.00 | 0.00 | 0.00 | 44 | 1012.2 |
| 20260905225347 | 99 | 108 | 2.6 | 7.0 | 0.00 | 0.00 | 0.00 | 43 | 1012.2 |
| 20260905225305 | 99 | 57 | 1.7 | 7.0 | 0.00 | 0.00 | 0.00 | 44 | 1012.2 |
| 20260905225206 | 99 | 36 | 0.9 | 7.0 | 0.00 | 0.00 | 0.00 | 43 | 1012.3 |
| 20260905225100 | 99 | 110 | 1.7 | 7.0 | 0.00 | 0.00 | 0.00 | 43 | 1012.2 |
| 20260905225004 | 99 | 88 | 2.6 | 7.0 | 0.00 | 0.00 | 0.00 | 43 | 1012.2 |
| 20260905224859 | 99 | 90 | 3.5 | 7.0 | 0.00 | 0.00 | 0.00 | 43 | 1012.3 |
| 20260905224758 | 99 | 131 | 2.6 | 7.0 | 0.00 | 0.00 | 0.00 | 43 | 1012.2 |
| 20260905224702 | 99 | 82 | 2.6 | 5.2 | 0.00 | 0.00 | 0.00 | 43 | 1012.2 |
| 20260905224557 | 99 | 147 | 1.7 | 4.3 | 0.00 | 0.00 | 0.00 | 43 | 1012.2 |
| 20260905224523 | 99 | 98 | 0.9 | 4.3 | 0.00 | 0.00 | 0.00 | 43 | 1012.2 |
| 20260905224452 | 99 | 61 | 0.9 | 4.3 | 0.00 | 0.00 | 0.00 | 44 | 1012.2 |
| 20260905224357 | 100 | 120 | 1.7 | 4.3 | 0.00 | 0.00 | 0.00 | 43 | 1012.2 |
| 20260905224311 | 100 | 84 | 2.6 | 4.3 | 0.00 | 0.00 | 0.00 | 43 | 1012.2 |
| 20260905224235 | 100 | 108 | 1.7 | 4.3 | 0.00 | 0.00 | 0.00 | 43 | 1012.2 |
| 20260905224053 | 100 | 45 | 0.9 | 7.0 | 0.00 | 0.00 | 0.00 | 43 | 1012.2 |
| 20260905223948 | 100 | 39 | 0.0 | 7.0 | 0.00 | 0.00 | 0.00 | 44 | 1012.2 |
| 20260905223853 | 99 | 103 | 0.0 | 7.0 | 0.00 | 0.00 | 0.00 | 44 | 1012.2 |
| 20260905223747 | 99 | 77 | 0.9 | 7.0 | 0.00 | 0.00 | 0.00 | 44 | 1012.2 |
| 20260905223701 | 99 | 77 | 0.9 | 7.0 | 0.00 | 0.00 | 0.00 | 43 | 1012.2 |
| 20260905223605 | 99 | 58 | 1.7 | 7.0 | 0.00 | 0.00 | 0.00 | 43 | 1012.2 |
| 20260905223500 | 99 | 88 | 0.9 | 7.0 | 0.00 | 0.00 | 0.00 | 43 | 1012.2 |
| 20260905223408 | 99 | 95 | 2.6 | 7.0 | 0.00 | 0.00 | 0.00 | 43 | 1012.2 |
| 20260905223322 | 99 | 66 | 3.5 | 7.0 | 0.00 | 0.00 | 0.00 | 42 | 1012.2 |
| 20260905223156 | 99 | 70 | 3.5 | 6.1 | 0.00 | 0.00 | 0.00 | 43 | 1012.3 |
| 20260905223059 | 100 | 76 | 3.5 | 6.1 | 0.00 | 0.00 | 0.00 | 42 | 1012.3 |
| 20260905223026 | 99 | 53 | 2.6 | 6.1 | 0.00 | 0.00 | 0.00 | 42 | 1012.3 |
| 20260905222957 | 100 | 58 | 3.5 | 6.1 | 0.00 | 0.00 | 0.00 | 42 | 1012.3 |
| 20260905222901 | 100 | 75 | 2.6 | 5.2 | 0.00 | 0.00 | 0.00 | 42 | 1012.3 |
| 20260905222754 | 100 | 67 | 1.7 | 5.2 | 0.00 | 0.00 | 0.00 | 42 | 1012.3 |
| 20260905222653 | 100 | 127 | 2.6 | 5.2 | 0.00 | 0.00 | 0.00 | 41 | 1012.3 |
| 20260905222557 | 101 | 101 | 2.6 | 5.2 | 0.00 | 0.00 | 0.00 | 41 | 1012.3 |
| 20260905222452 | 101 | 80 | 1.7 | 5.2 | 0.00 | 0.00 | 0.00 | 41 | 1012.3 |
| 20260905222347 | 101 | 64 | 2.6 | 5.2 | 0.00 | 0.00 | 0.00 | 40 | 1012.3 |
| 20260905222311 | 101 | 77 | 2.6 | 5.2 | 0.00 | 0.00 | 0.00 | 40 | 1012.3 |
| 20260905222226 | 101 | 82 | 0.9 | 5.2 | 0.00 | 0.00 | 0.00 | 38 | 1012.4 |
| 20260905222108 | 101 | 61 | 0.9 | 4.3 | 0.00 | 0.00 | 0.00 | 35 | 1012.3 |
| 20260905221947 | 102 | 66 | 1.7 | 4.3 | 0.00 | 0.00 | 0.00 | 35 | 1012.3 |
| 20260905221901 | 102 | 34 | 0.9 | 4.3 | 0.00 | 0.00 | 0.00 | 35 | 1012.4 |
| 20260905221806 | 102 | 65 | 0.9 | 4.3 | 0.00 | 0.00 | 0.00 | 35 | 1012.3 |
| 20260905221732 | 102 | 79 | 1.7 | 4.3 | 0.00 | 0.00 | 0.00 | 35 | 1012.3 |
| 20260905221625 | 102 | 72 | 1.7 | 4.3 | 0.00 | 0.00 | 0.00 | 35 | 1012.3 |
| 20260905221510 | 102 | 87 | 0.9 | 4.3 | 0.00 | 0.00 | 0.00 | 34 | 1012.4 |
| 20260905221459 | 102 | 60 | 1.7 | 4.3 | 0.00 | 0.00 | 0.00 | 34 | 1012.4 |
| 20260905221403 | 102 | 79 | 0.9 | 4.3 | 0.00 | 0.00 | 0.00 | 35 | 1012.4 |
| 20260905221257 | 102 | 130 | 0.9 | 5.2 | 0.00 | 0.00 | 0.00 | 35 | 1012.3 |
| 20260905221156 | 102 | 120 | 0.0 | 5.2 | 0.00 | 0.00 | 0.00 | 35 | 1012.4 |
| 20260905221120 | 102 | 59 | 0.9 | 5.2 | 0.00 | 0.00 | 0.00 | 35 | 1012.3 |
| 20260905221024 | 102 | 122 | 0.0 | 5.2 | 0.00 | 0.00 | 0.00 | 36 | 1012.4 |
| 20260905220927 | 102 | 62 | 0.0 | 5.2 | 0.00 | 0.00 | 0.00 | 36 | 1012.4 |
| 20260905220801 | 102 | 139 | 0.9 | 5.2 | 0.00 | 0.00 | 0.00 | 36 | 1012.3 |
| 20260905220655 | 102 | 122 | 0.9 | 5.2 | 0.00 | 0.00 | 0.00 | 35 | 1012.4 |
| 20260905220601 | 102 | 124 | 1.7 | 5.2 | 0.00 | 0.00 | 0.00 | 36 | 1012.4 |
| 20260905220455 | 102 | 65 | 1.7 | 5.2 | 0.00 | 0.00 | 0.00 | 35 | 1012.4 |
| 20260905220422 | 102 | 74 | 0.0 | 2.6 | 0.00 | 0.00 | 0.00 | 35 | 1012.4 |
| 20260905220256 | 102 | 72 | 0.9 | 2.6 | 0.00 | 0.00 | 0.00 | 35 | 1012.4 |
| 20260905220221 | 102 | 113 | 0.9 | 2.6 | 0.00 | 0.00 | 0.00 | 35 | 1012.5 |
| 20260905220140 | 101 | 244 | 0.0 | 2.6 | 0.00 | 0.00 | 0.00 | 35 | 1012.5 |
| 20260905220105 | 102 | 231 | 0.9 | 2.6 | 0.00 | 0.00 | 0.00 | 36 | 1012.5 |
| 20260905220014 | 102 | 253 | 0.9 | 2.6 | 0.00 | 0.00 | 0.00 | 35 | 1012.5 |
| 20260905215907 | 102 | 231 | 0.9 | 2.6 | 0.00 | 0.00 | 0.00 | 35 | 1012.5 |
| 20260905215831 | 102 | 301 | 0.0 | 2.6 | 0.00 | 0.00 | 0.00 | 35 | 1012.5 |
| 20260905215725 | 102 | 96 | 0.0 | 2.6 | 0.00 | 0.00 | 0.00 | 35 | 1012.6 |
| 20260905215608 | 101 | 103 | 0.9 | 3.5 | 0.00 | 0.00 | 0.00 | 35 | 1012.6 |
| 20260905215446 | 102 | 103 | 0.9 | 3.5 | 0.00 | 0.00 | 0.00 | 35 | 1012.6 |
| 20260905215410 | 102 | 119 | 0.9 | 3.5 | 0.00 | 0.00 | 0.00 | 35 | 1012.6 |
| 20260905215306 | 102 | 128 | 0.9 | 4.3 | 0.00 | 0.00 | 0.00 | 35 | 1012.7 |
| 20260905215209 | 102 | 122 | 0.9 | 6.1 | 0.00 | 0.00 | 0.00 | 35 | 1012.7 |
| 20260905215123 | 102 | 120 | 0.9 | 6.1 | 0.00 | 0.00 | 0.00 | 35 | 1012.7 |
| 20260905215006 | 102 | 73 | 0.0 | 6.1 | 0.00 | 0.00 | 0.00 | 35 | 1012.7 |
| 20260905214900 | 102 | 64 | 0.9 | 6.1 | 0.00 | 0.00 | 0.00 | 35 | 1012.7 |
| 20260905214804 | 102 | 27 | 1.7 | 6.1 | 0.00 | 0.00 | 0.00 | 34 | 1012.7 |
| 20260905214704 | 102 | 44 | 2.6 | 6.1 | 0.00 | 0.00 | 0.00 | 34 | 1012.7 |
| 20260905214611 | 102 | 57 | 2.6 | 6.1 | 0.00 | 0.00 | 0.00 | 34 | 1012.7 |
| 20260905214558 | 103 | 56 | 3.5 | 6.1 | 0.00 | 0.00 | 0.00 | 34 | 1012.7 |
| 20260905214502 | 103 | 62 | 3.5 | 6.1 | 0.00 | 0.00 | 0.00 | 33 | 1012.7 |
| 20260905214356 | 103 | 61 | 0.9 | 6.1 | 0.00 | 0.00 | 0.00 | 34 | 1012.7 |
| 20260905214251 | 103 | 328 | 0.0 | 5.2 | 0.00 | 0.00 | 0.00 | 34 | 1012.7 |
| 20260905214155 | 103 | 299 | 0.0 | 5.2 | 0.00 | 0.00 | 0.00 | 35 | 1012.7 |
| 20260905214051 | 102 | 299 | 0.0 | 5.2 | 0.00 | 0.00 | 0.00 | 35 | 1012.7 |
| 20260905213949 | 102 | 299 | 0.0 | 5.2 | 0.00 | 0.00 | 0.00 | 35 | 1012.7 |
| 20260905213853 | 102 | 299 | 0.0 | 5.2 | 0.00 | 0.00 | 0.00 | 34 | 1012.7 |
| 20260905213748 | 102 | 23 | 0.9 | 5.2 | 0.00 | 0.00 | 0.00 | 35 | 1012.7 |
| 20260905213712 | 102 | 56 | 1.7 | 5.2 | 0.00 | 0.00 | 0.00 | 34 | 1012.8 |
| 20260905213608 | 102 | 30 | 1.7 | 5.2 | 0.00 | 0.00 | 0.00 | 36 | 1012.7 |
| 20260905213510 | 102 | 35 | 0.0 | 4.3 | 0.00 | 0.00 | 0.00 | 36 | 1012.8 |
| 20260905213404 | 102 | 116 | 0.0 | 4.3 | 0.00 | 0.00 | 0.00 | 35 | 1012.7 |
| 20260905213309 | 102 | 117 | 0.9 | 4.3 | 0.00 | 0.00 | 0.00 | 36 | 1012.7 |
| 20260905213207 | 102 | 71 | 0.9 | 4.3 | 0.00 | 0.00 | 0.00 | 35 | 1012.8 |
| 20260905213110 | 102 | 80 | 0.9 | 4.3 | 0.00 | 0.00 | 0.00 | 36 | 1012.8 |
| 20260905213042 | 101 | 60 | 0.9 | 4.3 | 0.00 | 0.00 | 0.00 | 36 | 1012.8 |
| 20260905212948 | 102 | 29 | 1.7 | 4.3 | 0.00 | 0.00 | 0.00 | 36 | 1012.8 |
| 20260905212901 | 102 | 68 | 2.6 | 4.3 | 0.00 | 0.00 | 0.00 | 35 | 1012.8 |
| 20260905212805 | 102 | 27 | 1.7 | 4.3 | 0.00 | 0.00 | 0.00 | 35 | 1012.8 |
| 20260905212700 | 102 | 73 | 2.6 | 4.3 | 0.00 | 0.00 | 0.00 | 35 | 1012.8 |
| 20260905212624 | 103 | 105 | 2.6 | 4.3 | 0.00 | 0.00 | 0.00 | 35 | 1012.8 |
| 20260905212502 | 103 | 148 | 0.9 | 4.3 | 0.00 | 0.00 | 0.00 | 35 | 1012.9 |
| 20260905212357 | 103 | 75 | 0.9 | 4.3 | 0.00 | 0.00 | 0.00 | 36 | 1012.9 |
| 20260905212301 | 102 | 147 | 0.0 | 4.3 | 0.00 | 0.00 | 0.00 | 35 | 1012.9 |
| 20260905212156 | 102 | 117 | 0.9 | 4.3 | 0.00 | 0.00 | 0.00 | 35 | 1012.9 |
| 20260905212051 | 102 | 48 | 0.9 | 4.3 | 0.00 | 0.00 | 0.00 | 35 | 1012.9 |
| 20260905211955 | 103 | 351 | 1.7 | 4.3 | 0.00 | 0.00 | 0.00 | 35 | 1012.9 |
| 20260905211850 | 103 | 70 | 0.9 | 4.3 | 0.00 | 0.00 | 0.00 | 34 | 1012.9 |
| 20260905211749 | 103 | 115 | 0.0 | 2.6 | 0.00 | 0.00 | 0.00 | 35 | 1012.9 |
| 20260905211653 | 103 | 53 | 0.0 | 2.6 | 0.00 | 0.00 | 0.00 | 35 | 1012.9 |
| 20260905211632 | 102 | 51 | 0.0 | 2.6 | 0.00 | 0.00 | 0.00 | 35 | 1012.9 |
| 20260905211548 | 103 | 20 | 0.0 | 3.5 | 0.00 | 0.00 | 0.00 | 35 | 1012.9 |
| 20260905211512 | 103 | 354 | 0.0 | 3.5 | 0.00 | 0.00 | 0.00 | 35 | 1012.9 |
| 20260905211347 | 103 | 24 | 0.0 | 5.2 | 0.00 | 0.00 | 0.00 | 35 | 1012.9 |
| 20260905211302 | 103 | 62 | 0.0 | 5.2 | 0.00 | 0.00 | 0.00 | 35 | 1013.0 |
| 20260905211206 | 103 | 67 | 0.0 | 5.2 | 0.00 | 0.00 | 0.00 | 35 | 1012.9 |
| 20260905211045 | 103 | 64 | 0.0 | 5.2 | 0.00 | 0.00 | 0.00 | 35 | 1013.1 |
| 20260905211000 | 103 | 9 | 0.0 | 5.2 | 0.00 | 0.00 | 0.00 | 34 | 1013.1 |
| 20260905210904 | 103 | 50 | 0.9 | 5.2 | 0.00 | 0.00 | 0.00 | 34 | 1013.1 |
| 20260905210759 | 103 | 62 | 1.7 | 5.2 | 0.00 | 0.00 | 0.00 | 34 | 1013.0 |
| 20260905210654 | 104 | 29 | 1.7 | 5.2 | 0.00 | 0.00 | 0.00 | 34 | 1013.0 |
| 20260905210549 | 104 | 343 | 1.7 | 5.2 | 0.00 | 0.00 | 0.00 | 34 | 1013.1 |
| 20260905210457 | 104 | 88 | 0.9 | 2.6 | 0.00 | 0.00 | 0.00 | 34 | 1013.1 |
| 20260905210352 | 103 | 118 | 0.0 | 4.3 | 0.00 | 0.00 | 0.00 | 35 | 1013.0 |
| 20260905210247 | 103 | 141 | 0.0 | 4.3 | 0.00 | 0.00 | 0.00 | 35 | 1013.1 |
| 20260905210151 | 103 | 102 | 0.0 | 4.3 | 0.00 | 0.00 | 0.00 | 35 | 1013.0 |
| 20260905210126 | 102 | 110 | 0.0 | 4.3 | 0.00 | 0.00 | 0.00 | 35 | 1013.0 |
| 20260905210048 | 102 | 110 | 0.0 | 4.3 | 0.00 | 0.00 | 0.00 | 35 | 1013.1 |
| 20260905210005 | 102 | 110 | 0.0 | 4.3 | 0.00 | 0.00 | 0.00 | 35 | 1013.1 |
| 20260905205858 | 102 | 111 | 0.0 | 4.3 | 0.00 | 0.00 | 0.00 | 35 | 1013.0 |
| 20260905205801 | 102 | 68 | 0.0 | 4.3 | 0.00 | 0.00 | 0.00 | 34 | 1013.1 |
| 20260905205700 | 102 | 349 | 1.7 | 4.3 | 0.00 | 0.00 | 0.00 | 35 | 1013.1 |
| 20260905205604 | 102 | 314 | 1.7 | 4.3 | 0.00 | 0.00 | 0.00 | 34 | 1013.1 |
| 20260905205459 | 103 | 292 | 1.7 | 4.3 | 0.00 | 0.00 | 0.00 | 34 | 1013.2 |
| 20260905205354 | 103 | 332 | 0.9 | 2.6 | 0.00 | 0.00 | 0.00 | 34 | 1013.2 |
| 20260905205317 | 102 | 255 | 0.0 | 4.3 | 0.00 | 0.00 | 0.00 | 37 | 1013.1 |
| 20260905205151 | 102 | 91 | 0.0 | 4.3 | 0.00 | 0.00 | 0.00 | 36 | 1013.1 |
| 20260905205055 | 102 | 96 | 0.0 | 4.3 | 0.00 | 0.00 | 0.00 | 36 | 1013.1 |
| 20260905205014 | 102 | 67 | 0.0 | 4.3 | 0.00 | 0.00 | 0.00 | 36 | 1013.1 |
| 20260905204857 | 101 | 81 | 0.0 | 4.3 | 0.00 | 0.00 | 0.00 | 35 | 1013.1 |
| 20260905204812 | 101 | 54 | 0.0 | 4.3 | 0.00 | 0.00 | 0.00 | 35 | 1013.1 |
| 20260905204655 | 101 | 330 | 0.0 | 4.3 | 0.00 | 0.00 | 0.00 | 35 | 1013.1 |
| 20260905204631 | 101 | 330 | 0.0 | 4.3 | 0.00 | 0.00 | 0.00 | 35 | 1013.1 |
| 20260905204550 | 102 | 354 | 0.9 | 4.3 | 0.00 | 0.00 | 0.00 | 35 | 1013.1 |
| 20260905204513 | 102 | 58 | 0.9 | 4.3 | 0.00 | 0.00 | 0.00 | 35 | 1013.2 |
| 20260905204349 | 102 | 56 | 0.9 | 3.5 | 0.00 | 0.00 | 0.00 | 35 | 1013.2 |
| 20260905204247 | 102 | 63 | 0.0 | 2.6 | 0.00 | 0.00 | 0.00 | 35 | 1013.2 |
| 20260905204212 | 102 | 76 | 0.0 | 2.6 | 0.00 | 0.00 | 0.00 | 35 | 1013.2 |
| 20260905204046 | 102 | 45 | 0.0 | 2.6 | 0.00 | 0.00 | 0.00 | 36 | 1013.3 |
| 20260905204010 | 102 | 46 | 0.9 | 2.6 | 0.00 | 0.00 | 0.00 | 36 | 1013.3 |
| 20260905203904 | 102 | 46 | 0.9 | 3.5 | 0.00 | 0.00 | 0.00 | 35 | 1013.3 |
| 20260905203829 | 102 | 340 | 0.9 | 3.5 | 0.00 | 0.00 | 0.00 | 36 | 1013.3 |
| 20260905203702 | 101 | 70 | 0.9 | 3.5 | 0.00 | 0.00 | 0.00 | 37 | 1013.3 |
| 20260905203558 | 101 | 126 | 0.9 | 3.5 | 0.00 | 0.00 | 0.00 | 37 | 1013.3 |
| 20260905203505 | 101 | 93 | 0.9 | 6.1 | 0.00 | 0.00 | 0.00 | 36 | 1013.4 |
| 20260905203401 | 101 | 106 | 0.0 | 6.1 | 0.00 | 0.00 | 0.00 | 36 | 1013.4 |
| 20260905203256 | 101 | 87 | 0.0 | 6.1 | 0.00 | 0.00 | 0.00 | 36 | 1013.4 |
| 20260905203200 | 101 | 92 | 0.9 | 6.1 | 0.00 | 0.00 | 0.00 | 36 | 1013.4 |
| 20260905203055 | 101 | 68 | 2.6 | 6.1 | 0.00 | 0.00 | 0.00 | 36 | 1013.4 |
| 20260905203018 | 101 | 79 | 1.7 | 6.1 | 0.00 | 0.00 | 0.00 | 36 | 1013.5 |
| 20260905202951 | 102 | 76 | 2.6 | 6.1 | 0.00 | 0.00 | 0.00 | 35 | 1013.5 |
| 20260905202913 | 102 | 62 | 2.6 | 6.1 | 0.00 | 0.00 | 0.00 | 35 | 1013.5 |
| 20260905202752 | 102 | 100 | 3.5 | 6.1 | 0.00 | 0.00 | 0.00 | 35 | 1013.5 |
| 20260905202647 | 102 | 115 | 2.6 | 6.1 | 0.00 | 0.00 | 0.00 | 35 | 1013.5 |
| 20260905202611 | 102 | 108 | 0.9 | 4.3 | 0.00 | 0.00 | 0.00 | 35 | 1013.5 |
| 20260905202446 | 102 | 107 | 0.0 | 1.7 | 0.00 | 0.00 | 0.00 | 36 | 1013.5 |
| 20260905202401 | 102 | 110 | 0.0 | 1.7 | 0.00 | 0.00 | 0.00 | 36 | 1013.5 |
| 20260905202306 | 102 | 111 | 0.0 | 2.6 | 0.00 | 0.00 | 0.00 | 36 | 1013.5 |
| 20260905202200 | 102 | 39 | 0.0 | 2.6 | 0.00 | 0.00 | 0.00 | 36 | 1013.5 |
| 20260905202110 | 102 | 53 | 0.0 | 2.6 | 0.00 | 0.00 | 0.00 | 37 | 1013.6 |
| 20260905202004 | 101 | 42 | 0.0 | 2.6 | 0.00 | 0.00 | 0.00 | 36 | 1013.7 |
| 20260905201859 | 101 | 42 | 0.0 | 2.6 | 0.00 | 0.00 | 0.00 | 36 | 1013.6 |
| 20260905201753 | 101 | 130 | 0.0 | 2.6 | 0.00 | 0.00 | 0.00 | 36 | 1013.7 |
| 20260905201718 | 101 | 111 | 0.0 | 2.6 | 0.00 | 0.00 | 0.00 | 37 | 1013.7 |
| 20260905201610 | 101 | 52 | 0.0 | 2.6 | 0.00 | 0.00 | 0.00 | 37 | 1013.7 |
| 20260905201551 | 101 | 7 | 0.9 | 2.6 | 0.00 | 0.00 | 0.00 | 37 | 1013.7 |
| 20260905201454 | 101 | 35 | 0.9 | 2.6 | 0.00 | 0.00 | 0.00 | 36 | 1013.7 |
| 20260905201354 | 101 | 55 | 0.9 | 2.6 | 0.00 | 0.00 | 0.00 | 36 | 1013.7 |
| 20260905201248 | 101 | 96 | 0.9 | 2.6 | 0.00 | 0.00 | 0.00 | 36 | 1013.7 |
| 20260905201152 | 101 | 70 | 0.9 | 2.6 | 0.00 | 0.00 | 0.00 | 37 | 1013.7 |
| 20260905201047 | 101 | 110 | 1.7 | 2.6 | 0.00 | 0.00 | 0.00 | 36 | 1013.7 |
| 20260905201011 | 101 | 90 | 0.9 | 2.6 | 0.00 | 0.00 | 0.00 | 36 | 1013.7 |
| 20260905200846 | 101 | 96 | 0.0 | 1.7 | 0.00 | 0.00 | 0.00 | 38 | 1013.7 |
| 20260905200745 | 101 | 96 | 0.0 | 1.7 | 0.00 | 0.00 | 0.00 | 37 | 1013.7 |
| 20260905200709 | 100 | 87 | 0.0 | 3.5 | 0.00 | 0.00 | 0.00 | 38 | 1013.8 |
| 20260905200603 | 100 | 124 | 0.0 | 3.5 | 0.00 | 0.00 | 0.00 | 40 | 1013.8 |
| 20260905200507 | 100 | 124 | 0.0 | 3.5 | 0.00 | 0.00 | 0.00 | 39 | 1013.8 |
| 20260905200401 | 100 | 124 | 0.0 | 3.5 | 0.00 | 0.00 | 0.00 | 39 | 1013.8 |
| 20260905200305 | 100 | 124 | 0.0 | 3.5 | 0.00 | 0.00 | 0.00 | 38 | 1013.8 |
| 20260905200200 | 100 | 124 | 0.0 | 3.5 | 0.00 | 0.00 | 0.00 | 38 | 1013.9 |
| 20260905200115 | 100 | 275 | 0.0 | 3.5 | 0.00 | 0.00 | 0.00 | 38 | 1013.9 |
| 20260905200044 | 99 | 275 | 0.0 | 3.5 | 0.00 | 0.00 | 0.00 | 38 | 1013.9 |
| 20260905200016 | 100 | 275 | 0.9 | 3.5 | 0.00 | 0.00 | 0.00 | 37 | 1013.9 |
| 20260905195901 | 100 | 283 | 1.7 | 3.5 | 0.00 | 0.00 | 0.00 | 38 | 1013.9 |
| 20260905195756 | 100 | 237 | 1.7 | 3.5 | 0.00 | 0.00 | 0.00 | 38 | 1014.0 |
| 20260905195651 | 100 | 231 | 0.9 | 2.6 | 0.00 | 0.00 | 0.00 | 38 | 1014.0 |
| 20260905195555 | 99 | 249 | 0.0 | 4.3 | 0.00 | 0.00 | 0.00 | 39 | 1014.0 |
| 20260905195510 | 99 | 252 | 0.0 | 4.3 | 0.00 | 0.00 | 0.00 | 39 | 1014.0 |
| 20260905195352 | 99 | 252 | 0.9 | 4.3 | 0.00 | 0.00 | 0.00 | 39 | 1014.0 |
| 20260905195247 | 100 | 252 | 1.7 | 4.3 | 0.00 | 0.00 | 0.00 | 38 | 1014.0 |
| 20260905195146 | 100 | 249 | 1.7 | 4.3 | 0.00 | 0.00 | 0.00 | 39 | 1014.0 |
| 20260905195050 | 100 | 290 | 1.7 | 4.3 | 0.00 | 0.00 | 0.00 | 39 | 1014.0 |
| 20260905195005 | 101 | 289 | 1.7 | 4.3 | 0.00 | 0.00 | 0.00 | 38 | 1013.9 |
| 20260905194928 | 101 | 248 | 1.7 | 4.3 | 0.00 | 0.00 | 0.00 | 37 | 1014.0 |
| 20260905194830 | 101 | 276 | 0.9 | 4.3 | 0.00 | 0.00 | 0.00 | 36 | 1014.0 |
| 20260905194704 | 101 | 197 | 0.0 | 3.5 | 0.00 | 0.00 | 0.00 | 36 | 1014.0 |
| 20260905194628 | 101 | 197 | 0.0 | 3.5 | 0.00 | 0.00 | 0.00 | 36 | 1014.0 |
| 20260905194549 | 101 | 204 | 0.0 | 3.5 | 0.00 | 0.00 | 0.00 | 36 | 1014.0 |
| 20260905194502 | 101 | 203 | 0.0 | 3.5 | 0.00 | 0.00 | 0.00 | 36 | 1014.0 |
| 20260905194401 | 101 | 204 | 0.0 | 3.5 | 0.00 | 0.00 | 0.00 | 36 | 1014.0 |
| 20260905194305 | 101 | 203 | 0.0 | 3.5 | 0.00 | 0.00 | 0.00 | 38 | 1014.1 |
| 20260905194200 | 101 | 210 | 0.0 | 3.5 | 0.00 | 0.00 | 0.00 | 36 | 1014.1 |
| 20260905194055 | 101 | 140 | 0.9 | 3.5 | 0.00 | 0.00 | 0.00 | 37 | 1014.0 |
| 20260905193950 | 101 | 139 | 1.7 | 3.5 | 0.00 | 0.00 | 0.00 | 36 | 1014.1 |
| 20260905193854 | 102 | 86 | 0.9 | 2.6 | 0.00 | 0.00 | 0.00 | 37 | 1014.1 |
| 20260905193749 | 102 | 96 | 0.0 | 3.5 | 0.00 | 0.00 | 0.00 | 38 | 1014.1 |
| 20260905193648 | 102 | 337 | 0.0 | 3.5 | 0.00 | 0.00 | 0.00 | 37 | 1014.1 |
| 20260905193552 | 102 | 336 | 0.0 | 3.5 | 0.00 | 0.00 | 0.00 | 37 | 1014.1 |
| 20260905193447 | 102 | 281 | 0.0 | 3.5 | 0.00 | 0.00 | 0.00 | 37 | 1014.1 |
| 20260905193411 | 102 | 283 | 0.0 | 3.5 | 0.00 | 0.00 | 0.00 | 37 | 1014.1 |
| 20260905193306 | 102 | 162 | 0.9 | 3.5 | 0.00 | 0.00 | 0.00 | 37 | 1014.1 |
| 20260905193229 | 102 | 162 | 1.7 | 3.5 | 0.00 | 0.00 | 0.00 | 36 | 1014.2 |
| 20260905193138 | 102 | 226 | 1.7 | 3.5 | 0.00 | 0.00 | 0.00 | 36 | 1014.2 |
| 20260905193123 | 103 | 286 | 1.7 | 3.5 | 0.00 | 0.00 | 0.00 | 37 | 1014.1 |
| 20260905193008 | 103 | 181 | 0.9 | 3.5 | 0.00 | 0.00 | 0.00 | 36 | 1014.2 |
| 20260905192845 | 102 | 63 | 0.0 | 2.6 | 0.00 | 0.00 | 0.00 | 37 | 1014.2 |
| 20260905192800 | 102 | 88 | 0.0 | 2.6 | 0.00 | 0.00 | 0.00 | 37 | 1014.2 |
| 20260905192704 | 102 | 89 | 0.9 | 2.6 | 0.00 | 0.00 | 0.00 | 36 | 1014.2 |
| 20260905192559 | 102 | 30 | 0.9 | 2.6 | 0.00 | 0.00 | 0.00 | 38 | 1014.1 |
| 20260905192454 | 101 | 15 | 0.0 | 2.6 | 0.00 | 0.00 | 0.00 | 38 | 1014.1 |
| 20260905192358 | 101 | 23 | 0.0 | 2.6 | 0.00 | 0.00 | 0.00 | 37 | 1014.2 |
| 20260905192257 | 101 | 89 | 0.9 | 2.6 | 0.00 | 0.00 | 0.00 | 37 | 1014.1 |
| 20260905192152 | 101 | 311 | 0.9 | 3.5 | 0.00 | 0.00 | 0.00 | 37 | 1014.1 |
| 20260905192057 | 100 | 330 | 0.0 | 3.5 | 0.00 | 0.00 | 0.00 | 37 | 1014.2 |
| 20260905191952 | 100 | 122 | 0.0 | 3.5 | 0.00 | 0.00 | 0.00 | 37 | 1014.2 |
| 20260905191847 | 100 | 127 | 0.0 | 3.5 | 0.00 | 0.00 | 0.00 | 37 | 1014.2 |
| 20260905191751 | 100 | 70 | 0.9 | 3.5 | 0.00 | 0.00 | 0.00 | 37 | 1014.2 |
| 20260905191646 | 100 | 75 | 0.9 | 3.5 | 0.00 | 0.00 | 0.00 | 37 | 1014.2 |
| 20260905191614 | 100 | 64 | 1.7 | 3.5 | 0.00 | 0.00 | 0.00 | 37 | 1014.2 |
| 20260905191528 | 99 | 60 | 1.7 | 3.5 | 0.00 | 0.00 | 0.00 | 38 | 1014.2 |
| 20260905191447 | 100 | 3 | 1.7 | 3.5 | 0.00 | 0.00 | 0.00 | 37 | 1014.2 |
| 20260905191351 | 100 | 50 | 2.6 | 3.5 | 0.00 | 0.00 | 0.00 | 38 | 1014.2 |
| 20260905191246 | 100 | 63 | 2.6 | 3.5 | 0.00 | 0.00 | 0.00 | 38 | 1014.2 |
| 20260905191210 | 99 | 58 | 1.7 | 3.5 | 0.00 | 0.00 | 0.00 | 37 | 1014.2 |
| 20260905191105 | 99 | 92 | 1.7 | 5.2 | 0.00 | 0.00 | 0.00 | 38 | 1014.3 |
| 20260905191000 | 100 | 111 | 1.7 | 5.2 | 0.00 | 0.00 | 0.00 | 37 | 1014.3 |
| 20260905190904 | 100 | 108 | 0.9 | 5.2 | 0.00 | 0.00 | 0.00 | 37 | 1014.3 |
| 20260905190803 | 100 | 115 | 1.7 | 5.2 | 0.00 | 0.00 | 0.00 | 37 | 1014.3 |
| 20260905190658 | 100 | 77 | 1.7 | 5.2 | 0.00 | 0.00 | 0.00 | 37 | 1014.3 |
| 20260905190602 | 101 | 101 | 1.7 | 6.1 | 0.00 | 0.00 | 0.00 | 36 | 1014.3 |
| 20260905190456 | 101 | 105 | 2.6 | 6.1 | 0.00 | 0.00 | 0.00 | 36 | 1014.4 |
| 20260905190352 | 102 | 122 | 2.6 | 6.1 | 0.00 | 0.00 | 0.00 | 36 | 1014.4 |
| 20260905190257 | 102 | 69 | 1.7 | 6.1 | 0.00 | 0.00 | 0.00 | 35 | 1014.4 |
| 20260905190211 | 102 | 153 | 0.9 | 6.1 | 0.00 | 0.00 | 0.00 | 35 | 1014.4 |
| 20260905190109 | 102 | 84 | 0.9 | 6.1 | 0.00 | 0.00 | 0.00 | 35 | 1014.4 |
| 20260905190028 | 102 | 148 | 0.9 | 6.1 | 0.00 | 0.00 | 0.00 | 35 | 1014.4 |
| 20260905190009 | 103 | 233 | 1.7 | 6.1 | 0.00 | 0.00 | 0.00 | 35 | 1014.4 |
| 20260905185850 | 103 | 221 | 1.7 | 6.1 | 0.00 | 0.00 | 0.00 | 36 | 1014.4 |
| 20260905185804 | 103 | 217 | 1.7 | 6.1 | 0.00 | 0.00 | 0.00 | 35 | 1014.5 |
| 20260905185727 | 103 | 187 | 0.9 | 3.5 | 0.00 | 0.00 | 0.00 | 35 | 1014.4 |
| 20260905185631 | 103 | 224 | 1.7 | 3.5 | 0.00 | 0.00 | 0.00 | 35 | 1014.5 |
| 20260905185505 | 102 | 245 | 0.9 | 3.5 | 0.00 | 0.00 | 0.00 | 36 | 1014.5 |
| 20260905185359 | 102 | 193 | 0.9 | 3.5 | 0.00 | 0.00 | 0.00 | 37 | 1014.5 |
| 20260905185308 | 102 | 176 | 0.9 | 3.5 | 0.00 | 0.00 | 0.00 | 36 | 1014.5 |
| 20260905185202 | 102 | 185 | 0.9 | 3.5 | 0.00 | 0.00 | 0.00 | 37 | 1014.5 |
| 20260905185057 | 102 | 310 | 0.9 | 3.5 | 0.00 | 0.00 | 0.00 | 37 | 1014.5 |
| 20260905185002 | 102 | 75 | 0.9 | 3.5 | 0.00 | 0.00 | 0.00 | 36 | 1014.5 |
| 20260905184856 | 101 | 212 | 0.9 | 3.5 | 0.00 | 0.00 | 0.00 | 38 | 1014.5 |
| 20260905184752 | 101 | 290 | 1.7 | 3.5 | 0.00 | 0.00 | 0.00 | 37 | 1014.6 |
| 20260905184656 | 101 | 199 | 1.7 | 4.3 | 0.00 | 0.00 | 0.00 | 38 | 1014.6 |
| 20260905184554 | 101 | 232 | 0.0 | 4.3 | 0.00 | 0.00 | 0.00 | 37 | 1014.6 |
| 20260905184510 | 100 | 126 | 0.0 | 4.3 | 0.00 | 0.00 | 0.00 | 39 | 1014.6 |
| 20260905184449 | 100 | 97 | 0.0 | 4.3 | 0.00 | 0.00 | 0.00 | 38 | 1014.6 |
| 20260905184414 | 100 | 181 | 0.9 | 4.3 | 0.00 | 0.00 | 0.00 | 39 | 1014.6 |
| 20260905184247 | 100 | 328 | 1.7 | 4.3 | 0.00 | 0.00 | 0.00 | 38 | 1014.6 |
| 20260905184151 | 100 | 286 | 0.9 | 4.3 | 0.00 | 0.00 | 0.00 | 39 | 1014.6 |
| 20260905184046 | 100 | 293 | 0.9 | 4.3 | 0.00 | 0.00 | 0.00 | 38 | 1014.6 |
| 20260905184010 | 100 | 293 | 1.7 | 4.3 | 0.00 | 0.00 | 0.00 | 38 | 1014.7 |
| 20260905183849 | 100 | 322 | 1.7 | 4.3 | 0.00 | 0.00 | 0.00 | 38 | 1014.6 |
| 20260905183804 | 100 | 257 | 0.0 | 3.5 | 0.00 | 0.00 | 0.00 | 38 | 1014.6 |
| 20260905183708 | 100 | 299 | 0.9 | 3.5 | 0.00 | 0.00 | 0.00 | 38 | 1014.7 |
| 20260905183603 | 100 | 344 | 1.7 | 3.5 | 0.00 | 0.00 | 0.00 | 38 | 1014.7 |
| 20260905183458 | 100 | 350 | 0.9 | 3.5 | 0.00 | 0.00 | 0.00 | 38 | 1014.7 |
| 20260905183402 | 100 | 274 | 0.0 | 3.5 | 0.00 | 0.00 | 0.00 | 39 | 1014.7 |
| 20260905183257 | 100 | 266 | 0.0 | 3.5 | 0.00 | 0.00 | 0.00 | 40 | 1014.7 |
| 20260905183156 | 99 | 275 | 0.9 | 3.5 | 0.00 | 0.00 | 0.00 | 39 | 1014.7 |
| 20260905183100 | 99 | 319 | 0.9 | 3.5 | 0.00 | 0.00 | 0.00 | 39 | 1014.7 |
| 20260905183041 | 99 | 307 | 0.0 | 3.5 | 0.00 | 0.00 | 0.00 | 39 | 1014.7 |
| 20260905182957 | 99 | 244 | 0.0 | 3.5 | 0.00 | 0.00 | 0.00 | 40 | 1014.8 |
| 20260905182850 | 99 | 200 | 0.9 | 3.5 | 0.00 | 0.00 | 0.00 | 40 | 1014.8 |
| 20260905182754 | 99 | 266 | 1.7 | 3.5 | 0.00 | 0.00 | 0.00 | 40 | 1014.8 |
| 20260905182718 | 99 | 258 | 2.6 | 3.5 | 0.00 | 0.00 | 0.00 | 40 | 1014.8 |
| 20260905182551 | 99 | 287 | 0.9 | 3.5 | 0.00 | 0.00 | 0.00 | 41 | 1014.8 |
| 20260905182450 | 99 | 288 | 0.0 | 3.5 | 0.00 | 0.00 | 0.00 | 41 | 1014.8 |
| 20260905182354 | 99 | 10 | 1.7 | 3.5 | 0.00 | 0.00 | 0.00 | 42 | 1014.8 |
| 20260905182249 | 98 | 214 | 1.7 | 3.5 | 0.00 | 0.00 | 0.00 | 41 | 1014.8 |
| 20260905182214 | 98 | 274 | 1.7 | 3.5 | 0.00 | 0.00 | 0.00 | 41 | 1014.9 |
| 20260905182108 | 98 | 287 | 0.9 | 4.3 | 0.00 | 0.00 | 0.00 | 41 | 1014.9 |
| 20260905182003 | 98 | 310 | 1.7 | 4.3 | 0.00 | 0.00 | 0.00 | 41 | 1014.9 |
| 20260905181908 | 98 | 311 | 2.6 | 4.3 | 0.00 | 0.00 | 0.00 | 41 | 1015.0 |
| 20260905181806 | 98 | 292 | 0.9 | 4.3 | 0.00 | 0.00 | 0.00 | 41 | 1014.9 |
| 20260905181730 | 98 | 217 | 0.9 | 4.3 | 0.00 | 0.00 | 0.00 | 42 | 1014.9 |
| 20260905181650 | 98 | 211 | 0.0 | 4.3 | 0.00 | 0.00 | 0.00 | 40 | 1014.9 |
| 20260905181604 | 99 | 154 | 1.7 | 4.3 | 0.00 | 0.00 | 0.00 | 40 | 1014.9 |
| 20260905181530 | 99 | 307 | 1.7 | 4.3 | 0.00 | 0.00 | 0.00 | 39 | 1015.0 |
| 20260905181403 | 99 | 312 | 2.6 | 4.3 | 0.00 | 0.00 | 0.00 | 39 | 1015.0 |
| 20260905181258 | 100 | 328 | 2.6 | 4.3 | 0.00 | 0.00 | 0.00 | 39 | 1015.0 |
| 20260905181153 | 100 | 300 | 1.7 | 4.3 | 0.00 | 0.00 | 0.00 | 40 | 1015.0 |
| 20260905181057 | 100 | 297 | 0.0 | 3.5 | 0.00 | 0.00 | 0.00 | 39 | 1015.0 |
| 20260905180956 | 100 | 222 | 1.7 | 3.5 | 0.00 | 0.00 | 0.00 | 39 | 1015.0 |
| 20260905180850 | 100 | 215 | 1.7 | 4.3 | 0.00 | 0.00 | 0.00 | 40 | 1015.1 |
| 20260905180754 | 100 | 212 | 0.9 | 4.3 | 0.00 | 0.00 | 0.00 | 40 | 1015.1 |
| 20260905180720 | 100 | 233 | 0.0 | 4.3 | 0.00 | 0.00 | 0.00 | 39 | 1015.1 |
| 20260905180552 | 100 | 231 | 0.0 | 4.3 | 0.00 | 0.00 | 0.00 | 39 | 1015.1 |
| 20260905180447 | 100 | 245 | 0.0 | 4.3 | 0.00 | 0.00 | 0.00 | 40 | 1015.1 |
| 20260905180411 | 100 | 250 | 0.0 | 4.3 | 0.00 | 0.00 | 0.00 | 40 | 1015.1 |
| 20260905180250 | 99 | 255 | 1.7 | 4.3 | 0.00 | 0.00 | 0.00 | 39 | 1015.2 |
| 20260905180215 | 99 | 252 | 1.7 | 4.3 | 0.00 | 0.00 | 0.00 | 39 | 1015.2 |
| 20260905180119 | 99 | 175 | 1.7 | 4.3 | 0.00 | 0.00 | 0.00 | 40 | 1015.2 |
| 20260905180019 | 99 | 269 | 0.0 | 3.5 | 0.00 | 0.00 | 0.00 | 40 | 1015.2 |
| 20260905175959 | 99 | 214 | 0.9 | 3.5 | 0.00 | 0.00 | 0.00 | 40 | 1015.2 |
| 20260905175901 | 99 | 326 | 0.9 | 3.5 | 0.00 | 0.00 | 0.00 | 39 | 1015.2 |
| 20260905175756 | 99 | 236 | 1.7 | 3.5 | 0.00 | 0.00 | 0.00 | 41 | 1015.2 |
| 20260905175651 | 99 | 147 | 1.7 | 3.5 | 0.00 | 0.00 | 0.00 | 40 | 1015.2 |
| 20260905175559 | 99 | 123 | 1.7 | 3.5 | 0.00 | 0.00 | 0.00 | 39 | 1015.2 |
| 20260905175454 | 99 | 108 | 2.6 | 3.5 | 0.00 | 0.00 | 0.00 | 39 | 1015.2 |
| 20260905175349 | 99 | 72 | 1.7 | 3.5 | 0.00 | 0.00 | 0.00 | 40 | 1015.2 |
| 20260905175253 | 99 | 57 | 1.7 | 3.5 | 0.00 | 0.00 | 0.00 | 40 | 1015.2 |
| 20260905175208 | 99 | 75 | 1.7 | 3.5 | 0.00 | 0.00 | 0.00 | 40 | 1015.2 |